MPMG - Transparência

Contra-cheque - Remuneração de todos os servidores ativos - Pós Resolução CNMP 200/2019

Período: 2020 - Dezembro

Ordem Matrícula Nome Cargo Efetivo Lotação Rendimentos Descontos Rendimento Líquido Total *14 Data de Referência
Remuneração básica Remuneração eventual ou Temporária Outras Remunerações Temporárias *7 Verbas Indenizatórias *8 Total de Rendimentos Brutos *9 Obrigatórios Legais Outros Descontos Eventuais Total de descontos *13
Remuneração do Cargo Efetivo *1 Outras Verbas Remuneratórias *2 Função de Confiança ou Cargo em Comissão *3 Gratificação Natalina *4 Férias 1/3 Constitucional *5 Abono de Permanência *6 Contribuição Previdenciária *10 Imposto de Renda *11 Retenção por Teto Constitucional *12
1 498900 ABDON MARCIO BARBOSA DA SILVA OFICIAL DO MP ABRE CAMPO - COMARCA; ABRE CAMPO-PJ-01PJ 6.123,79 612,38 0,00 2.192,80 0,00 0,00 0,00 1.550,00 10.478,97 746,19 673,61 0,00 0,00 1.419,80 9.059,17 31/12/2020
2 177800 ADALBERTO MENEZES FARIA SAMORA OFICIAL DO MP BELO HORIZONTE - COMARCA; DIR ESTRUTURA E PROCESSOS ORGANIZACIONAIS 15.272,02 6.108,81 0,00 4.342,03 0,00 0,00 0,00 1.550,00 27.272,86 2.494,59 4.220,08 0,00 0,00 6.714,67 20.558,19 31/12/2020
3 306400 ADALBERTO MOREIRA GONCALVES ANALISTA DO MP BELO HORIZONTE - COMARCA; BH-24PJ JUIZO REG BARREIRO-SECRETARIA 16.750,82 5.025,25 0,00 4.782,08 0,00 0,00 0,00 1.550,00 28.108,15 2.544,00 4.419,46 0,00 0,00 6.963,46 21.144,69 31/12/2020
4 179300 ADENISE AUXILIADORA SOUZA SAD OFICIAL DO MP BARBACENA - COMARCA; BARBACENA-PJ-06PJ 14.790,66 5.916,26 0,00 7.306,24 0,00 0,00 0,00 1.550,00 29.563,16 2.410,35 4.057,92 0,00 0,00 6.468,27 23.094,89 31/12/2020
5 272200 ADILSON BATISTA ORNELAS OFICIAL DO MP LAVRAS - COMARCA; LAVRAS-PJ-SECRETARIA 5.136,32 1.540,90 0,00 1.816,76 0,00 0,00 0,00 1.550,00 10.043,98 739,53 711,37 0,00 0,00 1.450,90 8.593,08 31/12/2020
6 380100 ADILSON GONCALVES DE MELO JUNIOR ANALISTA DO MP ARAXÁ - COMARCA; ARAXA-PJ-05PJ 10.736,08 2.147,22 0,00 3.003,39 0,00 0,00 0,00 2.319,39 18.206,08 1.458,11 2.168,29 0,00 0,00 3.626,40 14.579,68 31/12/2020
7 148800 ADILSON JANUARIO OFICIAL DO MP BELO HORIZONTE - COMARCA; BH-22PJ PES COM DEF E IDOSOS-SECRETARIA 18.820,14 13.174,10 0,00 6.825,79 0,00 0,00 0,00 1.550,00 40.370,03 3.821,27 6.826,07 0,00 0,00 10.647,34 29.722,69 31/12/2020
8 322601 ADMILSON SILVEIRA ANALISTA DO MP SAO JOAO DO PARAISO COMARCA; SAO JOAO DO PARAISO-PJ-UNPJ 9.146,93 914,69 0,00 2.454,57 0,00 0,00 0,00 1.550,00 14.066,19 1.127,14 1.587,62 0,00 0,00 2.714,76 11.351,43 31/12/2020
9 333700 ADRIANA ABRITTA TEIXEIRA OFICIAL DO MP BELO HORIZONTE - COMARCA; DIRET DE PESSOAL DO MINISTERIO PUBLICO - DPMP 10.069,62 3.020,89 0,00 2.770,75 0,00 0,00 0,00 1.550,00 17.411,26 1.482,77 2.322,77 0,00 0,00 3.805,54 13.605,72 31/12/2020
10 468500 ADRIANA APARECIDA FIRMINO ANALISTA DO MP CARATINGA - COMARCA; CARATINGA-PJ-04PJ 10.069,62 2.013,92 0,00 2.530,37 4.027,85 0,00 0,00 2.319,39 20.961,15 1.362,94 3.134,33 0,00 0,00 4.497,27 16.463,88 31/12/2020
11 326100 ADRIANA AUGUSTA AMARAL BELO OFICIAL DO MP BARBACENA - COMARCA; BARBACENA-PJ-08PJ 10.069,62 3.020,89 0,00 2.875,02 0,00 0,00 0,00 1.550,00 17.515,53 1.482,77 2.218,49 0,00 0,00 3.701,26 13.814,27 31/12/2020
12 605700 ADRIANA COSTA LIRA ASSESSOR/OFICIAL BELO HORIZONTE - COMARCA; COORD ESTADUAL DE DEFESA DA EDUCACAO 0,00 817,05 8.170,49 2.305,51 0,00 0,00 0,00 1.550,00 12.843,05 722,19 1.277,00 0,00 460,39 2.459,58 10.383,47 31/12/2020
13 541100 ADRIANA CRISTINA DE OLIVEIRA OFICIAL DO MP GUAPÉ - COMARCA; GUAPE-PJ-UNPJ 5.387,19 538,72 0,00 4.695,24 0,00 0,00 0,00 2.319,39 12.940,54 654,63 528,11 0,00 0,00 1.182,74 11.757,80 31/12/2020
14 254800 ADRIANA DAS GRACAS FERNANDES ANALISTA DO MP UBERABA - COMARCA; UBERABA-PJ-07PJ 18.103,37 12.672,36 0,00 5.848,78 0,00 0,00 0,00 1.550,00 38.174,51 3.668,95 6.532,87 0,00 0,00 10.201,82 27.972,69 31/12/2020
15 217400 ADRIANA DE CARVALHO CATAO BRAGA ASSESSOR BELO HORIZONTE - COMARCA; DIV FISCAL ADM CONT TERCEIRIZACAO 0,00 3.268,20 8.170,49 3.639,16 0,00 0,00 0,00 1.550,00 16.627,85 1.426,18 2.382,68 0,00 0,00 3.808,86 12.818,99 31/12/2020
16 434600 ADRIANA FERREIRA DA SILVA ANALISTA DO MP BELO HORIZONTE - COMARCA; BH-14PJ DEFESA CONSUMIDOR-GAB 112PJ 12.601,30 2.520,26 0,00 3.251,70 5.040,52 0,00 0,00 1.550,00 24.963,78 1.724,83 4.200,88 0,00 0,00 5.925,71 19.038,07 31/12/2020
17 499800 ADRIANA FERREIRA TIAGO OFICIAL DO MP SALINAS - COMARCA; SALINAS-PJ-02PJ 7.421,79 742,18 0,00 2.346,96 0,00 0,00 0,00 1.550,00 12.060,93 907,53 1.126,16 0,00 0,00 2.033,69 10.027,24 31/12/2020
18 543400 ADRIANA GUIMARAES NUNES DE PAULA ANALISTA DO MP PATROCÍNIO - COMARCA; PATROCINIO-PJ-01PJ 9.146,93 914,69 0,00 2.635,57 0,00 0,00 0,00 1.550,00 14.247,19 1.127,14 1.587,62 0,00 0,00 2.714,76 11.532,43 31/12/2020
19 471500 ADRIANA HORTA DE CARVALHO RODRIGUES DE SOUSA ANALISTA DO MP BELO HORIZONTE - COMARCA; GRUPO ESP PROM JUST DEF PROB ADM PAT PUB 10.069,62 2.013,92 0,00 8.068,66 0,00 0,00 0,00 1.550,00 21.702,20 1.362,94 2.026,67 0,00 0,00 3.389,61 18.312,59 31/12/2020
20 86400 ADRIANA MOREIRA CALDEIRA BRANT OFICIAL DO MP BELO HORIZONTE - COMARCA; BH-21PJ TUTELA FUNDACOES-SECRETARIA 15.272,02 10.690,41 0,00 7.120,05 0,00 3.787,42 0,00 1.550,00 38.419,90 3.067,30 6.270,31 0,00 0,00 9.337,61 29.082,29 31/12/2020
21 480700 ADRIANA MOREIRA DE AVELLAR CEZILIO OFICIAL DO MP BELO HORIZONTE - COMARCA; BH-18PJ VIOLENCIA DOMESTICA-SECRETARIA 6.123,79 612,38 0,00 2.660,07 2.245,39 0,00 0,00 1.550,00 13.191,63 746,19 1.291,09 0,00 0,00 2.037,28 11.154,35 31/12/2020
22 326000 ADRIANA PEREIRA CARNEIRO RESENDE OFICIAL DO MP BELO HORIZONTE - COMARCA; BH-25PJ DEFESA DA EDUCACAO-SECRETARIA 9.752,14 2.925,64 0,00 2.870,05 0,00 0,00 0,00 1.550,00 17.097,83 1.433,66 2.222,77 0,00 0,00 3.656,43 13.441,40 31/12/2020
23 502200 ADRIANA PETRUCCI DAVINA OFICIAL DO MP PATROCÍNIO - COMARCA; PATROCINIO-PJ-01PJ 7.663,37 766,34 0,00 2.197,41 0,00 0,00 0,00 2.319,39 12.946,51 937,85 1.190,90 0,00 0,00 2.128,75 10.817,76 31/12/2020
24 201900 ADRIANA REIS PIMENTA OFICIAL DO MP TEÓFILO OTONI - COMARCA; TEOFILO OTONI-PJ-03PJ 14.790,66 5.916,26 0,00 4.131,71 6.902,31 0,00 0,00 1.550,00 33.290,94 2.410,35 6.060,33 0,00 0,00 8.470,68 24.820,26 31/12/2020
25 278700 ADRIANA RODRIGUES PINTO COELHO AMARAL ANALISTA DO MP BELO HORIZONTE - COMARCA; ASSESS TECNICA DA CORREGEDORIA-GERAL DO MP 17.413,92 5.224,18 0,00 4.545,87 0,00 0,00 0,00 1.550,00 28.733,97 2.651,75 4.574,75 0,00 0,00 7.226,50 21.507,47 31/12/2020
26 468000 ADRIANA SANTOS DE SANTANA MOREIRA ANALISTA DO MP ARAÇUAÍ - COMARCA; ARACUAI-PJ-02PJ 10.069,62 4.027,85 0,00 3.021,29 0,00 0,00 0,00 1.550,00 18.668,76 1.602,60 2.462,46 0,00 0,00 4.065,06 14.603,70 31/12/2020
27 194700 ADRIANA TSUKIDE OFICIAL DO MP UBERABA - COMARCA; COORD REG BACIAS PARANAIBA BAIXO RIO GRANDE 14.790,66 5.916,26 0,00 14.210,81 0,00 0,00 531,48 7.347,94 42.797,15 2.410,35 4.110,06 0,00 0,00 6.520,41 36.276,74 31/12/2020
28 465500 ADRIANO CASSIANO MATOS ANALISTA DO MP ARAXÁ - COMARCA; ARAXA-PJ-02PJ 10.069,62 2.013,92 0,00 2.478,24 4.027,85 0,00 0,00 1.550,00 20.139,63 1.362,94 3.186,46 0,00 0,00 4.549,40 15.590,23 31/12/2020
29 500500 ADRIANO DE ALMEIDA SILVA OFICIAL DO MP UBERABA - COMARCA; UBERABA-PJ-12PJ 7.663,37 766,34 0,00 6.710,46 0,00 0,00 0,00 2.319,39 17.459,56 937,85 759,84 0,00 0,00 1.697,69 15.761,87 31/12/2020
30 187200 ADRIANO DE FREITAS MARON OFICIAL DO MP PONTE NOVA - COMARCA; PONTE NOVA-PJ-03PJ 12.601,30 11.341,17 0,00 6.633,83 0,00 3.461,57 0,00 1.550,00 35.587,87 2.814,80 5.714,82 0,00 0,00 8.529,62 27.058,25 31/12/2020
31 477900 ADRIANO FERREIRA DE ALMEIDA OFICIAL DO MP TAIOBEIRAS - COMARCA; TAIOBEIRAS-PJ-UNPJ 7.663,37 1.532,67 0,00 2.301,68 0,00 0,00 0,00 1.550,00 13.047,72 1.026,74 1.272,92 0,00 0,00 2.299,66 10.748,06 31/12/2020
32 269101 ADRIANO PEREIRA SILVA ANALISTA DO MP UBERABA - COMARCA; UBERABA-PJ-02PJ 10.069,62 2.013,92 0,00 2.634,65 4.027,85 0,00 0,00 2.319,39 21.065,43 1.362,94 3.030,05 0,00 0,00 4.392,99 16.672,44 31/12/2020
33 414200 ADRIANO RODRIGUES FERNANDES ANALISTA DO MP CARANDAÍ - COMARCA; CARANDAI-PJ-UNPJ 10.069,62 2.013,92 0,00 2.728,77 0,00 0,00 0,00 1.550,00 16.362,31 1.362,94 1.974,53 0,00 0,00 3.337,47 13.024,84 31/12/2020
34 536700 ADRIELLE COSTA MARIA MOURAO FIGUEIREDO OFICIAL DO MP SERRO - COMARCA; SERRO-PJ-SECRETARIA 5.387,19 538,72 0,00 2.443,06 0,00 0,00 0,00 2.319,39 10.688,36 654,63 580,24 0,00 0,00 1.234,87 9.453,49 31/12/2020
35 514300 ADRIENE DAMASCENO BRAGA ANALISTA DO MP ALFENAS - COMARCA; ALFENAS-PJ-03PJ 10.069,62 1.006,96 0,00 2.478,24 0,00 0,00 0,00 2.319,39 15.874,21 1.244,89 1.834,36 0,00 0,00 3.079,25 12.794,96 31/12/2020
36 254600 ADRIENE DOMINGUES COSTA ANALISTA DO MP BELO HORIZONTE - COMARCA; SUPERINTENDENCIA DE RECURSOS HUMANOS 16.750,82 5.025,25 0,00 4.355,80 0,00 0,00 0,00 0,00 26.131,87 2.544,00 4.419,46 0,00 0,00 6.963,46 19.168,41 31/12/2020
37 252001 ADRIENE GOMES BARRETO ANALISTA DO MP BELO HORIZONTE - COMARCA; BH-19PJ SAUDE-SECRETARIA 047PJ 14.324,23 5.729,69 0,00 4.498,92 6.684,64 0,00 0,00 1.550,00 32.787,48 2.329,16 5.843,22 0,00 0,00 8.172,38 24.615,10 31/12/2020
38 645000 AFONSO CELSO GUIMARAES JUNIOR OFICIAL DO MP PIRAPORA - COMARCA; PIRAPORA-PJ-01PJ 4.376,03 262,56 0,00 1.589,41 0,00 0,00 0,00 1.550,00 7.778,00 525,24 292,99 0,00 0,00 818,23 6.959,77 31/12/2020
39 302500 AGENOR JOSE DA SILVA JUNIOR ANALISTA DO MP JUIZ DE FORA - COMARCA; JUIZ DE FORA-PJ-14PJ 16.750,82 5.025,25 0,00 4.902,62 0,00 0,00 0,00 1.550,00 28.228,69 2.544,00 4.315,19 0,00 0,00 6.859,19 21.369,50 31/12/2020
40 357500 AILSON WAGNER DE ALENCAR SILVA OFICIAL DO MP BELO HORIZONTE - COMARCA; BH-12PJ JUIZO CRIMINAL-SECRETARIA 10.069,62 4.027,85 0,00 5.335,76 0,00 0,00 0,00 1.550,00 20.983,23 1.602,60 2.410,32 0,00 0,00 4.012,92 16.970,31 31/12/2020
41 366400 AILTON ALEXSSANDRO ALVES OFICIAL DO MP PARÁ DE MINAS - COMARCA; PARA DE MINAS-PJ-05PJ 9.444,70 3.777,88 0,00 9.267,93 0,00 0,00 0,00 1.550,00 24.040,51 1.498,49 2.354,77 0,00 0,00 3.853,26 20.187,25 31/12/2020
42 318900 AILTON DE CASTRO RIBEIRO JUNIOR OFICIAL DO MP ITAJUBA - COMARCA; ITAJUBA-PJ-01PJ 10.069,62 3.020,89 0,00 4.935,02 0,00 0,00 0,00 2.319,39 20.344,92 1.482,77 2.114,22 0,00 0,00 3.596,99 16.747,93 31/12/2020
43 464400 ALAN MONTEIRO GASPAR ANALISTA DO MP SETE LAGOAS - COMARCA; SETE LAGOAS-PJ-08PJ 10.069,62 2.013,92 0,00 4.008,27 0,00 0,00 0,00 1.550,00 17.641,81 1.362,94 2.078,80 0,00 0,00 3.441,74 14.200,07 31/12/2020
44 670200 ALANA ARAUJO AGUIAR ASSESSOR BELO HORIZONTE - COMARCA; ASSESS EXECUTIVA DO CONSELHO SUPERIOR DO MP 0,00 0,00 3.076,28 1.472,03 0,00 0,00 0,00 1.550,00 6.098,31 877,97 183,56 0,00 0,00 1.061,53 5.036,78 31/12/2020
45 492000 ALANA DE CASTRO FREITAS OFICIAL DO MP ITUMIRIM - COMARCA; ITUMIRIM-PJ-SECRETARIA 6.123,79 612,38 0,00 5.215,87 0,00 0,00 0,00 1.550,00 13.502,04 746,19 777,89 0,00 0,00 1.524,08 11.977,96 31/12/2020
46 306700 ALANA MARCIA DE OLIVEIRA OFICIAL DO MP BELO HORIZONTE - COMARCA; DIRETORIA DE ADMINISTRACAO FINANCEIRA 9.752,14 2.925,64 0,00 2.866,67 0,00 0,00 0,00 1.550,00 17.094,45 1.433,66 2.222,77 0,00 0,00 3.656,43 13.438,02 31/12/2020
47 324500 ALANMAR COUTINHO COSTA OFICIAL DO MP LEOPOLDINA - COMARCA; LEOPOLDINA-PJ-02PJ 9.444,70 2.833,41 0,00 2.911,27 0,00 0,00 0,00 1.550,00 16.739,38 1.386,09 2.021,67 0,00 0,00 3.407,76 13.331,62 31/12/2020
48 407300 ALBERTO LUIZ SOARES DE OLIVEIRA ANALISTA DO MP BELO HORIZONTE - COMARCA; DIRETORIA DE PROJETOS DE EDIFICACOES 12.601,30 2.520,26 0,00 3.251,70 0,00 0,00 0,00 1.550,00 19.923,26 1.724,83 2.814,74 0,00 0,00 4.539,57 15.383,69 31/12/2020
49 118200 ALBERTO PEREIRA DA COSTA OFICIAL DO MP DORES DO INDAIÁ - COMARCA; DORES DO INDAIA-PJ-UNPJ 16.750,82 15.075,74 0,00 9.430,49 0,00 7.964,61 0,00 1.550,00 50.771,66 3.800,31 7.830,81 0,00 0,00 11.631,12 39.140,54 31/12/2020
50 282400 ALCILENE MARISE DE ARAUJO ANALISTA DO MP BELO HORIZONTE - COMARCA; BH-23PJ INF-FISC MED SOC FEC 17.413,92 5.224,18 0,00 4.598,01 0,00 0,00 0,00 1.550,00 28.786,11 2.651,75 4.522,61 0,00 0,00 7.174,36 21.611,75 31/12/2020
51 112600 ALCIONE DA MOTA JARDIM OFICIAL DO MP BELO HORIZONTE - COMARCA; CAO-CRIANCAS E ADOLESCENTES-SECRETARIA 13.872,60 9.710,82 0,00 5.188,40 0,00 0,00 0,00 1.550,00 30.321,82 2.769,91 4.802,22 0,00 0,00 7.572,13 22.749,69 31/12/2020
52 396400 ALCIONE DE FREITAS E SILVA ANALISTA DO MP BELO HORIZONTE - COMARCA; ASSESS JUR DO CONS SUPERIOR DO MINISTERIO PUB 14.324,23 5.729,69 0,00 7.295,33 0,00 0,00 0,00 1.550,00 28.899,25 2.329,16 4.004,95 0,00 0,00 6.334,11 22.565,14 31/12/2020
53 657400 ALCIONE MARIA FERREIRA ASSESSOR PROCURADOR JUSTICA BELO HORIZONTE - COMARCA; PROC JUST RECURSOS ESP E EXTRAORD CRIMINAIS 0,00 0,00 7.187,72 3.137,42 3.754,66 0,00 2.352,13 24.875,10 41.307,03 1.426,18 2.305,04 0,00 0,00 3.731,22 37.575,81 31/12/2020
54 161600 ALCIONE NERY SOUZA ASSESSOR BELO HORIZONTE - COMARCA; BH-18PJ DIREITOS HUMANOS-SECRETARIA 0,00 4.085,25 8.170,49 3.823,00 0,00 0,00 0,00 1.550,00 17.628,74 1.426,18 2.607,37 0,00 0,00 4.033,55 13.595,19 31/12/2020
55 376000 ALDA GOMES LANA OFICIAL DO MP BELO HORIZONTE - COMARCA; BH-18PJ VIOLENCIA DOMESTICA-SECRETARIA 8.858,43 1.771,69 0,00 2.596,25 3.543,37 0,00 0,00 1.550,00 18.319,74 1.193,09 2.648,11 0,00 0,00 3.841,20 14.478,54 31/12/2020
56 148000 ALDA MARTINS SIMOES OFICIAL DO MP BELO HORIZONTE - COMARCA; BH-23PJ CIVEL- FISC ENT AB POL 17.413,92 8.706,96 0,00 5.051,33 0,00 0,00 0,00 1.550,00 32.722,21 3.087,10 5.464,93 0,00 0,00 8.552,03 24.170,18 31/12/2020
57 318400 ALDO CREPALDI JUNIOR OFICIAL DO MP BELO HORIZONTE - COMARCA; DIVISAO DE MATERIAIS 9.752,14 2.925,64 0,00 4.635,90 0,00 0,00 0,00 1.550,00 18.863,68 1.433,66 2.170,64 0,00 0,00 3.604,30 15.259,38 31/12/2020
58 604500 ALENIZE APARECIDA RODRIGUES HENRIQUE OFICIAL DO MP RIO NOVO - COMARCA; RIO NOVO-PJ-UNPJ 5.387,19 538,72 0,00 2.443,06 0,00 0,00 0,00 1.550,00 9.918,97 654,63 580,24 0,00 0,00 1.234,87 8.684,10 31/12/2020
59 197900 ALESSA DE SOUSA E SILVA OFICIAL DO MP OLIVEIRA - COMARCA; OLIVEIRA-PJ-02PJ 15.272,02 6.108,81 0,00 4.342,03 0,00 0,00 0,00 1.670,00 27.392,86 2.494,59 4.220,08 0,00 0,00 6.714,67 20.678,19 31/12/2020
60 428500 ALESSANDRA ALVES DINIZ OFICIAL DO MP BELO HORIZONTE - COMARCA; CENTRAL DE APOIO TECNICO-SECRETARIA 6.123,79 3.061,90 0,00 6.733,70 0,00 0,00 0,00 1.550,00 17.469,39 1.025,54 1.374,68 0,00 0,00 2.400,22 15.069,17 31/12/2020
61 286801 ALESSANDRA BOTELHO JUNQUEIRA DE MENEZES ANALISTA DO MP PASSOS - COMARCA; PASSOS-PJ-05PJ 13.011,52 5.204,61 0,00 3.952,30 6.072,04 0,00 0,00 2.319,39 30.559,86 2.102,36 5.023,19 0,00 0,00 7.125,55 23.434,31 31/12/2020
62 307000 ALESSANDRA CRISTINA SANTOS MENDES ANALISTA DO MP BELO HORIZONTE - COMARCA; BH-18PJ VIOLENCIA DOMESTICA-SECRETARIA 12.204,02 3.661,21 0,00 5.685,64 0,00 0,00 0,00 1.550,00 23.100,87 1.815,55 2.942,16 0,00 0,00 4.757,71 18.343,16 31/12/2020
63 264400 ALESSANDRA DE SOUZA SANTOS ANALISTA DO MP BELO HORIZONTE - COMARCA; OUVIDORIA DO MPMG 18.103,37 7.241,35 0,00 4.927,11 0,00 0,00 0,00 1.550,00 31.821,83 2.990,08 5.278,17 0,00 0,00 8.268,25 23.553,58 31/12/2020
64 441500 ALESSANDRA DRUMMOND DE FIGUEIREDO ROSSI ANALISTA DO MP BELO HORIZONTE - COMARCA; DIRETORIA DE PROJETOS DE EDIFICACOES 10.069,62 2.013,92 0,00 2.624,49 0,00 0,00 0,00 1.550,00 16.258,03 1.362,94 2.078,80 0,00 0,00 3.441,74 12.816,29 31/12/2020
65 524000 ALESSANDRA LUCIOLI DE BARROS GUERRA ANALISTA DO MP BELO HORIZONTE - COMARCA; BH-19PJ SAUDE--SECRETARIA 10.069,62 1.006,96 0,00 2.634,65 0,00 0,00 0,00 1.550,00 15.261,23 1.244,89 1.677,94 0,00 0,00 2.922,83 12.338,40 31/12/2020
66 479900 ALESSANDRA MARA ANDRADE DE FARIA OFICIAL DO MP UBERABA - COMARCA; UBERABA-PJ-09PJ 7.663,37 766,34 0,00 6.279,40 0,00 0,00 0,00 1.550,00 16.259,11 937,85 1.190,90 0,00 0,00 2.128,75 14.130,36 31/12/2020
67 226700 ALESSANDRA MARA VASCONCELOS REZENDE OFICIAL DO MP CONSELHEIRO LAFAIETE - COMARCA; CONSELHEIRO LAFAIETE-PJ-07PJ 10.397,52 3.119,26 0,00 2.998,91 0,00 0,00 0,00 1.550,00 18.065,69 1.533,49 2.426,04 0,00 0,00 3.959,53 14.106,16 31/12/2020
68 112100 ALESSANDRA MARCIA FERREIRA OFICIAL DO MP BELO HORIZONTE - COMARCA; BELO HORIZONTE- SECRETARIA DAS PROMOTORIAS 10.069,62 7.048,73 0,00 3.355,79 0,00 0,00 0,00 1.550,00 22.024,14 1.968,43 3.296,87 0,00 0,00 5.265,30 16.758,84 31/12/2020
69 196500 ALESSANDRA MARIA RIBEIRO LUCIANO OFICIAL DO MP RIO PARANAÍBA - COMARCA; RIO PARANAIBA-PJ-UNPJ 15.272,02 6.108,81 0,00 4.342,03 0,00 0,00 0,00 1.550,00 27.272,86 2.494,59 4.220,08 0,00 0,00 6.714,67 20.558,19 31/12/2020
70 91400 ALESSANDRA MENDES VASCONCELOS DE SOUZA OFICIAL DO MP BELO HORIZONTE - COMARCA; BH-23PJ INF-FISC MED SOC AB 18.820,14 13.174,10 0,00 8.068,06 0,00 3.821,27 0,00 1.550,00 45.433,57 3.821,27 7.929,06 0,00 0,00 11.750,33 33.683,24 31/12/2020
71 651700 ALESSANDRA PROFIRIO SOUZA OFICIAL DO MP NOVA ERA - COMARCA; NOVA ERA-PJ-UNPJ 4.376,03 262,56 0,00 1.616,90 0,00 0,00 0,00 1.550,00 7.805,49 510,24 250,09 0,00 0,00 760,33 7.045,16 31/12/2020
72 384900 ALESSANDRA RODRIGUES ANALISTA DO MP VISCONDE DO RIO BRANCO - COMARCA; VISCONDE DO RIO BRANCO-PJ-03PJ 14.324,23 2.864,85 0,00 4.084,70 5.729,69 0,00 0,00 3.088,78 30.092,25 1.977,07 4.785,33 0,00 0,00 6.762,40 23.329,85 31/12/2020
73 390000 ALESSANDRA SPADANO MASSARA VASCONCELOS OFICIAL DO MP BETIM - COMARCA; BETIM-PJ-10PJ 8.858,43 1.771,69 0,00 2.544,12 0,00 0,00 0,00 1.550,00 14.724,24 1.193,09 1.725,82 0,00 0,00 2.918,91 11.805,33 31/12/2020
74 426500 ALESSANDRO CAMPOS DE PAIVA ANALISTA DO MP BELO HORIZONTE - COMARCA; CENTRO PUBLICIDADE E DESIGN GRAFICO 13.011,52 2.602,30 0,00 3.329,25 0,00 0,00 0,00 1.550,00 20.493,07 1.784,88 2.933,60 0,00 0,00 4.718,48 15.774,59 31/12/2020
75 623400 ALESSANDRO DE OLIVEIRA REZENDE ANALISTA DO MP BELO HORIZONTE - COMARCA; DIRET DE INFORMACAO E CONHECIMENTO-DINC/CEAF 8.436,53 843,65 0,00 2.331,44 0,00 0,00 0,00 1.550,00 13.161,62 1.036,50 1.317,17 0,00 0,00 2.353,67 10.807,95 31/12/2020
76 420600 ALESSANDRO SILVA OFICIAL DO MP VISCONDE DO RIO BRANCO - COMARCA; VISCONDE DO RIO BRANCO-PJ-02PJ 8.436,53 2.530,96 0,00 3.143,57 0,00 0,00 0,00 1.550,00 15.661,06 1.232,23 937,48 0,00 0,00 2.169,71 13.491,35 31/12/2020
77 375301 ALETHEIA PATRICIA ASSIS MORAIS MOREIRA ANALISTA DO MP ITABIRA - COMARCA; ITABIRA-PJ-02PJ 10.069,62 1.006,96 0,00 7.957,01 0,00 0,00 0,00 3.088,78 22.122,37 1.244,89 1.782,22 0,00 0,00 3.027,11 19.095,26 31/12/2020
78 382300 ALEX CARVALHO LIMA ANALISTA DO MP UBERLÂNDIA - COMARCA; UBERLANDIA-PJ-14PJ 14.324,23 2.864,85 0,00 11.787,33 0,00 0,00 0,00 1.550,00 30.526,41 1.977,07 3.313,94 0,00 0,00 5.291,01 25.235,40 31/12/2020
79 195201 ALEX DE CASTRO PEREIRA ANALISTA DO MP UBERABA - COMARCA; UBERABA-PJ-09PJ 17.413,92 6.965,57 0,00 4.772,53 0,00 0,00 0,00 1.550,00 30.702,02 2.869,42 5.045,91 0,00 0,00 7.915,33 22.786,69 31/12/2020
80 358900 ALEX DE PAULA LANZA ASSESSOR BELO HORIZONTE - COMARCA; CENTRO JORNALISMO 0,00 0,00 10.397,52 3.404,90 0,00 0,00 0,00 2.319,39 16.121,81 1.426,18 2.096,36 0,00 0,00 3.522,54 12.599,27 31/12/2020
81 178400 ALEX RODRIGO SALDANHA GUIMARAES OFICIAL DO MP BELO HORIZONTE - COMARCA; DIRETORIA DE SISTEMAS DE INFORMACAO 6.123,79 2.449,52 0,00 2.114,63 0,00 0,00 0,00 1.550,00 12.237,94 954,50 1.225,81 0,00 0,00 2.180,31 10.057,63 31/12/2020
82 413500 ALEX VILELA OLIVEIRA ANALISTA DO MP GOVERNADOR VALADARES - COMARCA; COORD REG PJ DEF EDU DIR CRIANCA ADOL RIODOCE 13.011,52 2.602,30 0,00 10.890,03 0,00 0,00 0,00 1.550,00 28.053,85 1.784,88 2.933,60 0,00 0,00 4.718,48 23.335,37 31/12/2020
83 264300 ALEXANDRA FATIMA SARAIVA SOARES ANALISTA DO MP BELO HORIZONTE - COMARCA; CENTRAL DE APOIO TECN-SETOR DE MEIO AMBIENTE 18.103,37 5.431,01 0,00 4.637,28 7.844,79 0,00 0,00 1.550,00 37.566,45 2.763,79 6.999,87 0,00 0,00 9.763,66 27.802,79 31/12/2020
84 488000 ALEXANDRA LARA PAIS DE CARVALHO ANALISTA DO MP SERRO - COMARCA; SERRO-PJ-UNPJ 10.069,62 1.006,96 0,00 8.097,32 0,00 0,00 0,00 1.550,00 20.723,90 1.244,89 1.677,94 0,00 0,00 2.922,83 17.801,07 31/12/2020
85 256300 ALEXANDRA SANTOS GOMES OFICIAL DO MP BELO HORIZONTE - COMARCA; DIRETORIA GESTAO COMPRAS LICITACOES 10.069,62 3.020,89 0,00 3.238,55 0,00 0,00 0,00 1.550,00 17.879,06 1.482,77 2.322,77 0,00 0,00 3.805,54 14.073,52 31/12/2020
86 403300 ALEXANDRE AUGUSTO RODRIGUES ANALISTA DO MP ÁGUAS FORMOSAS - COMARCA; AGUAS FORMOSAS-PJ-UNPJ 10.069,62 2.013,92 0,00 2.624,49 0,00 0,00 0,00 2.319,39 17.027,42 1.362,94 2.078,80 0,00 0,00 3.441,74 13.585,68 31/12/2020
87 640900 ALEXANDRE BARBOSA MASCARENHAS ANALISTA DO MP BETIM - COMARCA; BETIM-PJ-02PJ 6.741,63 404,50 0,00 2.474,54 0,00 0,00 0,00 1.550,00 11.170,67 674,42 518,09 0,00 0,00 1.192,51 9.978,16 31/12/2020
88 311700 ALEXANDRE BARCELOS RESENDE OFICIAL DO MP BELO HORIZONTE - COMARCA; BH-19PJ SAUDE-SECRETARIA 047PJ 7.912,85 1.582,57 0,00 2.365,33 3.165,14 0,00 0,00 2.319,39 17.345,28 1.061,47 2.320,39 0,00 0,00 3.381,86 13.963,42 31/12/2020
89 285600 ALEXANDRE CAMPOS DE OLIVEIRA OFICIAL DO MP UBERABA - COMARCA; COORD REG BACIAS PARANAIBA BAIXO RIO GRANDE 10.069,62 3.020,89 0,00 2.927,16 4.363,50 0,00 0,00 1.550,00 21.931,17 1.482,77 3.366,32 0,00 0,00 4.849,09 17.082,08 31/12/2020
90 509200 ALEXANDRE CAPUANO DE REZENDE ANALISTA DO MP BELO HORIZONTE - COMARCA; GABINETE DE PROCURADOR DE JUSTIÇA - SALA 715 10.069,62 1.006,96 0,00 2.530,37 0,00 0,00 0,00 1.550,00 15.156,95 1.244,89 1.782,22 0,00 0,00 3.027,11 12.129,84 31/12/2020
91 229400 ALEXANDRE CARLOS BOTREL DIRETOR/OFICIAL BELO HORIZONTE - COMARCA; SUPERINTENDENCIA DOS ORGAOS COLEGIADOS 0,00 5.224,18 17.413,92 4.555,30 0,00 0,00 0,00 1.550,00 28.743,40 1.943,62 4.595,78 0,00 821,24 7.360,64 21.382,76 31/12/2020
92 411900 ALEXANDRE CARVALHO SANTOS RIBEIRO ANALISTA DO MP OLIVEIRA - COMARCA; OLIVEIRA-PJ-02PJ 13.011,52 2.602,30 0,00 3.329,25 0,00 0,00 0,00 2.319,39 21.262,46 1.784,88 2.933,60 0,00 0,00 4.718,48 16.543,98 31/12/2020
93 641600 ALEXANDRE DA SILVA ASSUNCAO OFICIAL DO MP BELO HORIZONTE - COMARCA; SERVICO MEDICO-DEPTO PERIC MEDICA SAUDE OCUP 4.817,57 481,76 0,00 1.839,12 0,00 0,00 0,00 1.550,00 8.688,45 635,30 427,41 0,00 0,00 1.062,71 7.625,74 31/12/2020
94 201200 ALEXANDRE DE ALENCAR CORDEIRO OFICIAL DO MP ÁGUAS FORMOSAS - COMARCA; AGUAS FORMOSAS-PJ-UNPJ 6.123,79 3.061,90 0,00 2.203,57 0,00 0,00 0,00 1.550,00 12.939,26 1.025,54 1.374,68 0,00 0,00 2.400,22 10.539,04 31/12/2020
95 288200 ALEXANDRE DE VASCONCELOS COSTA KER ANALISTA DO MP BELO HORIZONTE - COMARCA; BH-03PJ EMPRESARIAL-SECRETARIA 16.750,82 5.025,25 0,00 4.834,21 7.258,69 0,00 0,00 1.550,00 35.418,97 2.544,00 6.363,46 0,00 0,00 8.907,46 26.511,51 31/12/2020
96 445000 ALEXANDRE DIOGENES OLIVEIRA ANALISTA DO MP SALINAS - COMARCA; SALINAS-PJ-02PJ 10.069,62 2.013,92 0,00 2.624,49 0,00 0,00 0,00 2.319,39 17.027,42 1.362,94 2.078,80 0,00 0,00 3.441,74 13.585,68 31/12/2020
97 463400 ALEXANDRE LEAL WINKELSTROTER ANALISTA DO MP TEÓFILO OTONI - COMARCA; TEOFILO OTONI-PJ-04PJ 10.069,62 2.013,92 0,00 2.478,24 0,00 0,00 0,00 1.550,00 16.111,78 1.362,94 2.078,80 0,00 0,00 3.441,74 12.670,04 31/12/2020
98 615700 ALEXANDRE LUIZ DE CASTRO MACIEL ANALISTA DO MP IBIRITÉ - COMARCA; IBIRITE-PJ-02PJ 8.436,53 843,65 0,00 2.331,44 0,00 0,00 0,00 1.550,00 13.161,62 1.036,50 1.397,65 0,00 0,00 2.434,15 10.727,47 31/12/2020
99 356900 ALEXANDRE MOISES MENDONCA E ARAUJO OFICIAL DO MP UBERABA - COMARCA; UBERABA-PJ-13PJ 7.421,79 1.484,36 0,00 2.481,29 0,00 0,00 0,00 1.550,00 12.937,44 993,11 1.306,73 0,00 0,00 2.299,84 10.637,60 31/12/2020
100 633300 ALEXANDRE NONATO MARTINS OFICIAL DO MP IGARAPÉ - COMARCA; IGARAPE-PJ-02PJ 4.817,57 481,76 0,00 1.875,70 0,00 0,00 0,00 1.550,00 8.725,03 583,82 382,20 0,00 0,00 966,02 7.759,01 31/12/2020
101 469900 ALEXANDRE PEREIRA GUEDES ANALISTA DO MP CATAGUASES - COMARCA; CATAGUASES-PJ-03PJ 10.069,62 2.013,92 0,00 2.478,24 0,00 0,00 0,00 1.550,00 16.111,78 1.362,94 2.078,80 0,00 0,00 3.441,74 12.670,04 31/12/2020
102 208700 ALEXANDRE RESENDE FRAGA ANALISTA DO MP BELO HORIZONTE - COMARCA; BH-19PJ SAUDE-SECRETARIA 130PJ 18.820,14 7.528,06 0,00 4.852,85 0,00 0,00 0,00 1.550,00 32.751,05 3.115,51 5.363,22 0,00 0,00 8.478,73 24.272,32 31/12/2020
103 216401 ALEXANDRE RIBEIRO DE LIMA MAIORINO ANALISTA DO MP UBERABA - COMARCA; UBERABA-PJ-03PJ 16.750,82 6.700,33 0,00 5.135,19 0,00 0,00 0,00 1.550,00 30.136,34 2.753,38 4.770,39 0,00 0,00 7.523,77 22.612,57 31/12/2020
104 475100 ALEXANDRE TEOTONIO COSTA ANALISTA DO MP ARAGUARI - COMARCA; ARAGUARI-PJ-01PJ 10.069,62 2.013,92 0,00 2.582,51 0,00 0,00 0,00 1.550,00 16.216,05 1.362,94 1.974,53 0,00 0,00 3.337,47 12.878,58 31/12/2020
105 339000 ALEXANDRE VITOR CARDOSO OFICIAL DO MP BELO HORIZONTE - COMARCA; PROMOT ESTADUAL DE DEF PATRI CULT E TUR DE MG 6.123,79 1.837,14 0,00 2.093,14 0,00 0,00 0,00 1.550,00 11.604,07 884,58 920,22 0,00 0,00 1.804,80 9.799,27 31/12/2020
106 678900 ALEXIA DUARTE TORRES ASSESSOR PROCURADOR JUSTICA BELO HORIZONTE - COMARCA; GABINETE DE PROCURADOR DE JUSTIÇA - SALA 502 0,00 0,00 7.187,72 2.934,14 0,00 0,00 0,00 1.550,00 11.671,86 994,11 1.213,66 0,00 0,00 2.207,77 9.464,09 31/12/2020
107 623100 ALEXSANDER BATISTA AGUIAR ANALISTA DO MP BELO HORIZONTE - COMARCA; DIRETORIA DE SUPORTE E MANUTENCAO 8.436,53 843,65 0,00 2.487,85 0,00 0,00 0,00 2.319,39 14.087,42 1.036,50 1.241,24 0,00 0,00 2.277,74 11.809,68 31/12/2020
108 513300 ALFSON MIRANDA BRAGA ANALISTA DO MP BELO HORIZONTE - COMARCA; BH-12PJ JUIZO CRIMINAL-GAB 092PJ 10.069,62 1.006,96 0,00 2.478,24 0,00 0,00 0,00 1.550,00 15.104,82 1.244,89 1.834,36 0,00 0,00 3.079,25 12.025,57 31/12/2020
109 618400 ALICE MAGALHAES MACEDO DE CARVALHO ANALISTA DO MP IPATINGA - COMARCA; IPATINGA-PJ-10PJ 8.436,53 843,65 0,00 2.331,44 0,00 0,00 0,00 2.319,39 13.931,01 1.036,50 1.397,65 0,00 0,00 2.434,15 11.496,86 31/12/2020
110 471000 ALICE TITONELI MOREIRA ANALISTA DO MP MIRADOURO - COMARCA; MIRADOURO-PJ-UNPJ 10.069,62 2.013,92 0,00 2.530,37 0,00 0,00 0,00 2.319,39 16.933,30 1.362,94 2.026,67 0,00 0,00 3.389,61 13.543,69 31/12/2020
111 622400 ALINE BALBINO PORTUGAL LOPES ANALISTA DO MP TRÊS PONTAS - COMARCA; TRES PONTAS-PJ-03PJ 8.436,53 843,65 0,00 2.331,44 3.093,39 0,00 0,00 2.319,39 17.024,40 1.036,50 2.248,33 0,00 0,00 3.284,83 13.739,57 31/12/2020
112 373000 ALINE BOTELHO RESENDE OFICIAL DO MP JUIZ DE FORA - COMARCA; JUIZ DE FORA-PJ-22PJ 8.579,10 1.715,82 0,00 2.431,42 0,00 0,00 0,00 1.550,00 14.276,34 1.154,21 1.644,34 0,00 0,00 2.798,55 11.477,79 31/12/2020
113 699800 ALINE CRISTINA DE OLIVEIRA AMARAL BARBOSA ASSESSOR PROCURADOR JUSTICA BELO HORIZONTE - COMARCA; GABINETE DE PROCURADOR DE JUSTIÇA - SALA 904 0,00 0,00 6.708,54 598,98 0,00 0,00 0,00 1.450,00 8.757,52 713,09 1.054,39 0,00 0,00 1.767,48 6.990,04 31/12/2020
114 407700 ALINE CRISTINA RODRIGUES PEREIRA COORDENADOR/ANALISTA BELO HORIZONTE - COMARCA; DIRETORIA DE PROJETOS DE EDIFICACOES 0,00 2.687,03 13.435,16 3.533,18 0,00 0,00 0,00 2.319,39 21.974,76 1.362,94 3.189,43 0,00 0,00 4.552,37 17.422,39 31/12/2020
115 193100 ALINE CRISTINA SENA OLIVEIRA OFICIAL DO MP UBERLÂNDIA - COMARCA; UBERLANDIA-PJ-03PJ 14.790,66 5.916,26 0,00 4.183,85 0,00 0,00 0,00 2.319,39 27.210,16 2.410,35 4.110,06 0,00 0,00 6.520,41 20.689,75 31/12/2020
116 554200 ALINE CRISTINA SILVA SOUZA OFICIAL DO MP TIROS - COMARCA; TIROS-PJ-UNPJ 5.930,75 593,08 0,00 2.666,57 0,00 0,00 0,00 1.550,00 10.740,40 722,19 726,09 0,00 0,00 1.448,28 9.292,12 31/12/2020
117 505500 ALINE DA CUNHA MARREIROS OLIVEIRA ANALISTA DO MP CARANGOLA - COMARCA; CARANGOLA-PJ-03PJ 10.069,62 1.006,96 0,00 2.530,37 0,00 0,00 0,00 2.319,39 15.926,34 1.244,89 1.782,22 0,00 0,00 3.027,11 12.899,23 31/12/2020
118 433500 ALINE DE MELO QUEIROZ ASSESSOR/OFICIAL BELO HORIZONTE - COMARCA; ASSESSORIA TECNICA DO PROCON-MG 0,00 2.079,50 10.397,52 2.767,72 0,00 0,00 0,00 2.319,39 17.564,13 1.154,21 2.050,92 0,00 703,60 3.908,73 13.655,40 31/12/2020
119 691100 ALINE DE MELO SOUZA ASSESSOR PROCURADOR JUSTICA BELO HORIZONTE - COMARCA; GABINETE DE PROCURADOR DE JUSTIÇA - SALA 401 0,00 0,00 7.187,72 1.197,95 0,00 0,00 0,00 1.550,00 9.935,67 805,23 1.213,66 0,00 0,00 2.018,89 7.916,78 31/12/2020
120 542700 ALINE DE SOUSA ALBINO ANALISTA DO MP CONTAGEM - COMARCA; CONTAGEM-PJ-09PJ 9.146,93 914,69 0,00 2.635,57 0,00 0,00 0,00 1.550,00 14.247,19 1.127,14 1.587,62 0,00 0,00 2.714,76 11.532,43 31/12/2020
121 330000 ALINE DIORIO MAYRINK OFICIAL DO MP BELO HORIZONTE - COMARCA; BH-15PJ M AMB PAT HIST CULT-GAB 115PJ 7.187,72 1.437,54 0,00 2.228,26 0,00 0,00 0,00 1.550,00 12.403,52 960,53 1.238,44 0,00 0,00 2.198,97 10.204,55 31/12/2020
122 499000 ALINE FERREIRA LOPES ANALISTA DO MP TEÓFILO OTONI - COMARCA; COORD. DE DEF. DO PAT. PUBLICO-JEQUIT./MUCURI 10.069,62 1.006,96 0,00 2.478,24 0,00 0,00 0,00 1.550,00 15.104,82 1.244,89 1.834,36 0,00 0,00 3.079,25 12.025,57 31/12/2020
123 405300 ALINE LAIA CARDOZO DIRETOR/ANALISTA BELO HORIZONTE - COMARCA; SUPERINTENDENCIA LOGISTICA SERVICOS 0,00 3.482,78 17.413,92 4.027,01 0,00 0,00 0,00 1.550,00 26.473,71 1.977,07 3.952,32 0,00 1.386,24 7.315,63 19.158,08 31/12/2020
124 278200 ALINE MARCIA FARIA BARBOSA FERNANDES OFICIAL DO MP BARBACENA - COMARCA; BARBACENA-PJ-SECRETARIA 7.421,79 2.226,54 0,00 3.813,69 0,00 0,00 0,00 1.550,00 15.012,02 1.079,20 1.330,74 0,00 0,00 2.409,94 12.602,08 31/12/2020
125 389000 ALINE NERI NOBRE ANALISTA DO MP MONTES CLAROS - COMARCA; COORD REG PJ DEF EDUC DIR CRIANCA ADOL NORTE 14.324,23 4.297,27 0,00 4.239,67 6.207,17 0,00 0,00 1.550,00 30.618,34 2.152,26 5.366,65 0,00 0,00 7.518,91 23.099,43 31/12/2020
126 294600 ALINE PATRICIA SILVA VIEIRA OFICIAL DO MP UBERLÂNDIA - COMARCA; UBERLANDIA-PJ-03PJ 10.069,62 3.020,89 0,00 3.200,21 0,00 0,00 1.445,27 1.550,00 19.285,99 1.482,77 2.615,94 0,00 0,00 4.098,71 15.187,28 31/12/2020
127 420000 ALINE RODRIGUES CAMOROPIN ANALISTA DO MP SABARÁ - COMARCA; SABARA-PJ-02PJ 13.011,52 2.602,30 0,00 3.329,25 0,00 0,00 0,00 1.550,00 20.493,07 1.784,88 2.933,60 0,00 0,00 4.718,48 15.774,59 31/12/2020
128 699600 ALINE SEPULVEDA ROSA PIRES ASSESSOR PROCURADOR JUSTICA BELO HORIZONTE - COMARCA; SUPERINTENDENCIA DE RECURSOS HUMANOS 0,00 0,00 6.708,54 598,98 0,00 0,00 0,00 1.450,00 8.757,52 713,09 1.054,39 0,00 0,00 1.767,48 6.990,04 31/12/2020
129 408300 ALINE SILVA ARAUJO DE PAULA ANALISTA DO MP SÃO SEBASTIÃO DO PARAÍSO - COMARCA; SAO SEBASTIAO DO PARAISO-PJ-02PJ 13.011,52 2.602,30 0,00 3.329,25 0,00 0,00 0,00 2.319,39 21.262,46 1.784,88 2.933,60 0,00 0,00 4.718,48 16.543,98 31/12/2020
130 425400 ALINE TRINDADE DE FREITAS CAMPOS OFICIAL DO MP BELO HORIZONTE - COMARCA; BH-14PJ DEFESA CONSUMIDOR-SECRETARIA 8.579,10 1.715,82 0,00 7.424,21 0,00 0,00 0,00 1.550,00 19.269,13 1.154,21 1.644,34 0,00 0,00 2.798,55 16.470,58 31/12/2020
131 517200 ALISSOM PEREIRA DA SILVA ANALISTA DO MP BORDA DA MATA - COMARCA; BORDA DA MATA-PJ-UNPJ 10.069,62 1.006,96 0,00 2.478,24 0,00 0,00 0,00 1.550,00 15.104,82 1.244,89 1.834,36 0,00 0,00 3.079,25 12.025,57 31/12/2020
132 442400 ALISSON LABRE ANALISTA DO MP VARGINHA - COMARCA; VARGINHA-PJ-03PJ 10.069,62 2.013,92 0,00 2.624,49 0,00 0,00 0,00 2.319,39 17.027,42 1.362,94 2.078,80 0,00 0,00 3.441,74 13.585,68 31/12/2020
133 643800 ALLAN PAUL FONSECA DE CASTRO ASSESSOR/OFICIAL CONTAGEM - COMARCA; CONTAGEM-PJ-SECRETARIA 0,00 623,85 10.397,52 5.979,81 0,00 0,00 0,00 2.319,39 19.320,57 579,77 2.006,95 0,00 0,00 2.586,72 16.733,85 31/12/2020
134 612900 ALLAN VINICIUS VIEIRA ARAUJO COORDENADOR/OFICIAL BELO HORIZONTE - COMARCA; DIVISAO TRANSPORTES 0,00 1.181,92 11.819,15 3.301,45 0,00 0,00 0,00 1.550,00 17.852,52 654,63 2.503,31 0,00 82,20 3.240,14 14.612,38 31/12/2020
135 349000 ALLEC RODRIGUES VIEIRA OFICIAL DO MP BELO HORIZONTE - COMARCA; COORD EST DEF DIR FAM PESSOAS DEFICI IDOSOS 10.069,62 2.013,92 0,00 3.056,30 0,00 0,00 0,00 1.550,00 16.689,84 1.362,94 2.078,80 0,00 0,00 3.441,74 13.248,10 31/12/2020
136 297300 ALLYSON SALIBA MONTEIRO LAIZO ANALISTA DO MP CONSELHEIRO LAFAIETE - COMARCA; CONSELHEIRO LAFAIETE-PJ-03PJ 18.820,14 5.646,04 0,00 5.435,44 8.155,39 0,00 0,00 3.088,78 41.145,79 2.880,27 7.309,50 0,00 0,00 10.189,77 30.956,02 31/12/2020
137 303700 ALMIR LOPES LOURES ANALISTA DO MP BELO HORIZONTE - COMARCA; CENTRAL DE APOIO TECN-SETOR DE MEIO AMBIENTE 18.820,14 5.646,04 0,00 16.323,48 0,00 0,00 0,00 1.550,00 42.339,66 2.880,27 5.066,77 0,00 0,00 7.947,04 34.392,62 31/12/2020
138 696600 ALOIZIO MARTINS JALES JUNIOR ASSESSOR PROMOTOR JUSTICA CAMPESTRE - COMARCA; CAMPESTRE-PJ-SECRETARIA 0,00 0,00 6.708,54 598,98 0,00 0,00 0,00 1.450,00 8.757,52 713,09 1.054,39 0,00 0,00 1.767,48 6.990,04 31/12/2020
139 515900 ALTAIR NEVES JUNIOR OFICIAL DO MP BELO HORIZONTE - COMARCA; BH-01PJ FAZENDA PUBLICA-SECRETARIA 7.421,79 742,18 0,00 6.054,86 0,00 0,00 0,00 1.550,00 15.768,83 907,53 1.126,16 0,00 0,00 2.033,69 13.735,14 31/12/2020
140 233300 ALVARINDO BATISTA ANALISTA DO MP BELO HORIZONTE - COMARCA; NUCLEO APOIO TECNICO ESP COMUNICACAO 18.820,14 5.646,04 0,00 4.475,21 0,00 0,00 0,00 2.319,39 31.260,78 2.880,27 5.014,63 0,00 0,00 7.894,90 23.365,88 31/12/2020
141 274100 ALYSSON CARVALHO VIDAL DE LACERDA OFICIAL DO MP MANHUAÇU - COMARCA; MANHUACU-PJ-01PJ 10.069,62 3.020,89 0,00 9.316,01 0,00 0,00 0,00 1.550,00 23.956,52 1.482,77 2.322,77 0,00 0,00 3.805,54 20.150,98 31/12/2020
142 621000 AMANDA BASTOS ALVES ANALISTA DO MP BELO HORIZONTE - COMARCA; BH-07PJ 01 TRIBUNAL DO JURI-GAB 066PJ 8.436,53 843,65 0,00 2.331,44 0,00 0,00 0,00 1.550,00 13.161,62 1.036,50 1.397,65 0,00 0,00 2.434,15 10.727,47 31/12/2020
143 521700 AMANDA CRISTINA AGUIAR MACHADO OFICIAL DO MP CONGONHAS - COMARCA; CONGONHAS-PJ-01PJ 5.562,64 556,26 0,00 1.885,53 0,00 0,00 0,00 1.550,00 9.554,43 676,44 575,18 0,00 0,00 1.251,62 8.302,81 31/12/2020
144 613400 AMANDA DE ASSIS IUNES SANTOS ANALISTA DO MP CONGONHAS - COMARCA; CONGONHAS-PJ-01PJ 8.436,53 843,65 0,00 2.331,44 0,00 0,00 0,00 1.550,00 13.161,62 1.036,50 1.397,65 0,00 0,00 2.434,15 10.727,47 31/12/2020
145 695900 AMANDA DE OLIVEIRA ASSESSOR PROCURADOR JUSTICA BELO HORIZONTE - COMARCA; PROC JUST RECURSOS ESP E EXTRAORD CRIMINAIS 0,00 0,00 6.708,54 598,98 0,00 0,00 0,00 1.450,00 8.757,52 713,09 1.054,39 0,00 0,00 1.767,48 6.990,04 31/12/2020
146 520800 AMANDA DE SOUZA MACHADO ANALISTA DO MP BAEPENDI - COMARCA; BAEPENDI-PJ-UNPJ 10.069,62 1.006,96 0,00 2.582,51 0,00 0,00 0,00 1.550,00 15.209,09 1.244,89 1.730,08 0,00 0,00 2.974,97 12.234,12 31/12/2020
147 663900 AMANDA DENISE GONCALVES DA SILVA ASSESSOR BELO HORIZONTE - COMARCA; DIRET DE FORMACAO, APERFEIC. E POS-GRADUACAO 0,00 0,00 3.076,28 1.472,03 0,00 0,00 0,00 1.550,00 6.098,31 734,41 205,10 0,00 0,00 939,51 5.158,80 31/12/2020
148 677000 AMANDA LETICIA MESSIAS PEGO ASSESSOR PROMOTOR JUSTICA CORAÇÃO DE JESUS - COMARCA; CORACAO DE JESUS-PJ-UNPJ 0,00 0,00 7.187,72 2.934,14 0,00 0,00 0,00 1.550,00 11.671,86 994,11 1.213,66 0,00 0,00 2.207,77 9.464,09 31/12/2020
149 543100 AMANDA VIEIRA FREITAS BRESSANE ANALISTA DO MP VARGINHA - COMARCA; COORD REG DEF ORDEM ECONOMICA TRIB SUL MINAS 9.146,93 914,69 0,00 3.846,96 0,00 0,00 0,00 1.550,00 15.458,58 1.127,14 1.587,62 0,00 0,00 2.714,76 12.743,82 31/12/2020
150 434400 AMARILIS ASSIS SIMAO CURCIO ANALISTA DO MP MANHUAÇU - COMARCA; MANHUACU-PJ-SECRETARIA 10.069,62 2.013,92 0,00 2.624,49 0,00 0,00 0,00 1.550,00 16.258,03 1.362,94 2.078,80 0,00 0,00 3.441,74 12.816,29 31/12/2020
151 652000 AMAURI SILVA ALVES ASSESSOR/OFICIAL BELO HORIZONTE - COMARCA; BH-23PJ INFRACIONAL-SEC EXP 0,00 490,23 8.170,49 5.561,12 0,00 0,00 0,00 1.550,00 15.771,84 719,68 1.372,32 0,00 0,00 2.092,00 13.679,84 31/12/2020
152 273700 AMBROLINA CARNEIRO DE VASCONCELOS OFICIAL DO MP FRUTAL - COMARCA; FRUTAL-PJ-01PJ 11.085,56 7.759,90 0,00 3.890,51 0,00 0,00 0,00 1.550,00 24.285,97 2.179,91 3.661,53 0,00 0,00 5.841,44 18.444,53 31/12/2020
153 58000 AMELIA GUARIZE DE CASTRO OFICIAL DO MP JUIZ DE FORA - COMARCA; JUIZ DE FORA-PJ-SECRETARIA 6.741,63 6.741,63 0,00 3.903,09 0,00 1.529,51 0,00 1.550,00 20.465,86 1.529,51 2.838,54 0,00 0,00 4.368,05 16.097,81 31/12/2020
154 324301 AMERICA SUELI FERREIRA DA SILVA ANALISTA DO MP MONTE CARMELO - COMARCA; MONTE CARMELO-PJ-02PJ 10.069,62 2.013,92 0,00 2.530,37 0,00 0,00 0,00 2.319,39 16.933,30 1.362,94 2.026,67 0,00 0,00 3.389,61 13.543,69 31/12/2020
155 273300 AMUJACY DE BRITO ASSIZ OFICIAL DO MP BELO HORIZONTE - COMARCA; BH-12PJ JUIZO CRIMINAL-SECRETARIA 10.069,62 3.020,89 0,00 2.979,30 0,00 0,00 0,00 1.550,00 17.619,81 1.482,77 2.114,22 0,00 0,00 3.596,99 14.022,82 31/12/2020
156 482200 ANA ALICE LOPES ACHTSCHIN ANALISTA DO MP BELO HORIZONTE - COMARCA; PROC JUST RECURSOS ESP E EXTRAORD CRIMINAIS 10.736,08 1.073,61 0,00 2.729,95 0,00 0,00 0,00 1.550,00 16.089,64 1.330,36 2.012,46 0,00 0,00 3.342,82 12.746,82 31/12/2020
157 490400 ANA AMELIA PAULINO GARCIA OFICIAL DO MP CONTAGEM - COMARCA; CONTAGEM-PJ-SECRETARIA 7.663,37 766,34 0,00 3.210,82 0,00 0,00 0,00 1.550,00 13.190,53 937,85 1.190,90 0,00 0,00 2.128,75 11.061,78 31/12/2020
158 690400 ANA ANGELICA MOREIRA DA CUNHA ASSESSOR PROMOTOR JUSTICA TIMÓTEO - COMARCA; TIMOTEO-PJ-02PJ 0,00 0,00 7.187,72 1.796,93 0,00 0,00 0,00 1.550,00 10.534,65 859,14 1.213,66 0,00 0,00 2.072,80 8.461,85 31/12/2020
159 279100 ANA CAROLINA ARAUJO PEREIRA ANALISTA DO MP BELO HORIZONTE - COMARCA; DIRETORIA DE PROJETOS DE EDIFICACOES 18.820,14 5.646,04 0,00 8.889,37 0,00 0,00 0,00 1.550,00 34.905,55 2.880,27 5.014,63 0,00 0,00 7.894,90 27.010,65 31/12/2020
160 653300 ANA CAROLINA CYRNE DINIZ ASSESSOR BELO HORIZONTE - COMARCA; CENTRAL DE APOIO TECNICO-SETOR CONTABIL 0,00 0,00 8.170,49 2.903,82 0,00 0,00 0,00 1.550,00 12.624,31 1.426,18 1.483,92 0,00 0,00 2.910,10 9.714,21 31/12/2020
161 359400 ANA CAROLINA DE ABREU FARIA ASSESSOR BELO HORIZONTE - COMARCA; SUPERINTENDÊNCIA DE ENGENHARIA E ARQUITETURA 0,00 0,00 11.497,52 3.404,90 0,00 0,00 0,00 450,00 15.352,42 1.426,18 2.096,36 0,00 0,00 3.522,54 11.829,88 31/12/2020
162 408500 ANA CAROLINA DE CASTRO CARVALHO ANALISTA DO MP BARBACENA - COMARCA; BARBACENA - SECRETARIA DAS PJS CRIMINAIS 13.011,52 2.602,30 0,00 3.329,25 0,00 0,00 0,00 1.550,00 20.493,07 1.784,88 2.933,60 0,00 0,00 4.718,48 15.774,59 31/12/2020
163 688000 ANA CAROLINA DE OLIVEIRA PINTO ASSESSOR PROCURADOR JUSTICA BELO HORIZONTE - COMARCA; GABINETE DE PROCURADOR DE JUSTIÇA - SALA 1014 0,00 0,00 7.187,72 1.796,93 0,00 0,00 0,00 1.550,00 10.534,65 859,14 1.213,66 0,00 0,00 2.072,80 8.461,85 31/12/2020
164 420200 ANA CAROLINA FERNANDES SILVA ANALISTA DO MP BELO HORIZONTE - COMARCA; GABINETE DE PROCURADOR DE JUSTIÇA - SALA 704 12.601,30 2.520,26 0,00 3.251,70 0,00 0,00 0,00 1.550,00 19.923,26 1.724,83 2.814,74 0,00 0,00 4.539,57 15.383,69 31/12/2020
165 522100 ANA CAROLINA FERNANDINO VIDAL PEREIRA SANTOS OFICIAL DO MP BELO HORIZONTE - COMARCA; SECRETARIA DO PROCON-MG 7.421,79 742,18 0,00 6.054,86 2.721,32 0,00 449,02 6.448,38 23.837,55 907,53 1.874,53 0,00 0,00 2.782,06 21.055,49 31/12/2020
166 502400 ANA CAROLINA GONCALVES FERNANDES ANALISTA DO MP IPATINGA - COMARCA; IPATINGA-PJ-01PJ 10.069,62 1.006,96 0,00 4.008,27 0,00 0,00 0,00 2.319,39 17.404,24 1.244,89 1.834,36 0,00 0,00 3.079,25 14.324,99 31/12/2020
167 529900 ANA CAROLINA GONCALVES PECANHA CHEQUER ANALISTA DO MP MANHUAÇU - COMARCA; MANHUACU-PJ-04PJ 9.146,93 914,69 0,00 3.846,96 0,00 0,00 0,00 3.088,78 16.997,36 1.127,14 1.587,62 0,00 0,00 2.714,76 14.282,60 31/12/2020
168 431900 ANA CAROLINA MOTTA GUATIMOSIM ANALISTA DO MP BELO HORIZONTE - COMARCA; ASSESSORIA JURIDICO-ADMINISTRATIVA 12.601,30 2.520,26 0,00 3.251,70 5.040,52 0,00 0,00 2.319,39 25.733,17 1.724,83 4.200,88 0,00 0,00 5.925,71 19.807,46 31/12/2020
169 490600 ANA CAROLINA XAVIER GODOY ANALISTA DO MP BELO HORIZONTE - COMARCA; GABINETE DE PROCURADOR DE JUSTIÇA - SALA 1006 10.069,62 1.006,96 0,00 4.060,40 0,00 0,00 0,00 3.088,78 18.225,76 1.244,89 1.730,08 0,00 0,00 2.974,97 15.250,79 31/12/2020
170 600300 ANA CAROLINE PEREIRA DINIZ ANALISTA DO MP BELO HORIZONTE - COMARCA; COMB CRIMES PRAT POR AG POL MUN-SECRETARIA 9.146,93 914,69 0,00 2.635,57 0,00 0,00 0,00 2.319,39 15.016,58 1.127,14 1.587,62 0,00 0,00 2.714,76 12.301,82 31/12/2020
171 615800 ANA CAROLINE PEREIRA OLIVEIRA OFICIAL DO MP ALFENAS - COMARCA; ALFENAS-PJ-06PJ 5.387,19 538,72 0,00 1.802,96 0,00 0,00 0,00 1.550,00 9.278,87 654,63 580,24 0,00 0,00 1.234,87 8.044,00 31/12/2020
172 324800 ANA CECILIA MENDES DA SILVA OFICIAL DO MP OURO FINO - COMARCA; OURO FINO-PJ-01PJ 10.069,62 3.020,89 0,00 2.822,89 0,00 0,00 0,00 1.550,00 17.463,40 1.482,77 2.270,63 0,00 0,00 3.753,40 13.710,00 31/12/2020
173 698700 ANA CLARA SANTOS ALMEIDA ASSESSOR PROMOTOR JUSTICA SABINÓPOLIS - COMARCA 0,00 0,00 6.708,54 598,98 0,00 0,00 0,00 1.450,00 8.757,52 713,09 1.054,39 0,00 0,00 1.767,48 6.990,04 31/12/2020
174 441300 ANA CLAUDIA ALKIMIM MIRANDA BOMTEMPO ANALISTA DO MP MONTES CLAROS - COMARCA; MONTES CLAROS-PJ-11PJ 12.601,30 2.520,26 0,00 3.355,97 0,00 0,00 332,67 5.179,17 23.989,37 1.724,83 2.710,47 0,00 0,00 4.435,30 19.554,07 31/12/2020
175 642500 ANA CLAUDIA DA COSTA NAVES OFICIAL DO MP MONTE CARMELO - COMARCA; MONTE CARMELO-PJ-02PJ 4.376,03 262,56 0,00 1.589,41 1.546,20 0,00 0,00 2.319,39 10.093,59 525,24 691,44 0,00 0,00 1.216,68 8.876,91 31/12/2020
176 604900 ANA CLAUDIA OLIVEIRA DE MIRANDA OFICIAL DO MP PONTE NOVA - COMARCA; PONTE NOVA-PJ-04PJ 5.387,19 538,72 0,00 1.959,31 0,00 0,00 0,00 1.550,00 9.435,22 654,63 528,11 0,00 0,00 1.182,74 8.252,48 31/12/2020
177 379300 ANA CRISTINA ALVES FLAVIO ANALISTA DO MP SÃO GOTARDO - COMARCA; SAO GOTARDO-PJ-01PJ 14.324,23 2.864,85 0,00 4.032,56 0,00 0,00 0,00 2.319,39 23.541,03 1.977,07 3.261,81 0,00 0,00 5.238,88 18.302,15 31/12/2020
178 461200 ANA CRISTINA ALVES PASCHOAL ANALISTA DO MP SANTA LUZIA - COMARCA; SANTA LUZIA-PJ-03PJ 10.069,62 2.013,92 0,00 2.530,37 0,00 0,00 0,00 1.550,00 16.163,91 1.362,94 2.026,67 0,00 0,00 3.389,61 12.774,30 31/12/2020
179 514100 ANA CRISTINA ARAUJO ASSUNCAO ANALISTA DO MP BELO HORIZONTE - COMARCA; ASSESS JUR DO CONS SUPERIOR DO MINISTERIO PUB 10.069,62 1.006,96 0,00 2.530,37 0,00 0,00 0,00 2.319,39 15.926,34 1.244,89 1.782,22 0,00 0,00 3.027,11 12.899,23 31/12/2020
180 113400 ANA CRISTINA BRAGA ALBUQUERQUE ASSESSOR/ANALISTA BELO HORIZONTE - COMARCA; ASSESS ESP ADM E FINANCEIRA DO PGJ ADJ ADM 30.090,04 21.063,02 0,00 8.848,36 0,00 39.716,99 0,00 1.550,00 101.268,41 4.254,77 8.882,75 15.690,84 0,00 28.828,36 72.440,05 31/12/2020
181 233800 ANA CRISTINA BRAGA SOARES OFICIAL DO MP CONTAGEM - COMARCA; CONTAGEM-PJ-SECRETARIA 10.736,08 3.220,82 0,00 3.172,52 0,00 0,00 0,00 1.550,00 18.679,42 1.585,87 2.428,40 0,00 0,00 4.014,27 14.665,15 31/12/2020
182 186400 ANA CRISTINA DE AZEVEDO LOPES OFICIAL DO MP UBÁ - COMARCA; UBA-PJ-01PJ 14.790,66 5.916,26 0,00 7.254,10 0,00 0,00 0,00 1.550,00 29.511,02 2.410,35 4.162,20 0,00 0,00 6.572,55 22.938,47 31/12/2020
183 693000 ANA CRISTINA DE MELO SILVEIRA ASSESSOR PROCURADOR JUSTICA BELO HORIZONTE - COMARCA; GABINETE DE PROCURADOR DE JUSTIÇA - SALA 507 0,00 0,00 7.187,72 1.197,95 0,00 0,00 0,00 2.960,55 11.346,22 805,23 1.213,66 0,00 0,00 2.018,89 9.327,33 31/12/2020
184 465100 ANA CRISTINA DE OLIVEIRA GUIMARAES ANALISTA DO MP ITAJUBA - COMARCA; ITAJUBA-PJ-05PJ 10.069,62 2.013,92 0,00 2.582,51 0,00 0,00 0,00 3.088,78 17.754,83 1.362,94 1.974,53 0,00 0,00 3.337,47 14.417,36 31/12/2020
185 500600 ANA CRISTINA LATADO SUDARIO ANALISTA DO MP UBERLÂNDIA - COMARCA; UBERLANDIA-PJ-09PJ 10.069,62 1.006,96 0,00 2.478,24 0,00 0,00 0,00 1.550,00 15.104,82 1.244,89 1.834,36 0,00 0,00 3.079,25 12.025,57 31/12/2020
186 331400 ANA CRISTINA RIBEIRO ALVES OFICIAL DO MP BAMBUÍ - COMARCA; BAMBUI-PJ-UNPJ 9.146,93 2.744,08 0,00 2.798,11 0,00 0,00 0,00 1.550,00 16.239,12 1.340,03 1.980,02 0,00 0,00 3.320,05 12.919,07 31/12/2020
187 249300 ANA ELOINA MARTINS OFICIAL DO MP BETIM - COMARCA; BETIM-PJ-02PJ 12.601,30 5.040,52 0,00 6.244,63 5.880,61 0,00 0,00 1.550,00 31.317,06 2.032,30 5.040,43 0,00 0,00 7.072,73 24.244,33 31/12/2020
188 257400 ANA FLAVIA CAMBRAIA ANALISTA DO MP BELO HORIZONTE - COMARCA; BH-19PJ SAUDE-SECRETARIA 150PJ 18.103,37 5.431,01 0,00 4.689,42 0,00 0,00 0,00 1.550,00 29.773,80 2.763,79 4.790,42 0,00 0,00 7.554,21 22.219,59 31/12/2020
189 248201 ANA FLAVIA DE MORAIS SOUZA ANALISTA DO MP DIVINÓPOLIS - COMARCA; DIVINOPOLIS-PJ-01PJ 10.069,62 3.020,89 0,00 2.875,02 0,00 0,00 0,00 2.319,39 18.284,92 1.482,77 2.218,49 0,00 0,00 3.701,26 14.583,66 31/12/2020
190 621100 ANA FLAVIA DINIZ TEODORO OFICIAL DO MP SANTA LUZIA - COMARCA; SANTA LUZIA-PJ-06PJ 5.387,19 538,72 0,00 4.672,50 0,00 0,00 0,00 1.550,00 12.148,41 654,63 580,24 0,00 0,00 1.234,87 10.913,54 31/12/2020
191 238600 ANA FLAVIA FRANCO OFICIAL DO MP BELO HORIZONTE - COMARCA; DIRETORIA DE PESSOAL ADMINISTRATIVO - DPAD 13.011,52 3.903,46 0,00 6.005,27 0,00 0,00 0,00 1.550,00 24.470,25 1.943,62 3.247,76 0,00 0,00 5.191,38 19.278,87 31/12/2020
192 690000 ANA FLAVIA LURIAN DE PAIVA ASSESSOR PROCURADOR JUSTICA BELO HORIZONTE - COMARCA; GABINETE DE PROCURADOR DE JUSTIÇA - SALA 609 0,00 0,00 7.187,72 1.796,93 0,00 0,00 0,00 1.550,00 10.534,65 859,14 1.213,66 0,00 0,00 2.072,80 8.461,85 31/12/2020
193 402900 ANA FLAVIA PORTES DE CARVALHO ANALISTA DO MP BELO HORIZONTE - COMARCA; DIRET DE PLANOS PROJETOS E PROGRAMAS INST 14.324,23 2.864,85 0,00 4.032,56 0,00 0,00 0,00 1.550,00 22.771,64 1.977,07 3.261,81 0,00 0,00 5.238,88 17.532,76 31/12/2020
194 382700 ANA KARENINA SALDANHA GONTIJO ANALISTA DO MP BELO HORIZONTE - COMARCA; ASSESS TECNICO-JUR JUNTO AS PROC. DE JUST 13.872,60 2.774,52 0,00 3.492,08 0,00 0,00 0,00 2.319,39 22.458,59 1.910,95 3.183,09 0,00 0,00 5.094,04 17.364,55 31/12/2020
195 620500 ANA KARINE DE ANDRADE OLIVEIRA ANALISTA DO MP RIBEIRÃO DAS NEVES - COMARCA; SEC PJ EXECUCAO PENAL RIBEIRAO NEVES 7.663,37 766,34 0,00 2.197,41 0,00 0,00 0,00 1.550,00 12.177,12 937,85 1.190,90 0,00 0,00 2.128,75 10.048,37 31/12/2020
196 462200 ANA LUCIA ANDRADE TOMICH OTTONI ANALISTA DO MP TEÓFILO OTONI - COMARCA; TEOFILO OTONI-PJ-07PJ 10.069,62 2.013,92 0,00 2.530,37 0,00 0,00 0,00 1.550,00 16.163,91 1.362,94 2.026,67 0,00 0,00 3.389,61 12.774,30 31/12/2020
197 504100 ANA LUCIA CATAO DE CARVALHO OFICIAL DO MP BELO HORIZONTE - COMARCA; BH-09PJ AUDITORIA MILITAR-SECRETARIA 7.663,37 766,34 0,00 2.249,55 0,00 0,00 0,00 2.319,39 12.998,65 937,85 1.138,76 0,00 0,00 2.076,61 10.922,04 31/12/2020
198 274700 ANA LUCIA DE ALENCAR BRAGATO OFICIAL DO MP UBERABA - COMARCA; UBERABA-PJ-07PJ 10.069,62 3.020,89 0,00 4.658,00 0,00 0,00 0,00 1.550,00 19.298,51 1.482,77 2.322,77 0,00 0,00 3.805,54 15.492,97 31/12/2020
199 509400 ANA LUCIA DORNELAS MALLOSTO ANALISTA DO MP JUIZ DE FORA - COMARCA; JUIZ DE FORA-PJ-25PJ 10.069,62 1.006,96 0,00 2.798,45 0,00 0,00 0,00 1.550,00 15.425,03 1.244,89 1.782,22 0,00 0,00 3.027,11 12.397,92 31/12/2020
200 302600 ANA LUCIA LOPES SANTOS OFICIAL DO MP BELO HORIZONTE - COMARCA; DIVISÃO DE FISCALIZAÇÃO DAS RELAÇÕES DE CONSU 10.069,62 3.020,89 0,00 3.148,08 0,00 0,00 1.445,27 1.550,00 19.233,86 1.482,77 2.668,08 0,00 0,00 4.150,85 15.083,01 31/12/2020
201 493400 ANA LUISA NOGUEIRA MOREIRA ANALISTA DO MP BELO HORIZONTE - COMARCA; BH-19PJ SAUDE-SECRETARIA 130PJ 10.069,62 1.006,96 0,00 2.478,24 0,00 0,00 0,00 1.550,00 15.104,82 1.244,89 1.834,36 0,00 0,00 3.079,25 12.025,57 31/12/2020
202 389300 ANA LUISA REUTER LIMA ANALISTA DO MP BELO HORIZONTE - COMARCA; DIRETORIA DE SISTEMAS DE INFORMACAO 11.819,15 2.363,83 0,00 3.436,32 0,00 0,00 0,00 1.550,00 19.169,30 1.612,77 2.587,45 0,00 0,00 4.200,22 14.969,08 31/12/2020
203 480600 ANA LUIZA FERNANDES FRAGA E GRECO OFICIAL DO MP BELO HORIZONTE - COMARCA; BH-23PJ CIVEL-SEC EXP CIVEIS 7.421,79 742,18 0,00 2.346,96 0,00 0,00 0,00 1.550,00 12.060,93 907,53 1.050,72 0,00 0,00 1.958,25 10.102,68 31/12/2020
204 481400 ANA MARCIA CANDIDA FERREIRA OFICIAL DO MP BRUMADINHO - COMARCA; BRUMADINHO-PJ-02PJ 6.123,79 612,38 0,00 1.847,78 0,00 0,00 0,00 1.550,00 10.133,95 746,19 777,89 0,00 0,00 1.524,08 8.609,87 31/12/2020
205 643100 ANA MARIA LOPES MIRANDA ANALISTA DO MP BELO HORIZONTE - COMARCA; CAO-FUNDACOES 7.421,79 445,31 0,00 2.276,96 0,00 0,00 0,00 1.550,00 11.694,06 674,42 1.108,63 0,00 0,00 1.783,05 9.911,01 31/12/2020
206 556400 ANA MARIA OLIVEIRA SOUZA OFICIAL DO MP ITAPECERICA - COMARCA; ITAPECERICA-PJ-UNPJ 5.930,75 593,08 0,00 2.050,13 0,00 0,00 0,00 1.550,00 10.123,96 722,19 726,09 0,00 0,00 1.448,28 8.675,68 31/12/2020
207 409600 ANA OLIVIA FARIA ROSENBURG ANALISTA DO MP BELO HORIZONTE - COMARCA; DIRETORIA DO COLEGIO E DA CAMARA DE PJ 13.011,52 3.903,46 0,00 3.534,24 0,00 0,00 0,00 1.550,00 21.999,22 1.943,62 3.247,76 0,00 0,00 5.191,38 16.807,84 31/12/2020
208 461500 ANA PAULA ALVES CARVALHO ANALISTA DO MP UBERLÂNDIA - COMARCA; UBERLANDIA-PJ-25PJ 10.069,62 2.013,92 0,00 2.478,24 0,00 0,00 0,00 2.319,39 16.881,17 1.362,94 2.078,80 0,00 0,00 3.441,74 13.439,43 31/12/2020
209 523200 ANA PAULA ALVES DA SILVA OFICIAL DO MP GOVERNADOR VALADARES - COMARCA; GOVERNADOR VALADARES-PJ-10PJ 7.421,79 742,18 0,00 2.451,23 0,00 0,00 0,00 4.626,47 15.241,67 907,53 1.021,89 0,00 0,00 1.929,42 13.312,25 31/12/2020
210 381200 ANA PAULA BARROS PEREIRA RIGHI ANALISTA DO MP BELO HORIZONTE - COMARCA; PROC JUST RECURSOS ESP E EXTRAORD CRIMINAIS 14.324,23 2.864,85 0,00 4.032,56 0,00 0,00 0,00 2.319,39 23.541,03 1.977,07 3.261,81 0,00 0,00 5.238,88 18.302,15 31/12/2020
211 696400 ANA PAULA CARVALHO SILVA ASSESSOR PROMOTOR JUSTICA LAVRAS - COMARCA; LAVRAS-PJ-SECRETARIA 0,00 0,00 6.708,54 598,98 0,00 0,00 0,00 1.450,00 8.757,52 713,09 1.054,39 0,00 0,00 1.767,48 6.990,04 31/12/2020
212 227200 ANA PAULA DA SILVA CAMPOLINA ANALISTA DO MP BELO HORIZONTE - COMARCA; DIRETORIA DE ORCAMENTO-DIOR/SPC 18.820,14 9.410,07 0,00 4.969,80 0,00 0,00 0,00 1.550,00 34.750,01 3.350,77 5.972,49 0,00 0,00 9.323,26 25.426,75 31/12/2020
213 84200 ANA PAULA DE SOUZA ROCHA OFICIAL DO MP BELO HORIZONTE - COMARCA; DIRETORIA DE CONTABILIDADE 28.280,68 19.796,48 0,00 6.020,25 0,00 0,00 0,00 1.550,00 55.647,41 4.254,77 7.712,69 12.614,94 0,00 24.582,40 31.065,01 31/12/2020
214 278500 ANA PAULA DIAS CAPANEMA OFICIAL DO MP BELO HORIZONTE - COMARCA; DIRETORIA DE SEGURANCA 10.069,62 3.020,89 0,00 2.770,75 0,00 0,00 0,00 1.550,00 17.411,26 1.482,77 2.322,77 0,00 0,00 3.805,54 13.605,72 31/12/2020
215 327300 ANA PAULA GARCIA MAXIMO OFICIAL DO MP UNAÍ - COMARCA; UNAI-PJ-01PJ 11.085,56 4.434,22 0,00 3.470,83 0,00 0,00 0,00 1.550,00 20.540,61 1.773,41 2.754,48 0,00 0,00 4.527,89 16.012,72 31/12/2020
216 270000 ANA PAULA GOULART CRUZ DE MAGALHAES ANALISTA DO MP BELO HORIZONTE - COMARCA; COMB CRIMES PRAT POR AG POL MUN-ASSESSORIA 13.872,60 4.161,78 0,00 3.710,63 0,00 0,00 0,00 1.550,00 23.295,01 2.080,20 3.518,04 0,00 0,00 5.598,24 17.696,77 31/12/2020
217 262100 ANA PAULA KOMATSUZAKI ABIJAUDI ANALISTA DO MP BELO HORIZONTE - COMARCA; BH-17PJ PATRIMONIO PUBLICO-SECRETARIA 18.103,37 7.241,35 0,00 5.031,38 0,00 0,00 0,00 1.550,00 31.926,10 2.990,08 5.173,89 0,00 0,00 8.163,97 23.762,13 31/12/2020
218 278900 ANA PAULA MOREIRA GURGEL ANALISTA DO MP BELO HORIZONTE - COMARCA; DIRETORIA-GERAL 18.820,14 7.528,06 0,00 5.775,70 0,00 0,00 0,00 1.550,00 33.673,90 3.115,51 5.519,63 0,00 0,00 8.635,14 25.038,76 31/12/2020
219 425701 ANA PAULA ROCHA ANALISTA DO MP BELO HORIZONTE - COMARCA; ASSESSORIA DE COMUNICACAO INTEGRADA 8.858,43 885,84 0,00 7.076,64 3.248,09 0,00 0,00 2.319,39 22.388,39 1.090,34 2.403,70 0,00 0,00 3.494,04 18.894,35 31/12/2020
220 692700 ANA PAULA RODRIGUES GOMES GONCALVES ASSESSOR PROCURADOR JUSTICA BELO HORIZONTE - COMARCA; GABINETE DE PROCURADOR DE JUSTIÇA - SALA 1012 0,00 0,00 7.187,72 1.197,95 0,00 0,00 0,00 2.986,19 11.371,86 805,23 1.161,52 0,00 0,00 1.966,75 9.405,11 31/12/2020
221 395601 ANA PAULA SALGE OLIVEIRA ANALISTA DO MP UBERABA - COMARCA; COORD REG PP TRIANGULO MINEIRO UBERABA 10.069,62 3.020,89 0,00 2.770,75 4.363,50 0,00 0,00 1.550,00 21.774,76 1.482,77 3.522,73 0,00 0,00 5.005,50 16.769,26 31/12/2020
222 473200 ANA PAULA SCOTTON BRASIL ANALISTA DO MP JUIZ DE FORA - COMARCA; JUIZ DE FORA-PJ-07PJ 10.069,62 2.013,92 0,00 2.478,24 0,00 0,00 0,00 2.319,39 16.881,17 1.362,94 2.078,80 0,00 0,00 3.441,74 13.439,43 31/12/2020
223 633600 ANA PAULA SILVA FERNANDES OFICIAL DO MP CATAGUASES - COMARCA; CATAGUASES-PJ-04PJ 5.217,34 521,73 0,00 1.876,21 0,00 0,00 0,00 1.550,00 9.165,28 633,52 534,67 0,00 0,00 1.168,19 7.997,09 31/12/2020
224 470900 ANA PAULA VALADARES ANALISTA DO MP PITANGUI - COMARCA; PITANGUI-PJ-01PJ 10.069,62 2.013,92 0,00 4.060,40 0,00 0,00 0,00 1.550,00 17.693,94 1.362,94 1.974,53 0,00 0,00 3.337,47 14.356,47 31/12/2020
225 447000 ANA PAULA VALENTIM DE ARAUJO ANALISTA DO MP BELO HORIZONTE - COMARCA; COMB CRIMES PRAT POR AG POL MUN-ASSESSORIA 10.069,62 2.013,92 0,00 2.624,49 0,00 0,00 0,00 1.550,00 16.258,03 1.362,94 2.078,80 0,00 0,00 3.441,74 12.816,29 31/12/2020
226 604200 ANA PAULA VIANA E SILVA OFICIAL DO MP BELO HORIZONTE - COMARCA; BH-17PJ PATRIMONIO PUBLICO-SECRETARIA 5.930,75 593,08 0,00 2.666,57 0,00 0,00 0,00 1.550,00 10.740,40 722,19 726,09 0,00 0,00 1.448,28 9.292,12 31/12/2020
227 505400 ANA PAULA VIEIRA SOUTO OFICIAL DO MP ALMENARA - COMARCA; ALMENARA-PJ-01PJ 6.123,79 1.837,14 0,00 5.978,04 0,00 0,00 0,00 1.550,00 15.488,97 884,58 1.024,50 0,00 0,00 1.909,08 13.579,89 31/12/2020
228 280200 ANA RACHEL BRANDAO LADEIRA ROLAND DIRETOR/ANALISTA BELO HORIZONTE - COMARCA; SUPRIN DE FORMACAO E APERFEICOAMENTO-SFA/CEAF 17.413,92 5.224,18 3.482,78 5.277,36 8.706,96 0,00 0,00 1.550,00 41.655,20 2.651,75 7.979,06 0,00 0,00 10.630,81 31.024,39 31/12/2020
229 691000 ANA RACHEL DOS REIS E SENA COSTA ASSESSOR PROMOTOR JUSTICA BELO HORIZONTE - COMARCA; GABINETE DE PROCURADOR DE JUSTIÇA - SALA 601 0,00 0,00 7.187,72 1.197,95 0,00 0,00 0,00 1.550,00 9.935,67 805,23 1.213,66 0,00 0,00 2.018,89 7.916,78 31/12/2020
230 601200 ANA REGINA RIBEIRO COORDENADOR/ANALISTA BELO HORIZONTE - COMARCA; DIV FISCAL ADM CONT TERCEIRIZACAO 0,00 1.181,92 11.819,15 2.906,22 4.333,69 0,00 0,00 1.550,00 21.790,98 1.127,14 3.351,34 0,00 859,60 5.338,08 16.452,90 31/12/2020
231 384700 ANA RODRIGUES PEREIRA MARRA ANALISTA DO MP COROMANDEL - COMARCA; COROMANDEL-PJ-UNPJ 10.069,62 2.013,92 0,00 2.728,77 4.027,85 0,00 0,00 2.319,39 21.159,55 1.362,94 3.082,19 0,00 0,00 4.445,13 16.714,42 31/12/2020
232 232700 ANA SILVIA SEMBLANO NAKAMURA ASSESSOR/OFICIAL BELO HORIZONTE - COMARCA; CENT DE APOIO TEC-SETOR DEF,IDOSO E INFANC 0,00 3.119,26 10.397,52 2.866,66 0,00 0,00 0,00 1.550,00 17.933,44 1.482,77 2.439,99 0,00 0,00 3.922,76 14.010,68 31/12/2020
233 602100 ANACLETO FRANCISCO MARCIER PIMENTA OFICIAL DO MP SÃO JOÃO DEL REI - COMARCA; SAO JOAO DEL REI-PJ-03PJ 5.387,19 538,72 0,00 2.150,94 0,00 0,00 0,00 3.088,78 11.165,63 654,63 336,62 0,00 0,00 991,25 10.174,38 31/12/2020
234 310400 ANADEJE DO CARMO DINIZ ARAUJO OFICIAL DO MP BELO HORIZONTE - COMARCA; DIRETORIA DE PESSOAL ADMINISTRATIVO - DPAD 10.069,62 3.020,89 0,00 3.238,55 0,00 0,00 0,00 1.550,00 17.879,06 1.482,77 2.322,77 0,00 0,00 3.805,54 14.073,52 31/12/2020
235 337000 ANAILDES MARIA MENDES OFICIAL DO MP JANAÚBA - COMARCA; JANAUBA-PJ-02PJ 9.444,70 2.833,41 0,00 2.654,92 0,00 0,00 0,00 3.088,78 18.021,81 1.386,09 2.125,94 0,00 0,00 3.512,03 14.509,78 31/12/2020
236 192900 ANATALIA CERQUEIRA LIMA PERES OFICIAL DO MP UBERABA - COMARCA; COORD REG SAUDE MACROR SANIT TRIANGULO SUL 11.085,56 4.434,22 0,00 3.314,41 0,00 0,00 0,00 1.550,00 20.384,19 1.773,41 2.910,89 0,00 0,00 4.684,30 15.699,89 31/12/2020
237 377400 ANDEIRSON DA MATTA BARBOSA ANALISTA DO MP POUSO ALEGRE - COMARCA; POUSO ALEGRE-PJ-01PJ 10.069,62 2.013,92 0,00 2.624,49 4.027,85 0,00 0,00 2.704,09 21.439,97 1.362,94 3.186,46 0,00 0,00 4.549,40 16.890,57 31/12/2020
238 317400 ANDERSON DA SILVA BICALHO OFICIAL DO MP CONTAGEM - COMARCA; CONTAGEM-PJ-SECRETARIA 9.146,93 2.744,08 0,00 4.235,38 0,00 0,00 0,00 1.550,00 17.676,39 1.340,03 1.875,75 0,00 0,00 3.215,78 14.460,61 31/12/2020
239 506900 ANDERSON DE SOUZA DAMIANI ANALISTA DO MP BELO HORIZONTE - COMARCA; DIRETORIA DE PAGAMENTO DE PESSOAL-DPAG 10.069,62 3.020,89 0,00 2.875,02 0,00 0,00 0,00 2.319,39 18.284,92 1.482,77 2.218,49 0,00 0,00 3.701,26 14.583,66 31/12/2020
240 410000 ANDERSON DE SOUZA NETO ASSESSOR BELO HORIZONTE - COMARCA; DIRETORIA DE ADMINISTRACAO FINANCEIRA 0,00 0,00 5.136,32 2.178,67 1.712,11 0,00 0,00 1.550,00 10.577,10 1.291,12 1.120,36 0,00 0,00 2.411,48 8.165,62 31/12/2020
241 181900 ANDERSON FLAVIO DE OLIVEIRA OFICIAL DO MP ITAGUARA - COMARCA; ITAGUARA-PJ-SECRETARIA 13.011,52 5.204,61 0,00 6.433,78 0,00 0,00 0,00 1.550,00 26.199,91 2.102,36 3.561,93 0,00 0,00 5.664,29 20.535,62 31/12/2020
242 333200 ANDERSON JOSE DE FREITAS OFICIAL DO MP IPATINGA - COMARCA; IPATINGA-PJ-04PJ 9.444,70 2.833,41 0,00 3.288,59 0,00 0,00 1.445,27 1.550,00 18.561,97 1.386,09 2.366,98 0,00 0,00 3.753,07 14.808,90 31/12/2020
243 699400 ANDERSON LUIZ CABRAL ASSESSOR PROMOTOR JUSTICA ALÉM PARAÍBA - COMARCA; ALEM PARAIBA-PJ-03PJ 0,00 0,00 6.708,54 598,98 0,00 0,00 0,00 1.450,00 8.757,52 713,09 1.054,39 0,00 0,00 1.767,48 6.990,04 31/12/2020
244 462100 ANDERSON LUIZ GUIMARAES CARDOSO ANALISTA DO MP BARBACENA - COMARCA; BARBACENA-PJ-02PJ 10.736,08 2.147,22 0,00 4.323,96 0,00 0,00 0,00 1.550,00 18.757,26 1.458,11 2.272,57 0,00 0,00 3.730,68 15.026,58 31/12/2020
245 429700 ANDERSON MELO DE SOUZA ASSESSOR/OFICIAL BELO HORIZONTE - COMARCA; DIRET DE ESTAGIOS E CONVENIOS ACADEMICOS 0,00 2.079,50 10.397,52 3.090,64 0,00 0,00 0,00 1.550,00 17.117,66 815,39 2.337,59 0,00 0,00 3.152,98 13.964,68 31/12/2020
246 545600 ANDERSON MENDES PROCOPIO FERREIRA ANALISTA DO MP BELO HORIZONTE - COMARCA; BH-12PJ JUIZO CRIMINAL-GAB 089PJ 9.146,93 914,69 0,00 2.635,57 3.353,87 0,00 0,00 1.550,00 17.601,06 1.127,14 2.509,93 0,00 0,00 3.637,07 13.963,99 31/12/2020
247 519900 ANDERSON MOREIRA DOEHLER ANALISTA DO MP TEÓFILO OTONI - COMARCA; COORD REG SAUDE MACRORREGIAO SANIT NORDESTE 10.069,62 3.020,89 0,00 3.087,59 0,00 0,00 0,00 1.550,00 17.728,10 1.482,77 2.322,77 0,00 0,00 3.805,54 13.922,56 31/12/2020
248 103000 ANDERSON TADEU DE DEUS ASSESSOR BELO HORIZONTE - COMARCA; BH-26 CRIME CONT CRIAN ADOL-SECRETARIA 0,00 3.595,42 5.136,32 3.030,10 0,00 0,00 0,00 1.550,00 13.311,84 1.426,18 1.638,27 0,00 0,00 3.064,45 10.247,39 31/12/2020
249 309200 ANDITYAS SOARES DE MOURA COSTA MATOS ANALISTA DO MP BELO HORIZONTE - COMARCA; GABINETE DE PROCURADOR DE JUSTIÇA - SALA 304 14.790,66 4.437,20 0,00 3.898,69 0,00 0,00 0,00 1.550,00 24.676,55 2.227,14 3.805,84 0,00 0,00 6.032,98 18.643,57 31/12/2020
250 519200 ANDRE BORJA LANA ANALISTA DO MP BELO HORIZONTE - COMARCA; CENTRO JORNALISMO 10.069,62 1.006,96 0,00 2.677,30 0,00 0,00 4.936,13 1.550,00 20.240,01 1.244,89 2.445,20 0,00 0,00 3.690,09 16.549,92 31/12/2020
251 637200 ANDRE FERNANDES DA CUNHA OFICIAL DO MP MORADA NOVA DE MINAS - COMARCA; MORADA NOVA DE MINAS-PJ-UNPJ 5.217,34 521,73 0,00 2.136,65 0,00 0,00 0,00 1.550,00 9.425,72 388,66 534,67 0,00 0,00 923,33 8.502,39 31/12/2020
252 651500 ANDRE GONCALVES MARANHAO OFICIAL DO MP JACINTO - COMARCA; JACINTO-PJ-SECRETARIA 4.376,03 262,56 0,00 3.820,43 0,00 0,00 0,00 1.550,00 10.009,02 510,24 292,75 0,00 0,00 802,99 9.206,03 31/12/2020
253 521900 ANDRE LUIS GOMES SILVA ANALISTA DO MP FORMIGA - COMARCA; FORMIGA-PJ-02PJ 10.069,62 1.006,96 0,00 2.530,37 0,00 0,00 0,00 2.319,39 15.926,34 1.244,89 1.339,50 0,00 0,00 2.584,39 13.341,95 31/12/2020
254 304300 ANDRE LUIZ AVELAR ANALISTA DO MP BELO HORIZONTE - COMARCA; DIRETORIA DE REDES E BANCOS DE DADOS 8.436,53 2.530,96 0,00 3.999,13 0,00 0,00 0,00 1.550,00 16.516,62 1.232,23 1.755,70 0,00 0,00 2.987,93 13.528,69 31/12/2020
255 397400 ANDRE PATARO MYRRHA DE PAULA E SILVA ANALISTA DO MP BELO HORIZONTE - COMARCA; ASSESSORIA JURIDICO-ADMINISTRATIVA 14.324,23 2.864,85 0,00 3.980,42 0,00 0,00 0,00 2.319,39 23.488,89 1.977,07 3.313,94 0,00 0,00 5.291,01 18.197,88 31/12/2020
256 650100 ANDRE THOME VARGAS OFICIAL DO MP LEOPOLDINA - COMARCA; LEOPOLDINA-PJ-04PJ 4.817,57 289,05 0,00 1.685,63 0,00 0,00 0,00 1.550,00 8.342,25 579,77 386,40 0,00 0,00 966,17 7.376,08 31/12/2020
257 548500 ANDRE VINICIUS CARVALHO MEIRA ANALISTA DO MP JUIZ DE FORA - COMARCA; JUIZ DE FORA-PJ-24PJ 9.146,93 914,69 0,00 2.635,57 0,00 0,00 0,00 1.550,00 14.247,19 1.127,14 1.587,62 0,00 0,00 2.714,76 11.532,43 31/12/2020
258 297200 ANDRE WILLE ROSARIO ANALISTA DO MP BELO HORIZONTE - COMARCA; ASSESSORIA ESPECIAL DO PGJ 17.413,92 5.224,18 0,00 4.598,01 0,00 0,00 0,00 1.550,00 28.786,11 2.651,75 4.522,61 0,00 0,00 7.174,36 21.611,75 31/12/2020
259 423600 ANDREA COSTA GUALBERTO ALVES ANALISTA DO MP GOVERNADOR VALADARES - COMARCA; COORD REG PJ DEF EDU DIR CRIANCA ADOL RIODOCE 12.601,30 8.820,91 0,00 14.669,89 0,00 0,00 0,00 1.550,00 37.642,10 2.499,76 4.282,18 0,00 0,00 6.781,94 30.860,16 31/12/2020
260 198600 ANDREA CRISTINA ANDRADE COSTA E SOUZA OFICIAL DO MP MONTES CLAROS - COMARCA; MONTES CLAROS-PJ-15PJ 15.272,02 6.108,81 0,00 4.289,89 7.126,94 0,00 0,00 1.550,00 34.347,66 2.494,59 6.232,13 0,00 0,00 8.726,72 25.620,94 31/12/2020
261 467300 ANDREA DE CASSIA PENNA ALVERNAZ ANALISTA DO MP PONTE NOVA - COMARCA; PONTE NOVA-PJ-01PJ 10.069,62 2.013,92 0,00 2.530,37 0,00 0,00 0,00 1.550,00 16.163,91 1.362,94 2.026,67 0,00 0,00 3.389,61 12.774,30 31/12/2020
262 308000 ANDREA DE CASSIA SANTOS OLIVEIRA ANALISTA DO MP BELO HORIZONTE - COMARCA; COORD DE GABINETE DO PGJ 16.750,82 5.025,25 0,00 4.834,21 0,00 0,00 0,00 1.550,00 28.160,28 2.544,00 4.367,32 0,00 0,00 6.911,32 21.248,96 31/12/2020
263 349500 ANDREA DE OLIVEIRA LOIOLA REGIS OFICIAL DO MP IGUATAMA - COMARCA; IGUATAMA-PJ-UNPJ 9.752,14 1.950,43 0,00 2.765,18 0,00 0,00 0,00 1.550,00 16.017,75 1.317,61 1.934,37 0,00 0,00 3.251,98 12.765,77 31/12/2020
264 287900 ANDREA FERNANDES PENA MARTINS OFICIAL DO MP MONTES CLAROS - COMARCA; MONTES CLAROS-PJ-09PJ 10.069,62 3.020,89 0,00 2.875,02 0,00 0,00 0,00 1.550,00 17.515,53 1.482,77 2.218,49 0,00 0,00 3.701,26 13.814,27 31/12/2020
265 300800 ANDREA FERREIRA ANALISTA DO MP LAVRAS - COMARCA; LAVRAS-PJ-04PJ 15.272,02 4.581,61 0,00 13.611,08 0,00 0,00 0,00 1.550,00 35.014,71 2.304,42 3.956,67 0,00 0,00 6.261,09 28.753,62 31/12/2020
266 316700 ANDREA FRANCISCA DIAS DE SOUZA ASSESSOR BELO HORIZONTE - COMARCA; ASSESSORIA JURIDICA DO PROCON-MG 0,00 0,00 3.076,28 3.010,17 0,00 0,00 0,00 2.319,39 8.405,84 734,41 205,10 0,00 0,00 939,51 7.466,33 31/12/2020
267 395100 ANDREA LANNA MENDES NOVAIS ANALISTA DO MP BELO HORIZONTE - COMARCA; PROMOT ESTADUAL DE DEF PATRI CULT E TUR DE MG 14.324,23 2.864,85 0,00 11.839,47 0,00 0,00 0,00 1.550,00 30.578,55 1.977,07 3.261,81 0,00 0,00 5.238,88 25.339,67 31/12/2020
268 67300 ANDREA LEAO MAGALHAES ROQUE ASSESSOR BELO HORIZONTE - COMARCA; COORD ESTADUAL COMBATE CRIMES CIBERNETICOS 0,00 7.278,26 10.397,52 5.094,65 0,00 0,00 0,00 1.550,00 24.320,43 1.426,18 4.045,74 0,00 0,00 5.471,92 18.848,51 31/12/2020
269 335700 ANDREA LOPES PEREIRA ANALISTA DO MP GOVERNADOR VALADARES - COMARCA; COORD REG DO MA DA BACIA DO RIO DOCE 16.750,82 5.025,25 0,00 4.798,35 0,00 0,00 0,00 1.550,00 28.124,42 2.544,00 4.419,46 0,00 0,00 6.963,46 21.160,96 31/12/2020
270 389200 ANDREA TUPINI DOS SANTOS TRISTAO DA ROCHA COORDENADOR/OFICIAL BELO HORIZONTE - COMARCA; BH-13ª PJ JUÍZO DE TÓXICOS-SECRETARIA 0,00 2.363,83 11.819,15 4.060,53 0,00 1.612,77 0,00 1.550,00 21.406,28 1.612,77 3.030,96 0,00 0,00 4.643,73 16.762,55 31/12/2020
271 419000 ANDREIA BARBOSA DE ALMEIDA ANALISTA DO MP BELO HORIZONTE - COMARCA; GABINETE DE PROCURADOR DE JUSTIÇA - SALA 705 12.601,30 2.520,26 0,00 3.251,70 0,00 0,00 0,00 1.550,00 19.923,26 1.724,83 2.814,74 0,00 0,00 4.539,57 15.383,69 31/12/2020
272 281501 ANDREIA CARLA COSTA ANALISTA DO MP UBÁ - COMARCA; UBA-PJ-02PJ 13.011,52 2.602,30 0,00 3.329,25 0,00 0,00 0,00 1.550,00 20.493,07 1.784,88 2.933,60 0,00 0,00 4.718,48 15.774,59 31/12/2020
273 477100 ANDREIA DE ALMEIDA RIBEIRO MELO OFICIAL DO MP CONTAGEM - COMARCA; CONTAGEM-PJ-SECRETARIA 7.663,37 1.532,67 0,00 2.318,14 0,00 0,00 0,00 1.550,00 13.064,18 1.026,74 1.377,20 0,00 0,00 2.403,94 10.660,24 31/12/2020
274 619000 ANDREIA FERREIRA NORONHA COORDENADOR/OFICIAL BELO HORIZONTE - COMARCA; DIRETORIA DE SERVICO CRIMINAL 0,00 1.343,52 13.435,16 3.701,42 0,00 0,00 0,00 1.550,00 20.030,10 654,63 2.946,94 0,00 246,60 3.848,17 16.181,93 31/12/2020
275 424000 ANDREIA LUCIA COUTO ANALISTA DO MP BELO HORIZONTE - COMARCA; BH-18PJ DIREITOS HUMANOS-SECRETARIA 13.011,52 2.602,30 0,00 3.329,25 0,00 0,00 0,00 1.550,00 20.493,07 1.784,88 2.933,60 0,00 0,00 4.718,48 15.774,59 31/12/2020
276 370100 ANDREIA MARIA SILVA PINTO OFICIAL DO MP CORONEL FABRICIANO - COMARCA; CORONEL FABRICIANO-PJ-01PJ 9.146,93 1.829,39 0,00 2.598,69 0,00 0,00 0,00 2.319,39 15.894,40 1.233,26 1.809,98 0,00 0,00 3.043,24 12.851,16 31/12/2020
277 382100 ANDREIA NATALI PEREIRA DE OLIVEIRA OFICIAL DO MP PRADOS - COMARCA; PRADOS-PJ-UNPJ 8.858,43 1.771,69 0,00 2.544,12 0,00 0,00 0,00 1.550,00 14.724,24 1.193,09 1.725,82 0,00 0,00 2.918,91 11.805,33 31/12/2020
278 275200 ANDREIA RIBEIRO FREITAS OFICIAL DO MP VIÇOSA - COMARCA; VICOSA-PJ-04PJ 10.069,62 3.020,89 0,00 2.822,89 4.363,50 0,00 0,00 1.550,00 21.826,90 1.482,77 3.470,59 0,00 0,00 4.953,36 16.873,54 31/12/2020
279 352200 ANDREIA XAVIER PEREIRA OFICIAL DO MP CLÁUDIO - COMARCA; CLAUDIO-PJ-UNPJ 9.752,14 1.950,43 0,00 2.713,05 3.900,86 0,00 0,00 1.550,00 19.866,48 1.317,61 3.059,24 0,00 0,00 4.376,85 15.489,63 31/12/2020
280 638500 ANDRESA ALVES FEITOSA CASAGRANDE ANALISTA DO MP LAVRAS - COMARCA; COORD REG DO MA DA BACIA DO RIO GRANDE 8.170,49 817,05 0,00 2.816,77 0,00 0,00 0,00 1.550,00 13.354,31 674,42 1.416,75 0,00 0,00 2.091,17 11.263,14 31/12/2020
281 383700 ANDRESSA EDUARDO SOUZA ANALISTA DO MP OURO BRANCO - COMARCA; OURO BRANCO-PJ-SECRETARIA 14.324,23 2.864,85 0,00 6.315,24 0,00 0,00 0,00 2.319,39 25.823,71 1.977,07 3.313,94 0,00 0,00 5.291,01 20.532,70 31/12/2020
282 678400 ANDRESSA LUIZA SILVA LOPES ASSESSOR PROMOTOR JUSTICA CARMO DO PARANAÍBA - COMARCA; CARMO DO PARANAIBA-PJ-02PJ 0,00 0,00 7.187,72 2.934,14 0,00 0,00 0,00 1.550,00 11.671,86 994,11 1.213,66 0,00 0,00 2.207,77 9.464,09 31/12/2020
283 426200 ANDRESSA MENDES CASAL OFICIAL DO MP BELO HORIZONTE - COMARCA; DIR ESTRUTURA E PROCESSOS ORGANIZACIONAIS 7.421,79 1.484,36 0,00 2.481,29 0,00 0,00 0,00 1.550,00 12.937,44 993,11 1.306,73 0,00 0,00 2.299,84 10.637,60 31/12/2020
284 390100 ANDRESSA RIBEIRO PUCCI OFICIAL DO MP UBERABA - COMARCA; UBERABA-PJ-14PJ 6.741,63 1.348,33 0,00 3.101,26 0,00 0,00 0,00 1.550,00 12.741,22 899,17 1.108,11 0,00 0,00 2.007,28 10.733,94 31/12/2020
285 462500 ANDREZA APARECIDA COSTA E SILVA ANALISTA DO MP CONSELHEIRO LAFAIETE - COMARCA; CONSELHEIRO LAFAIETE-PJ-02PJ 10.069,62 2.013,92 0,00 2.478,24 0,00 0,00 0,00 1.550,00 16.111,78 1.362,94 2.078,80 0,00 0,00 3.441,74 12.670,04 31/12/2020
286 677700 ANDREZA DE LOURDES FERREIRA DE PAIVA ASSESSOR PROMOTOR JUSTICA ABRE CAMPO - COMARCA; ABRE CAMPO-PJ-01PJ 0,00 0,00 7.187,72 2.934,14 0,00 0,00 0,00 1.550,00 11.671,86 994,11 1.213,66 0,00 0,00 2.207,77 9.464,09 31/12/2020
287 537800 ANDREZZA LUZIA DE OLIVEIRA ALVES ANALISTA DO MP PATOS DE MINAS - COMARCA; COORD REG PJ DEF EDU DIR CRI ADO AL PAR NOROE 9.146,93 914,69 0,00 2.687,71 0,00 0,00 0,00 1.550,00 14.299,33 1.127,14 1.535,48 0,00 0,00 2.662,62 11.636,71 31/12/2020
288 491600 ANE PATRICIA RIBEIRO ANALISTA DO MP SETE LAGOAS - COMARCA; SETE LAGOAS-PJ-11PJ 10.069,62 1.006,96 0,00 4.034,33 0,00 0,00 0,00 1.550,00 16.660,91 1.244,89 1.782,22 0,00 0,00 3.027,11 13.633,80 31/12/2020
289 465800 ANELISE GAMA ASSESSOR BELO HORIZONTE - COMARCA; BH-18PJ VIOLENCIA DOMESTICA-SECRETARIA 0,00 0,00 8.170,49 3.851,08 0,00 0,00 0,00 1.550,00 13.571,57 1.426,18 1.483,92 0,00 0,00 2.910,10 10.661,47 31/12/2020
290 535200 ANELIZE FERNANDA ALVES VILARINHO OFICIAL DO MP CAPINÓPOLIS - COMARCA; CAPINOPOLIS-PJ-UNPJ 5.387,19 538,72 0,00 1.907,17 0,00 0,00 0,00 2.319,39 10.152,47 654,63 580,24 0,00 0,00 1.234,87 8.917,60 31/12/2020
291 197200 ANGELA COELHO SALDANHA OFICIAL DO MP PARÁ DE MINAS - COMARCA; PARA DE MINAS-PJ-03PJ 15.272,02 6.108,81 0,00 4.237,75 0,00 0,00 0,00 1.550,00 27.168,58 2.494,59 4.324,35 0,00 0,00 6.818,94 20.349,64 31/12/2020
292 307400 ANGELA CRISTINA GONCALVES MUNIZ ANALISTA DO MP UBERLÂNDIA - COMARCA; UBERLANDIA-PJ-SEC FAMILIA 17.413,92 6.965,57 0,00 4.831,97 0,00 0,00 0,00 2.319,39 31.530,85 2.869,42 4.993,77 0,00 0,00 7.863,19 23.667,66 31/12/2020
293 191800 ANGELA MARIA DE OLIVEIRA OFICIAL DO MP GUARANÉSIA - COMARCA; GUARANESIA-PJ-SECRETARIA 15.272,02 10.690,41 0,00 4.959,53 8.654,14 0,00 0,00 1.550,00 41.126,10 3.067,30 7.806,69 0,00 0,00 10.873,99 30.252,11 31/12/2020
294 497400 ANGELA MARIA HENRIQUES ANALISTA DO MP BELO HORIZONTE - COMARCA; COORD REG BACIAS RIO VELHAS E PARAOPEBA 10.069,62 1.006,96 0,00 2.478,24 0,00 0,00 0,00 1.550,00 15.104,82 1.244,89 1.834,36 0,00 0,00 3.079,25 12.025,57 31/12/2020
295 260700 ANGELICA CRISTINA AZEVEDO MOREIRA MOUCO OFICIAL DO MP UBÁ - COMARCA; UBA-PJ-05PJ 12.601,30 3.780,39 0,00 3.450,21 0,00 0,00 0,00 1.550,00 21.381,90 1.878,56 3.119,00 0,00 0,00 4.997,56 16.384,34 31/12/2020
296 334600 ANGELICA PANISSA DE FREITAS GALLATI OFICIAL DO MP GUAXUPÉ - COMARCA; GUAXUPE-PJ-02PJ 10.069,62 3.020,89 0,00 3.139,73 0,00 0,00 0,00 2.319,39 18.549,63 1.482,77 2.270,63 0,00 0,00 3.753,40 14.796,23 31/12/2020
297 521100 ANGELICA SALES MOREIRA OFICIAL DO MP BELO HORIZONTE - COMARCA; BH-02PJ FAMILIA-SECRETARIA 7.421,79 742,18 0,00 2.346,96 0,00 0,00 0,00 1.550,00 12.060,93 907,53 1.126,16 0,00 0,00 2.033,69 10.027,24 31/12/2020
298 466500 ANGELLO MARQUES AGRELLI ANALISTA DO MP MAR DE ESPANHA - COMARCA; MAR DE ESPANHA-PJ-UNPJ 10.069,62 2.013,92 0,00 2.478,24 0,00 0,00 0,00 1.550,00 16.111,78 1.362,94 2.078,80 0,00 0,00 3.441,74 12.670,04 31/12/2020
299 363300 ANGELO VERDOLIN HENRIQUES ANALISTA DO MP SETE LAGOAS - COMARCA; SETE LAGOAS-PJ-04PJ 15.272,02 6.108,81 0,00 7.475,96 0,00 0,00 0,00 2.319,39 31.176,18 2.494,59 4.324,35 0,00 0,00 6.818,94 24.357,24 31/12/2020
300 250900 ANISIO APARECIDO SANTOS OFICIAL DO MP MARIANA - COMARCA; MARIANA-PJ-02PJ 6.123,79 2.449,52 0,00 2.755,61 0,00 0,00 0,00 1.550,00 12.878,92 954,50 585,51 0,00 0,00 1.540,01 11.338,91 31/12/2020
301 651200 ANITA MARIA SANT ANA DE MATTOS FONTES OFICIAL DO MP ERVÁLIA - COMARCA; ERVALIA-PJ-UNPJ 4.817,57 3.372,30 0,00 6.177,60 0,00 0,00 0,00 1.550,00 15.917,47 910,45 1.080,34 0,00 0,00 1.990,79 13.926,68 31/12/2020
302 698100 ANNA CAROLINA POLICARIO BERTOLIN ASSESSOR PROCURADOR JUSTICA BELO HORIZONTE - COMARCA; PROCURADORIA-GERAL DE JUSTICA 0,00 0,00 6.708,54 598,98 0,00 0,00 0,00 1.450,00 8.757,52 713,09 1.054,39 0,00 0,00 1.767,48 6.990,04 31/12/2020
303 253400 ANNA FLAVIA LEHMAN BATTAGLIA ANALISTA DO MP BELO HORIZONTE - COMARCA; CAO-PATRIMONIO PUBLICO 18.103,37 5.431,01 0,00 4.793,69 0,00 0,00 0,00 1.550,00 29.878,07 2.763,79 4.686,14 0,00 0,00 7.449,93 22.428,14 31/12/2020
304 688800 ANNA LUIZA MATTOS DUARTE ASSESSOR PROCURADOR JUSTICA BELO HORIZONTE - COMARCA; GABINETE DE PROCURADOR DE JUSTIÇA - SALA 305 0,00 0,00 7.187,72 1.796,93 0,00 0,00 0,00 1.550,00 10.534,65 859,14 1.213,66 0,00 0,00 2.072,80 8.461,85 31/12/2020
305 447600 ANNGELUCE ALCANTARA DE CAMPOS OFICIAL DO MP DIVINÓPOLIS - COMARCA; DIVINOPOLIS-PJ-SECRETARIA 7.421,79 1.484,36 0,00 2.667,69 0,00 0,00 0,00 1.550,00 13.123,84 993,11 1.306,73 0,00 0,00 2.299,84 10.824,00 31/12/2020
306 119600 ANSELMO BORGES PARREIRAS OFICIAL DO MP BONFIM - COMARCA; BONFIM-PJ-UNPJ 7.912,85 6.330,29 0,00 4.350,73 0,00 2.212,69 0,00 1.550,00 22.356,56 1.619,93 2.995,37 0,00 0,00 4.615,30 17.741,26 31/12/2020
307 630300 ANTONIA GOMES RAMALHO OFICIAL DO MP NOVO CRUZEIRO - COMARCA; NOVO CRUZEIRO-PJ-UNPJ 5.387,19 538,72 0,00 1.802,96 0,00 0,00 0,00 3.088,78 10.817,65 654,63 580,24 0,00 0,00 1.234,87 9.582,78 31/12/2020
308 332400 ANTONIA MARIA MAMEDE OFICIAL DO MP UBERLÂNDIA - COMARCA; COORD REG PP TRIANGULO MINEIRO UBERLANDIA 9.752,14 2.925,64 0,00 5.175,25 0,00 2.005,19 0,00 1.550,00 21.408,22 1.433,66 2.617,03 0,00 0,00 4.050,69 17.357,53 31/12/2020
309 401600 ANTONIO CARLOS GUEDES AROUCA ANALISTA DO MP BELO HORIZONTE - COMARCA; COORD EST DEF DIR FAM PESSOAS DEFICI IDOSOS 11.819,15 2.363,83 0,00 3.103,85 0,00 0,00 0,00 1.550,00 18.836,83 1.612,77 2.587,45 0,00 0,00 4.200,22 14.636,61 31/12/2020
310 333900 ANTONIO GONCALVES DE SOUZA FILHO OFICIAL DO MP BELO HORIZONTE - COMARCA; DIRETORIA DE CONTABILIDADE 9.752,14 2.925,64 0,00 2.870,05 0,00 0,00 0,00 1.550,00 17.097,83 1.433,66 2.222,77 0,00 0,00 3.656,43 13.441,40 31/12/2020
311 176100 ANTONIO MARCELO CAMPOS CAMPANELLA OFICIAL DO MP BELO HORIZONTE - COMARCA; COORD DE GABINETE DO PGJ 15.272,02 7.636,01 0,00 4.483,64 7.636,01 0,00 0,00 1.550,00 36.577,68 2.685,49 6.791,74 0,00 0,00 9.477,23 27.100,45 31/12/2020
312 321001 ANTONIO OLINTO VIEIRA MACHADO ANALISTA DO MP BELO HORIZONTE - COMARCA; CENTRAL DE APOIO TECN-SETOR DE MEIO AMBIENTE 14.324,23 2.864,85 0,00 4.084,70 0,00 0,00 0,00 1.550,00 22.823,78 1.977,07 3.209,67 0,00 0,00 5.186,74 17.637,04 31/12/2020
313 356200 ANTONIO PAULA DA SILVA OFICIAL DO MP JUIZ DE FORA - COMARCA; JUIZ DE FORA-PJ-20PJ 8.579,10 2.573,73 0,00 2.561,58 3.717,61 0,00 0,00 1.550,00 18.982,02 1.253,73 2.875,24 0,00 0,00 4.128,97 14.853,05 31/12/2020
314 119900 ANTONIO RODRIGUES DE PINHO OFICIAL DO MP GUANHÃES - COMARCA; GUANHAES-PJ-01PJ 14.790,66 10.353,46 0,00 17.110,66 0,00 0,00 0,00 2.319,39 44.574,17 2.965,01 5.125,62 0,00 0,00 8.090,63 36.483,54 31/12/2020
315 373300 ANTONIO SERGIO ANANIAS OFICIAL DO MP AIURUOCA - COMARCA; AIURUOCA-PJ-UNPJ 8.579,10 1.715,82 0,00 2.780,77 0,00 0,00 0,00 1.550,00 14.625,69 1.154,21 1.540,06 0,00 0,00 2.694,27 11.931,42 31/12/2020
316 608100 ANTONIO SIDINEY VIEIRA LEMOS ANALISTA DO MP PIRAPORA - COMARCA; PIRAPORA-PJ-01PJ 8.436,53 3.374,61 0,00 2.730,17 0,00 0,00 0,00 1.550,00 16.091,31 1.330,53 2.012,81 0,00 0,00 3.343,34 12.747,97 31/12/2020
317 374700 ANTONIO SILVA NETO OFICIAL DO MP BELO HORIZONTE - COMARCA; GAECO - SECRETARIA 8.858,43 1.771,69 0,00 2.544,12 0,00 0,00 0,00 1.550,00 14.724,24 1.193,09 1.725,82 0,00 0,00 2.918,91 11.805,33 31/12/2020
318 636700 ANTONIUS VITORIANO FERNANDES OFICIAL DO MP BELO HORIZONTE - COMARCA; ASSESSORIA JURIDICA DO PROCON-MG 4.817,57 481,76 0,00 4.288,75 0,00 0,00 0,00 1.550,00 11.138,08 635,30 427,41 0,00 0,00 1.062,71 10.075,37 31/12/2020
319 413200 ANY PEREIRA SILVA ANALISTA DO MP TRÊS PONTAS - COMARCA; TRES PONTAS-PJ-01PJ 12.601,30 2.520,26 0,00 3.251,70 0,00 0,00 0,00 1.550,00 19.923,26 1.724,83 2.814,74 0,00 0,00 4.539,57 15.383,69 31/12/2020
320 151401 APARECIDA DE FATIMA MENDES DE ALMEIDA ASSESSOR JUIZ DE FORA - COMARCA; JUIZ DE FORA-PJ-SECRETARIA 0,00 0,00 5.136,32 2.178,67 0,00 0,00 0,00 1.550,00 8.864,99 1.291,12 649,53 0,00 0,00 1.940,65 6.924,34 31/12/2020
321 329300 APARECIDA MARIA MELO DE ASSIS OFICIAL DO MP BELO HORIZONTE - COMARCA; BH-18PJ DIREITOS HUMANOS-SECRETARIA 10.069,62 3.020,89 0,00 2.770,75 0,00 0,00 0,00 1.550,00 17.411,26 1.482,77 2.322,77 0,00 0,00 3.805,54 13.605,72 31/12/2020
322 475300 APARECIDA MARLENE FREIRE ROSA ANALISTA DO MP BELO HORIZONTE - COMARCA; BH-02PJ FAMILIA-SECRETARIA 12.204,02 10.983,62 0,00 7.132,54 0,00 5.993,06 0,00 1.550,00 37.863,24 2.720,45 5.507,24 0,00 0,00 8.227,69 29.635,55 31/12/2020
323 653000 APARECIDA ROSA DE LIMA ASSESSOR BELO HORIZONTE - COMARCA; SECRETARIA PROCESSOS DISCIPES ADMINISTRATIVOS 0,00 0,00 8.170,49 2.903,82 0,00 0,00 0,00 1.550,00 12.624,31 1.426,18 1.483,92 0,00 0,00 2.910,10 9.714,21 31/12/2020
324 354500 APARECIDA VIEIRA DE CARVALHO OFICIAL DO MP BELO HORIZONTE - COMARCA; DIVISÃO DE EDUCAÇÃO PARA O CONSUMO 7.663,37 1.532,67 0,00 2.318,14 0,00 0,00 0,00 1.550,00 13.064,18 1.026,74 1.377,20 0,00 0,00 2.403,94 10.660,24 31/12/2020
325 551000 ARACELES BICALHO FELIX ANALISTA DO MP MANHUAÇU - COMARCA; MANHUACU-PJ-02PJ 9.146,93 914,69 0,00 2.635,57 0,00 0,00 0,00 2.319,39 15.016,58 1.127,14 1.587,62 0,00 0,00 2.714,76 12.301,82 31/12/2020
326 286200 ARACELI MEDRADO DOS SANTOS LIMA OFICIAL DO MP PARACATU - COMARCA; PARACATU-PJ-03PJ 6.123,79 1.837,14 0,00 2.025,68 0,00 0,00 0,00 1.550,00 11.536,61 884,58 1.076,64 0,00 0,00 1.961,22 9.575,39 31/12/2020
327 112200 ARAQUEM AUGUSTO DE MATOS AGENTE DO MP BELO HORIZONTE - COMARCA; BH-23PJ CIVEL-SEC EXP CIVEIS 8.858,43 7.086,74 0,00 6.297,37 0,00 6.862,24 0,00 1.550,00 30.654,78 1.825,31 3.359,15 0,00 0,00 5.184,46 25.470,32 31/12/2020
328 280600 ARDUINO FRATTEZI ANALISTA DO MP BELO HORIZONTE - COMARCA; CENTRAL DE APOIO TECNICO-SETOR CONTABIL 17.413,92 5.224,18 0,00 4.493,73 0,00 0,00 0,00 1.550,00 28.681,83 2.651,75 4.626,89 0,00 0,00 7.278,64 21.403,19 31/12/2020
329 520201 ARIANE DE FATIMA CARVALHO ALMEIDA RODRIGUES ANALISTA DO MP VESPASIANO - COMARCA; VESPASIANO-PJ-04PJ 8.436,53 843,65 0,00 3.569,14 0,00 0,00 0,00 2.319,39 15.168,71 1.036,50 1.241,24 0,00 0,00 2.277,74 12.890,97 31/12/2020
330 537600 ARIELA FREIRE MONTIJO ANALISTA DO MP ARCOS - COMARCA; ARCOS-PJ-01PJ 9.146,93 914,69 0,00 2.739,84 0,00 0,00 0,00 2.319,39 15.120,85 1.127,14 1.483,35 0,00 0,00 2.610,49 12.510,36 31/12/2020
331 182000 ARILSON ALEXANDRE MARTINS MAGALHAES OFICIAL DO MP JOÃO MONLEVADE - COMARCA; JOAO MONLEVADE-PJ-01PJ 14.790,66 7.395,33 0,00 4.573,28 0,00 0,00 0,00 3.088,78 29.848,05 2.595,24 4.309,55 0,00 0,00 6.904,79 22.943,26 31/12/2020
332 511000 ARISLANE CAROLINA DA SILVA ANALISTA DO MP CAMPINA VERDE - COMARCA; CAMPINA VERDE-PJ-UNPJ 10.069,62 1.006,96 0,00 2.478,24 3.692,19 0,00 0,00 3.088,78 20.335,79 1.244,89 2.849,71 0,00 0,00 4.094,60 16.241,19 31/12/2020
333 170000 ARLEY BRITES DA SILVA ASSESSOR BELO HORIZONTE - COMARCA; BH-14PJ DEFESA CONSUMIDOR-SECRETARIA 0,00 2.054,53 5.136,32 2.839,81 0,00 0,00 0,00 1.550,00 11.580,66 1.426,18 586,03 0,00 0,00 2.012,21 9.568,45 31/12/2020
334 120400 ARLINDO CASSIO DA CRUZ OFICIAL DO MP SÃO GONÇALO DO SAPUCAÍ - COMARCA; SAO GONCALO DO SAPUCAI-PJ-01PJ 18.820,14 15.056,11 0,00 8.595,79 0,00 4.056,52 0,00 1.550,00 48.078,56 4.056,52 8.342,33 0,00 0,00 12.398,85 35.679,71 31/12/2020
335 243700 ARLINDO MARCIO LACERDA OFICIAL DO MP CONTAGEM - COMARCA; CONTAGEM-PJ-SECRETARIA 12.601,30 5.040,52 0,00 3.973,94 0,00 0,00 1.445,27 1.550,00 24.611,03 2.032,30 3.820,71 0,00 0,00 5.853,01 18.758,02 31/12/2020
336 392100 ARNALDO DE ANDRADE OFICIAL DO MP DIVINÓPOLIS - COMARCA; DIVINOPOLIS-PJ-02PJ 8.858,43 1.771,69 0,00 2.921,44 0,00 0,00 1.445,27 2.319,39 17.316,22 1.193,09 2.071,14 0,00 0,00 3.264,23 14.051,99 31/12/2020
337 642400 ARTANE INARDE DE SIQUEIRA DAMASCENO ANALISTA DO MP BELO HORIZONTE - COMARCA; PROC JUST RECURSOS ESP E EXTRAORD CRIMINAIS 8.170,49 490,23 0,00 2.728,27 0,00 0,00 0,00 2.319,39 13.708,38 674,42 1.326,87 0,00 0,00 2.001,29 11.707,09 31/12/2020
338 302100 AUGUSTO ROUSSEAU DE CASTRO ANALISTA DO MP CATAGUASES - COMARCA; CATAGUASES-PJ-02PJ 18.820,14 5.646,04 0,00 5.435,44 0,00 0,00 0,00 1.550,00 31.451,62 2.880,27 5.066,77 0,00 0,00 7.947,04 23.504,58 31/12/2020
339 540200 AUREA AVELAR BITTENCOURT OFICIAL DO MP BELO HORIZONTE - COMARCA; GRUPO ESP PROM JUST DEF PROB ADM PAT PUB 5.387,19 538,72 0,00 2.011,45 0,00 0,00 0,00 1.550,00 9.487,36 654,63 475,97 0,00 0,00 1.130,60 8.356,76 31/12/2020
340 183200 AURELIANO MAGELA DE REZENDE COORDENADOR/OFICIAL BELO HORIZONTE - COMARCA; COORD DE GABINETE DO PGJ 15.499,20 6.199,68 2.687,03 5.267,23 8.128,64 0,00 0,00 1.550,00 39.331,78 2.534,35 7.375,19 0,00 0,00 9.909,54 29.422,24 31/12/2020
341 629400 AYESKA DA COSTA VAL MOURA DABIEN OFICIAL DO MP BELO HORIZONTE - COMARCA; SUPERINTENDENCIA DE RECURSOS HUMANOS 5.387,19 538,72 0,00 1.802,96 0,00 0,00 0,00 1.550,00 9.278,87 654,63 580,24 0,00 0,00 1.234,87 8.044,00 31/12/2020
342 691900 BARBARA COUTINHO REIS ASSESSOR PROCURADOR JUSTICA BELO HORIZONTE - COMARCA; GABINETE DE PROCURADOR DE JUSTIÇA - SALA 912 0,00 0,00 7.187,72 1.197,95 0,00 0,00 0,00 1.550,00 9.935,67 805,23 1.213,66 0,00 0,00 2.018,89 7.916,78 31/12/2020
343 692200 BARBARA CRISTINA MENDES BANDEIRA DE MELO ASSESSOR PROCURADOR JUSTICA BELO HORIZONTE - COMARCA; GABINETE DE PROCURADOR DE JUSTIÇA - SALA 1009 0,00 0,00 7.187,72 1.197,95 0,00 0,00 0,00 1.550,00 9.935,67 805,23 1.213,66 0,00 0,00 2.018,89 7.916,78 31/12/2020
344 652800 BARBARA JULIANNE MOREIRA CASTRO ASSESSOR BELO HORIZONTE - COMARCA; ASSESS TECNICO-JUR JUNTO AS PROC. DE JUST 0,00 0,00 8.170,49 2.903,82 0,00 0,00 0,00 1.550,00 12.624,31 1.426,18 1.483,92 0,00 0,00 2.910,10 9.714,21 31/12/2020
345 663600 BARBARA REGINA PEREIRA DE PINHO MAGALHAES ASSESSOR BELO HORIZONTE - COMARCA; CAO-DH CONT EXT ATIV POLIC E AP COMUNIT-REC 0,00 0,00 8.170,49 3.851,08 0,00 0,00 0,00 1.550,00 13.571,57 1.426,18 1.483,92 0,00 0,00 2.910,10 10.661,47 31/12/2020
346 692400 BARBARA SOUZA OLIVEIRA ASSESSOR PROMOTOR JUSTICA DIVINO - COMARCA; DIVINO-PJ-UNPJ 0,00 0,00 7.187,72 1.197,95 0,00 0,00 0,00 1.550,00 9.935,67 805,23 1.213,66 0,00 0,00 2.018,89 7.916,78 31/12/2020
347 546500 BARBARA ZACARONI GOULART OFICIAL DO MP BETIM - COMARCA; BETIM-PJ-08PJ 5.387,19 538,72 0,00 2.443,06 0,00 0,00 0,00 1.550,00 9.918,97 654,63 580,24 0,00 0,00 1.234,87 8.684,10 31/12/2020
348 316500 BEATRIZ ABILVIA DA SILVA ANALISTA DO MP GOVERNADOR VALADARES - COMARCA; GOVERNADOR VALADARES-PJ-07PJ 16.750,82 5.025,25 0,00 4.782,08 0,00 0,00 0,00 1.550,00 28.108,15 2.544,00 4.419,46 0,00 0,00 6.963,46 21.144,69 31/12/2020
349 311800 BEATRIZ APARECIDA SOARES GANEM OFICIAL DO MP ITAMBACURI - COMARCA; ITAMBACURI-PJ-02PJ 10.069,62 3.020,89 0,00 2.927,16 0,00 0,00 0,00 1.550,00 17.567,67 1.482,77 2.166,36 0,00 0,00 3.649,13 13.918,54 31/12/2020
350 266800 BEATRIZ AUGUSTA VILACA GOMES DE HUBER OFICIAL DO MP BELO HORIZONTE - COMARCA; BH-05PJ-JUÍZO SUCESSÕES-SEC 9.146,93 2.744,08 0,00 8.500,77 0,00 0,00 0,00 1.550,00 21.941,78 1.340,03 2.032,16 0,00 0,00 3.372,19 18.569,59 31/12/2020
351 235200 BEATRIZ BOTELHO BATISTA OFICIAL DO MP BELO HORIZONTE - COMARCA; BH-21PJ TUTELA FUNDACOES-SECRETARIA 10.069,62 4.027,85 0,00 2.917,01 0,00 0,00 0,00 1.550,00 18.564,48 1.602,60 2.566,73 0,00 0,00 4.169,33 14.395,15 31/12/2020
352 182300 BEATRIZ PAULA SOUSA RAMOS OFICIAL DO MP MARIANA - COMARCA; MARIANA-PJ-01PJ 14.790,66 7.395,33 0,00 15.160,05 0,00 0,00 0,00 1.550,00 38.896,04 2.595,24 4.465,96 0,00 0,00 7.061,20 31.834,84 31/12/2020
353 507000 BELCHIOR FRANKLIN AMARAL LEITE ANALISTA DO MP BELO HORIZONTE - COMARCA; CENTRAL DE APOIO TECNICO 10.069,62 1.006,96 0,00 4.086,47 0,00 0,00 0,00 2.319,39 17.482,44 1.244,89 1.677,94 0,00 0,00 2.922,83 14.559,61 31/12/2020
354 345100 BENITO ELIAS RODRIGUES ANALISTA DO MP BARBACENA - COMARCA; BARBACENA - SECRETARIA DAS PJS CRIMINAIS 15.272,02 3.054,40 0,00 3.756,54 0,00 0,00 0,00 1.550,00 23.632,96 2.115,82 3.588,55 0,00 0,00 5.704,37 17.928,59 31/12/2020
355 207300 BENITO VIEIRA DOS SANTOS ANALISTA DO MP BELO HORIZONTE - COMARCA; COMB CRIMES PRAT POR AG POL MUN-ASSESSORIA 18.820,14 7.528,06 0,00 8.558,26 0,00 3.115,51 0,00 1.550,00 39.571,97 3.115,51 5.167,94 0,00 0,00 8.283,45 31.288,52 31/12/2020
356 480200 BERNADETE NUNES DOS SANTOS ANALISTA DO MP GUANHÃES - COMARCA; GUANHAES-PJ-02PJ 10.069,62 3.020,89 0,00 4.658,00 0,00 0,00 0,00 1.550,00 19.298,51 1.482,77 2.322,77 0,00 0,00 3.805,54 15.492,97 31/12/2020
357 378400 BETANIA FARNESI DE SOUZA E SILVA OFICIAL DO MP SETE LAGOAS - COMARCA; SETE LAGOAS-PJ-SEC CRIMINAIS 8.858,43 3.543,37 0,00 2.875,37 0,00 0,00 0,00 1.550,00 16.827,17 1.400,81 2.103,78 0,00 0,00 3.504,59 13.322,58 31/12/2020
358 387400 BETANIA MENDONCA DE ASSIS CARVALHO ANALISTA DO MP JUIZ DE FORA - COMARCA; JUIZ DE FORA-PJ-03PJ 14.324,23 2.864,85 0,00 4.032,56 0,00 0,00 0,00 2.319,39 23.541,03 1.977,07 3.261,81 0,00 0,00 5.238,88 18.302,15 31/12/2020
359 450300 BIANCA OLIVEIRA DE ALBUQUERQUE ANALISTA DO MP BELO HORIZONTE - COMARCA; BH-10PJ EXECUÇÃO PENAL-SECRETARIA 10.069,62 2.013,92 0,00 2.624,49 0,00 0,00 0,00 1.550,00 16.258,03 1.362,94 2.078,80 0,00 0,00 3.441,74 12.816,29 31/12/2020
360 535400 BIANCA SALOTO ROSSI ANALISTA DO MP SANTOS DUMONT - COMARCA; SANTOS DUMONT-PJ-01PJ 9.146,93 914,69 0,00 2.635,57 0,00 0,00 0,00 2.421,98 15.119,17 1.127,14 1.587,62 0,00 0,00 2.714,76 12.404,41 31/12/2020
361 120800 BRAS MARQUES DE SOUZA ANALISTA DO MP BELO HORIZONTE - COMARCA; SUPERINTENDENCIA DE GESTAO ADMINISTRATIVA 23.757,25 19.005,81 0,00 8.952,63 0,00 4.254,77 0,00 1.550,00 57.520,46 4.254,77 8.778,48 7.300,84 0,00 20.334,09 37.186,37 31/12/2020
362 460900 BRENO CRISTIANO DE SOUZA REZENDE ANALISTA DO MP ITAÚNA - COMARCA; ITAUNA-PJ-02PJ 9.752,14 1.950,43 0,00 2.559,39 0,00 0,00 0,00 1.550,00 15.811,96 1.317,61 1.986,50 0,00 0,00 3.304,11 12.507,85 31/12/2020
363 239000 BRENO VENANCIO ROMANINI OFICIAL DO MP BELO HORIZONTE - COMARCA; BH-20PJ ORD ECON TRIBUTARIA-SECRETARIA 10.069,62 3.020,89 0,00 9.316,01 0,00 0,00 0,00 1.550,00 23.956,52 1.482,77 2.322,77 0,00 0,00 3.805,54 20.150,98 31/12/2020
364 202201 BRIGITTE AMARALINA DE CALDAS LIMA OFICIAL DO MP NANUQUE - COMARCA; NANUQUE-PJ-03PJ 10.069,62 4.027,85 0,00 3.177,70 0,00 0,00 0,00 1.550,00 18.825,17 1.602,60 2.306,04 0,00 0,00 3.908,64 14.916,53 31/12/2020
365 642300 BRUNA IZABELITA DE FATIMA OLIVEIRA COSTA OFICIAL DO MP BELO HORIZONTE - COMARCA; BH-02PJ FAMILIA-SECRETARIA 5.217,34 521,73 0,00 4.391,23 0,00 0,00 0,00 1.550,00 11.680,30 633,52 534,67 0,00 0,00 1.168,19 10.512,11 31/12/2020
366 513600 BRUNA KARLA MARTINS CARVALHO ANALISTA DO MP GOVERNADOR VALADARES - COMARCA; GOVERNADOR VALADARES-PJ-14PJ 10.069,62 1.006,96 0,00 2.478,24 0,00 0,00 0,00 1.550,00 15.104,82 1.244,89 1.834,36 0,00 0,00 3.079,25 12.025,57 31/12/2020
367 415100 BRUNA MARIA SOARES OLIVEIRA COSTA RAMOS ANALISTA DO MP UBÁ - COMARCA; COORD REG BACIA DO RIO PARAIBA DO SUL 13.011,52 2.602,30 0,00 5.576,76 5.204,61 0,00 0,00 1.550,00 27.945,19 1.784,88 4.364,87 0,00 0,00 6.149,75 21.795,44 31/12/2020
368 692900 BRUNA MENDES COELHO ASSESSOR PROCURADOR JUSTICA BELO HORIZONTE - COMARCA; GABINETE DE PROCURADOR DE JUSTIÇA - SALA 801 0,00 0,00 7.187,72 1.197,95 0,00 0,00 0,00 1.550,00 9.935,67 805,23 1.213,66 0,00 0,00 2.018,89 7.916,78 31/12/2020
369 470000 BRUNA MORAES ANALISTA DO MP TOMBOS - COMARCA; TOMBOS-PJ-UNPJ 12.204,02 2.440,80 0,00 3.455,49 0,00 0,00 0,00 1.550,00 19.650,31 1.667,73 2.542,93 0,00 0,00 4.210,66 15.439,65 31/12/2020
370 614700 BRUNA NATTANY DE LIMA OFICIAL DO MP MANTENA - COMARCA; MANTENA-PJ-01PJ 5.387,19 538,72 0,00 1.802,96 0,00 0,00 0,00 1.550,00 9.278,87 654,63 580,24 0,00 0,00 1.234,87 8.044,00 31/12/2020
371 693300 BRUNA RAMONY ROCHA DA CRUZ ASSESSOR PROMOTOR JUSTICA JAIBA - COMARCA; JAIBA-PJ-UNPJ 0,00 0,00 7.187,72 1.197,95 0,00 0,00 0,00 1.550,00 9.935,67 805,23 1.213,66 0,00 0,00 2.018,89 7.916,78 31/12/2020
372 631800 BRUNA RAPOSO JORGE OFICIAL DO MP JUIZ DE FORA - COMARCA; JUIZ DE FORA-PJ-06PJ 5.387,19 538,72 0,00 1.803,71 0,00 0,00 0,00 1.550,00 9.279,62 654,63 580,24 0,00 0,00 1.234,87 8.044,75 31/12/2020
373 697400 BRUNA SILVA SANTOS ASSESSOR PROMOTOR JUSTICA TIMÓTEO - COMARCA; TIMOTEO-PJ-04PJ 0,00 0,00 6.708,54 598,98 0,00 0,00 0,00 1.450,00 8.757,52 713,09 1.054,39 0,00 0,00 1.767,48 6.990,04 31/12/2020
374 699300 BRUNA URSINE TIMO ASSESSOR PROCURADOR JUSTICA BELO HORIZONTE - COMARCA; COMB CRIMES PRAT POR AG POL MUN-ASSESSORIA 0,00 0,00 6.708,54 598,98 0,00 0,00 0,00 1.450,00 8.757,52 713,09 1.054,39 0,00 0,00 1.767,48 6.990,04 31/12/2020
375 463800 BRUNO ALVES TEIXEIRA ANALISTA DO MP UBERLÂNDIA - COMARCA; UBERLANDIA-PJ-04PJ 10.069,62 2.013,92 0,00 2.478,24 0,00 0,00 0,00 1.550,00 16.111,78 1.362,94 2.078,80 0,00 0,00 3.441,74 12.670,04 31/12/2020
376 538500 BRUNO AUGUSTO DA SILVA OFICIAL DO MP SANTA LUZIA - COMARCA; SANTA LUZIA-PJ-03PJ 5.930,75 593,08 0,00 5.013,09 0,00 0,00 0,00 1.550,00 13.086,92 722,19 726,09 0,00 0,00 1.448,28 11.638,64 31/12/2020
377 318200 BRUNO BARROS DE SOUZA OFICIAL DO MP UBÁ - COMARCA; UBA-PJ-04PJ 10.069,62 3.020,89 0,00 3.263,61 0,00 0,00 0,00 1.550,00 17.904,12 1.482,77 1.831,19 0,00 0,00 3.313,96 14.590,16 31/12/2020
378 459600 BRUNO CASTELAR LUGAO MENDES OFICIAL DO MP GOVERNADOR VALADARES - COMARCA; GOVERNADOR VALADARES-PJ-01PJ 7.912,85 1.582,57 0,00 6.455,51 0,00 0,00 0,00 1.550,00 17.500,93 1.061,47 1.449,98 0,00 0,00 2.511,45 14.989,48 31/12/2020
379 427400 BRUNO CESAR RIBEIRO DE PAIVA ANALISTA DO MP BELO HORIZONTE - COMARCA; ASSESS JUR DO CONS SUPERIOR DO MINISTERIO PUB 13.011,52 2.602,30 0,00 3.329,25 0,00 0,00 0,00 1.550,00 20.493,07 1.784,88 2.933,60 0,00 0,00 4.718,48 15.774,59 31/12/2020
380 380900 BRUNO CIRILO ANTUNES OFICIAL DO MP VARGINHA - COMARCA; VARGINHA-PJ-05PJ 8.579,10 1.715,82 0,00 2.431,42 0,00 0,00 0,00 1.550,00 14.276,34 1.154,21 1.644,34 0,00 0,00 2.798,55 11.477,79 31/12/2020
381 329000 BRUNO DE MELO REIS ANALISTA DO MP PATROCÍNIO - COMARCA; PATROCINIO-PJ-02PJ 16.750,82 5.025,25 0,00 4.886,35 0,00 0,00 0,00 3.088,78 29.751,20 2.544,00 4.315,19 0,00 0,00 6.859,19 22.892,01 31/12/2020
382 697800 BRUNO GAZZOLA BEZERRA FALCAO ASSESSOR PROCURADOR JUSTICA BELO HORIZONTE - COMARCA; GABINETE DE PROCURADOR DE JUSTIÇA - SALA 908 0,00 0,00 6.708,54 598,98 0,00 0,00 0,00 1.450,00 8.757,52 713,09 1.054,39 0,00 0,00 1.767,48 6.990,04 31/12/2020
383 378300 BRUNO HERDY LOPES DE OLIVEIRA ANALISTA DO MP GOVERNADOR VALADARES - COMARCA; GOVERNADOR VALADARES-PJ-03PJ 14.324,23 2.864,85 0,00 3.980,42 0,00 0,00 0,00 1.550,00 22.719,50 1.977,07 3.313,94 0,00 0,00 5.291,01 17.428,49 31/12/2020
384 529700 BRUNO JOSE BUENO DIAS OFICIAL DO MP SÃO SEBASTIÃO DO PARAÍSO - COMARCA; SAO SEBASTIAO DO PARAISO-PJ-02PJ 5.930,75 593,08 0,00 2.102,27 0,00 0,00 0,00 1.550,00 10.176,10 722,19 673,95 0,00 0,00 1.396,14 8.779,96 31/12/2020
385 691600 BRUNO JOSE RIBEIRO ASSESSOR PROMOTOR JUSTICA CLÁUDIO - COMARCA; CLAUDIO-PJ-UNPJ 0,00 0,00 7.187,72 1.197,95 0,00 0,00 0,00 1.550,00 9.935,67 805,23 1.213,66 0,00 0,00 2.018,89 7.916,78 31/12/2020
386 350100 BRUNO LAUD SERRANO DOS REIS OFICIAL DO MP UBÁ - COMARCA; UBA-PJ-02PJ 9.444,70 2.833,41 0,00 3.143,75 0,00 0,00 0,00 1.550,00 16.971,86 1.386,09 2.073,81 0,00 0,00 3.459,90 13.511,96 31/12/2020
387 373800 BRUNO MARTINO DE ALBUQUERQUE ANALISTA DO MP PONTE NOVA - COMARCA; PONTE NOVA-PJ-03PJ 14.324,23 2.864,85 0,00 4.084,70 0,00 0,00 0,00 1.550,00 22.823,78 1.977,07 3.209,67 0,00 0,00 5.186,74 17.637,04 31/12/2020
388 470400 BRUNO NOVAIS CABRAL ANALISTA DO MP MUTUM - COMARCA; MUTUM-PJ-UNPJ 10.069,62 2.013,92 0,00 2.582,51 0,00 0,00 0,00 2.319,39 16.985,44 1.362,94 1.974,53 0,00 0,00 3.337,47 13.647,97 31/12/2020
389 648600 BRUNO RIBEIRO E MELO ASSESSOR BELO HORIZONTE - COMARCA; CENTRO CERIMONIAL 0,00 0,00 8.170,49 2.903,82 0,00 0,00 0,00 1.550,00 12.624,31 1.426,18 1.483,92 0,00 0,00 2.910,10 9.714,21 31/12/2020
390 369200 BRUNO ROBERTO DIAS DE OLIVEIRA OFICIAL DO MP BELO HORIZONTE - COMARCA; BH-22PJ PES COM DEF E IDOSOS-SECRETARIA 9.146,93 1.829,39 0,00 2.598,69 0,00 0,00 0,00 1.550,00 15.125,01 1.233,26 1.809,98 0,00 0,00 3.043,24 12.081,77 31/12/2020
391 547700 BRUNO ROBERTO SOUZA GONCALVES ANALISTA DO MP PARACATU - COMARCA; PARACATU-PJ-03PJ 9.146,93 914,69 0,00 2.635,57 0,00 0,00 0,00 3.088,78 15.785,97 1.127,14 1.587,62 0,00 0,00 2.714,76 13.071,21 31/12/2020
392 546100 BRUNO SA VIEIRA ANALISTA DO MP CORONEL FABRICIANO - COMARCA; CORONEL FABRICIANO-PJ-03PJ 9.146,93 914,69 0,00 2.687,71 0,00 0,00 0,00 1.550,00 14.299,33 1.127,14 1.535,48 0,00 0,00 2.662,62 11.636,71 31/12/2020
393 438200 BRUNO SALES PEREIRA ANALISTA DO MP BELO HORIZONTE - COMARCA; CENTRAL DE APOIO TECNICO-SETOR CONTABIL 12.204,02 2.440,80 0,00 3.572,09 0,00 0,00 0,00 2.319,39 20.536,30 1.667,73 2.647,20 0,00 0,00 4.314,93 16.221,37 31/12/2020
394 537400 BRUNO SANT'ANA CESAR ANALISTA DO MP CONTAGEM - COMARCA; CONTAGEM-PJ-21PJ 9.146,93 914,69 0,00 2.635,57 0,00 0,00 0,00 1.550,00 14.247,19 1.127,14 1.587,62 0,00 0,00 2.714,76 11.532,43 31/12/2020
395 679000 BRUNO WILLIANS PAULINO DE MELLO ASSESSOR PROCURADOR JUSTICA BELO HORIZONTE - COMARCA; GABINETE DE PROCURADOR DE JUSTIÇA - SALA 1006 0,00 0,00 7.187,72 2.934,14 0,00 0,00 0,00 1.550,00 11.671,86 994,11 1.213,66 0,00 0,00 2.207,77 9.464,09 31/12/2020
396 405800 CAIO FERNANDO RODRIGUES DE OLIVEIRA ANALISTA DO MP BELO HORIZONTE - COMARCA; GABINETE DE PROCURADOR DE JUSTIÇA - SALA 805 13.011,52 2.602,30 0,00 3.329,25 0,00 0,00 0,00 1.550,00 20.493,07 1.784,88 2.933,60 0,00 0,00 4.718,48 15.774,59 31/12/2020
397 530000 CAIO GUEDES DE OLIVEIRA ANALISTA DO MP DIAMANTINA - COMARCA; DIAMANTINA-PJ-02PJ 10.069,62 1.006,96 0,00 4.416,29 3.692,19 0,00 0,00 2.319,39 21.504,45 1.244,89 2.797,57 0,00 0,00 4.042,46 17.461,99 31/12/2020
398 491400 CAIO MIRANDA JUNQUEIRA ANALISTA DO MP BUENO BRANDAO - COMARCA; BUENO BRANDAO-PJ-UNPJ 10.069,62 1.006,96 0,00 2.850,59 3.692,19 0,00 0,00 2.319,39 19.938,75 1.244,89 2.745,43 0,00 0,00 3.990,32 15.948,43 31/12/2020
399 415800 CAMILA ALVES DA SILVA ANALISTA DO MP CAETÉ - COMARCA; CAETE-PJ-01PJ 13.011,52 2.602,30 0,00 3.329,25 0,00 0,00 0,00 1.550,00 20.493,07 1.784,88 2.933,60 0,00 0,00 4.718,48 15.774,59 31/12/2020
400 555800 CAMILA CAROLINE ROCHA CHAVES OFICIAL DO MP SALINAS - COMARCA; SALINAS-PJ-01PJ 5.930,75 593,08 0,00 2.666,57 0,00 0,00 0,00 1.550,00 10.740,40 722,19 726,09 0,00 0,00 1.448,28 9.292,12 31/12/2020
401 445200 CAMILA CONDE ROCHA ANALISTA DO MP CONTAGEM - COMARCA; CONTAGEM-PJ-08PJ 10.069,62 2.013,92 0,00 2.624,49 0,00 0,00 0,00 2.319,39 17.027,42 1.362,94 2.078,80 0,00 0,00 3.441,74 13.585,68 31/12/2020
402 419900 CAMILA CUNNINGHAM PIMENTA DE PADUA ANALISTA DO MP BELO HORIZONTE - COMARCA; ASSESSORIA PSICOSSOCIAL 13.011,52 2.602,30 0,00 3.329,25 0,00 0,00 0,00 1.550,00 20.493,07 1.784,88 2.933,60 0,00 0,00 4.718,48 15.774,59 31/12/2020
403 507700 CAMILA ELIZABETH RODRIGUES ANALISTA DO MP BELO HORIZONTE - COMARCA; BH-02PJ FAMILIA-SECRETARIA 10.736,08 1.073,61 0,00 2.729,95 0,00 0,00 0,00 1.550,00 16.089,64 1.330,36 2.012,46 0,00 0,00 3.342,82 12.746,82 31/12/2020
404 372700 CAMILA FONSECA LIMONGE ANALISTA DO MP BETIM - COMARCA; BETIM-PJ-01PJ 14.324,23 2.864,85 0,00 3.980,42 0,00 0,00 0,00 2.319,39 23.488,89 1.977,07 3.313,94 0,00 0,00 5.291,01 18.197,88 31/12/2020
405 621300 CAMILA GOLFETO DE SOUSA VALENTE OFICIAL DO MP ESPERA FELIZ - COMARCA; ESPERA FELIZ-PJ-UNPJ 5.387,19 538,72 0,00 2.467,61 0,00 0,00 0,00 2.703,54 11.097,06 654,63 423,83 0,00 0,00 1.078,46 10.018,60 31/12/2020
406 409800 CAMILA GONCALVES COSTA RIBEIRO ANALISTA DO MP INHAPIM - COMARCA; INHAPIM-PJ-02PJ 10.069,62 2.013,92 0,00 2.676,63 4.027,85 0,00 0,00 2.319,39 21.107,41 1.362,94 3.134,33 0,00 0,00 4.497,27 16.610,14 31/12/2020
407 335000 CAMILA GONTIJO DE PAIVA ANALISTA DO MP BELO HORIZONTE - COMARCA; COORD DE CONTROLE DA CONSTITUCIONALIDADE 16.112,82 4.833,85 0,00 13.316,65 0,00 0,00 0,00 1.550,00 35.813,32 2.440,32 4.167,75 0,00 0,00 6.608,07 29.205,25 31/12/2020
408 693400 CAMILA HECKSHER MONTEIRO ASSESSOR PROCURADOR JUSTICA BELO HORIZONTE - COMARCA; GABINETE DE PROCURADOR DE JUSTIÇA - SALA 613 0,00 0,00 7.187,72 1.197,95 0,00 0,00 0,00 1.550,00 9.935,67 805,23 1.213,66 0,00 0,00 2.018,89 7.916,78 31/12/2020
409 696000 CAMILA IMACULADA OLIVEIRA ASSESSOR PROCURADOR JUSTICA BELO HORIZONTE - COMARCA; GABINETE DE PROCURADOR DE JUSTIÇA - SALA 804 0,00 0,00 6.708,54 598,98 0,00 0,00 0,00 1.450,00 8.757,52 713,09 1.054,39 0,00 0,00 1.767,48 6.990,04 31/12/2020
410 547800 CAMILA MATTARELLI DE ABREU E SILVA ANALISTA DO MP BELO HORIZONTE - COMARCA; CAO-VIOLENCIA DOMESTICA E FAMILIAR 9.146,93 914,69 0,00 2.635,57 0,00 0,00 0,00 1.550,00 14.247,19 1.127,14 1.587,62 0,00 0,00 2.714,76 11.532,43 31/12/2020
411 430000 CANDIDA MARINA COSTA ANALISTA DO MP BELO HORIZONTE - COMARCA; DIVISAO DE DOCUMENTACAO JURIDICA 13.011,52 2.602,30 0,00 3.329,25 0,00 0,00 0,00 1.550,00 20.493,07 1.784,88 2.933,60 0,00 0,00 4.718,48 15.774,59 31/12/2020
412 614300 CARINA CORTIELHA OFICIAL DO MP BELO HORIZONTE - COMARCA; BH-23PJ CIVEL-SEC EXP CIVEIS 4.974,42 497,44 0,00 2.236,73 0,00 0,00 0,00 1.550,00 9.258,59 603,32 458,42 0,00 0,00 1.061,74 8.196,85 31/12/2020
413 380400 CARINA DIAS FACANHA DE SOUZA ANALISTA DO MP SANTA RITA DO SAPUCAÍ - COMARCA; SANTA RITA DO SAPUCAI-PJ-SECRETARIA 14.324,23 2.864,85 0,00 3.980,42 0,00 0,00 0,00 1.550,00 22.719,50 1.977,07 3.313,94 0,00 0,00 5.291,01 17.428,49 31/12/2020
414 698300 CARINA ESTEPHANY FAVATO FERREIRA JUSTE ASSESSOR PROCURADOR JUSTICA BELO HORIZONTE - COMARCA; PROCURADORIA-GERAL DE JUSTICA 0,00 0,00 6.708,54 598,98 0,00 0,00 0,00 1.450,00 8.757,52 713,09 1.054,39 0,00 0,00 1.767,48 6.990,04 31/12/2020
415 255000 CARLA ADRIANA DE MENEZES OFICIAL DO MP BELO HORIZONTE - COMARCA; CENT DE APOIO TEC-SETOR DEF,IDOSO E INFANC 10.069,62 3.020,89 0,00 2.770,75 0,00 0,00 0,00 1.550,00 17.411,26 1.482,77 2.322,77 0,00 0,00 3.805,54 13.605,72 31/12/2020
416 425100 CARLA ADRIANA DINIZ AMARAL OFICIAL DO MP CONTAGEM - COMARCA; CONTAGEM-PJ-SECRETARIA 8.579,10 1.715,82 0,00 2.676,50 0,00 0,00 0,00 1.550,00 14.521,42 1.154,21 1.644,34 0,00 0,00 2.798,55 11.722,87 31/12/2020
417 508100 CARLA ALESSANDRA FONSECA ANALISTA DO MP BELO HORIZONTE - COMARCA; CAO-ORDEM ECONOMICA E TRIBUTARIA-SECRETARIA 10.069,62 1.006,96 0,00 8.016,53 0,00 0,00 0,00 1.550,00 20.643,11 1.244,89 1.834,36 0,00 0,00 3.079,25 17.563,86 31/12/2020
418 607100 CARLA ANGELICA DIAS MIRANDA OFICIAL DO MP JABOTICATUBAS - COMARCA; JABOTICATUBAS-PJ-UNPJ 5.930,75 593,08 0,00 2.744,77 0,00 0,00 0,00 1.550,00 10.818,60 722,19 569,68 0,00 0,00 1.291,87 9.526,73 31/12/2020
419 351500 CARLA APARECIDA MENDES RAMIRIO OFICIAL DO MP PASSOS - COMARCA; PASSOS-PJ-01PJ 9.146,93 1.829,39 0,00 2.650,82 0,00 0,00 0,00 1.550,00 15.177,14 1.233,26 1.757,85 0,00 0,00 2.991,11 12.186,03 31/12/2020
420 442800 CARLA GONCALVES COSTA SOALHEIRO ANALISTA DO MP GOVERNADOR VALADARES - COMARCA; GOVERNADOR VALADARES-PJ-11PJ 10.069,62 2.013,92 0,00 2.676,63 4.027,85 0,00 0,00 2.319,39 21.107,41 1.362,94 3.134,33 0,00 0,00 4.497,27 16.610,14 31/12/2020
421 321500 CARLA GONCALVES MASSOTE OFICIAL DO MP CAMPO BELO - COMARCA; CAMPO BELO-PJ-01PJ 10.069,62 3.020,89 0,00 2.770,75 0,00 0,00 0,00 1.550,00 17.411,26 1.482,77 2.322,77 0,00 0,00 3.805,54 13.605,72 31/12/2020
422 429200 CARLA HAUTEQUESTT BECHARA COORDENADOR/ANALISTA BELO HORIZONTE - COMARCA; DIRET DE INFORMACAO E CONHECIMENTO-DINC/CEAF 13.011,52 2.602,30 2.687,03 3.933,82 0,00 0,00 0,00 1.550,00 23.784,67 1.784,88 3.672,53 0,00 0,00 5.457,41 18.327,26 31/12/2020
423 247500 CARLA MATILDE GUIMARAES DE OLIVEIRA OFICIAL DO MP ITAJUBA - COMARCA; ITAJUBA-PJ-SECRETARIA 10.069,62 4.027,85 0,00 2.969,15 0,00 0,00 0,00 1.550,00 18.616,62 1.602,60 2.514,59 0,00 0,00 4.117,19 14.499,43 31/12/2020
424 226100 CARLA MERLI DA CONCEICAO ANALISTA DO MP BELO HORIZONTE - COMARCA; CENTRAL DE APOIO TECNICO-SETOR CONTABIL 18.820,14 5.646,04 0,00 4.475,21 0,00 0,00 0,00 1.550,00 30.491,39 2.880,27 5.014,63 0,00 0,00 7.894,90 22.596,49 31/12/2020
425 181401 CARLO MICHEL GAUDENSI COELHO ANALISTA DO MP BELO HORIZONTE - COMARCA; BH-08PJ JUIZADO ESPECIAL-SECRETARIA 12.601,30 5.040,52 0,00 3.648,74 0,00 0,00 0,00 1.550,00 22.840,56 2.032,30 3.423,26 0,00 0,00 5.455,56 17.385,00 31/12/2020
426 634000 CARLOS ALBERTO AMORMINO TRIGUEIRO ANALISTA DO MP BELO HORIZONTE - COMARCA; DIRET DE APOIO AS PROCURADORIAS DE JUSTICA 8.170,49 817,05 0,00 2.551,42 2.995,85 0,00 0,00 2.319,39 16.854,20 1.002,55 2.098,23 0,00 0,00 3.100,78 13.753,42 31/12/2020
427 637900 CARLOS ALBERTO DE MOURA OFICIAL DO MP SETE LAGOAS - COMARCA; SETE LAGOAS-PJ-07PJ 5.217,34 521,73 0,00 4.624,63 0,00 0,00 0,00 1.550,00 11.913,70 680,13 482,53 0,00 0,00 1.162,66 10.751,04 31/12/2020
428 638700 CARLOS ALBERTO FERREIRA BRAGA ANALISTA DO MP MATOZINHOS - COMARCA; MATOZINHOS-PJ-01PJ 8.170,49 817,05 0,00 3.295,14 0,00 0,00 0,00 1.550,00 13.832,68 674,42 1.312,47 0,00 0,00 1.986,89 11.845,79 31/12/2020
429 375801 CARLOS ALBERTO ROCHA ANALISTA DO MP VARGINHA - COMARCA; GAECO REGIONAL DE VARGINHA 10.069,62 1.006,96 0,00 7.904,88 0,00 0,00 0,00 1.550,00 20.531,46 1.244,89 1.834,36 0,00 0,00 3.079,25 17.452,21 31/12/2020
430 462800 CARLOS ANDREI SOARES FAGUNDES ANALISTA DO MP MONTES CLAROS - COMARCA; MONTES CLAROS-PJ-09PJ 10.069,62 2.013,92 0,00 8.068,66 0,00 0,00 0,00 2.319,39 22.471,59 1.362,94 2.026,67 0,00 0,00 3.389,61 19.081,98 31/12/2020
431 370300 CARLOS AUGUSTO BUENO DIAS ASSESSOR BELO HORIZONTE - COMARCA; SUPERINTENDÊNCIA DE ENGENHARIA E ARQUITETURA 0,00 0,00 10.397,52 4.055,88 0,00 0,00 0,00 1.550,00 16.003,40 1.426,18 1.445,38 0,00 0,00 2.871,56 13.131,84 31/12/2020
432 505100 CARLOS CEZAR CARVALHO ANALISTA DO MP RIBEIRÃO DAS NEVES - COMARCA; RIBEIRAO DAS NEVES-PJ-04PJ 10.069,62 4.027,85 0,00 5.221,04 0,00 0,00 0,00 1.550,00 20.868,51 1.602,60 2.462,46 0,00 0,00 4.065,06 16.803,45 31/12/2020
433 195900 CARLOS DE SOUZA FERREIRA OFICIAL DO MP COROMANDEL - COMARCA; COROMANDEL-PJ-UNPJ 10.069,62 8.055,69 0,00 12.564,72 0,00 0,00 0,00 1.550,00 32.240,03 2.091,29 3.540,00 0,00 0,00 5.631,29 26.608,74 31/12/2020
434 196800 CARLOS EDUARDO DE OLIVEIRA MARINHO OFICIAL DO MP ALPINÓPOLIS - COMARCA; ALPINOPOLIS-PJ-UNPJ 15.272,02 10.690,41 0,00 5.022,26 0,00 0,00 0,00 1.550,00 32.534,69 3.067,30 5.374,66 0,00 0,00 8.441,96 24.092,73 31/12/2020
435 650800 CARLOS EDUARDO NIZA DA SILVA OFICIAL DO MP IGARAPÉ - COMARCA; IGARAPE-PJ-01PJ 4.376,03 262,56 0,00 1.632,07 0,00 0,00 0,00 1.550,00 7.820,66 525,24 250,33 0,00 0,00 775,57 7.045,09 31/12/2020
436 491800 CARLOS EDUARDO ROMAN OFICIAL DO MP BARBACENA - COMARCA; BARBACENA-PJ-09PJ 7.663,37 1.532,67 0,00 2.318,14 0,00 0,00 0,00 1.550,00 13.064,18 1.026,74 1.377,20 0,00 0,00 2.403,94 10.660,24 31/12/2020
437 299300 CARLOS HENRIQUE BICALHO ANALISTA DO MP BELO HORIZONTE - COMARCA; BH-17PJ PATRIMONIO PUBLICO-SECRETARIA 17.413,92 6.965,57 0,00 4.772,53 0,00 0,00 0,00 2.319,39 31.471,41 2.869,42 5.045,91 0,00 0,00 7.915,33 23.556,08 31/12/2020
438 205100 CARLOS HENRIQUE ESTEVES OFICIAL DO MP ITAMBACURI - COMARCA; ITAMBACURI-PJ-01PJ 15.272,02 6.108,81 0,00 4.289,89 0,00 0,00 0,00 1.550,00 27.220,72 2.494,59 4.272,22 0,00 0,00 6.766,81 20.453,91 31/12/2020
439 351600 CARLOS HENRIQUE FELICIO DA FONSECA OFICIAL DO MP JUIZ DE FORA - COMARCA; JUIZ DE FORA-PJ-21PJ 9.752,14 2.925,64 0,00 2.918,81 0,00 0,00 0,00 1.550,00 17.146,59 1.433,66 2.170,64 0,00 0,00 3.604,30 13.542,29 31/12/2020
440 85400 CARLOS JOSE VIEIRA OFICIAL DO MP BELO HORIZONTE - COMARCA; DIRETORIA DO COLEGIO E DA CAMARA DE PJ 23.757,25 19.005,81 0,00 6.020,25 0,00 0,00 0,00 1.550,00 50.333,31 4.254,77 7.712,69 7.300,84 0,00 19.268,30 31.065,01 31/12/2020
441 229100 CARLOS MERCES DE OLIVEIRA ANALISTA DO MP BELO HORIZONTE - COMARCA; CENTRAL DE APOIO TECN-SETOR DE MEIO AMBIENTE 18.820,14 7.528,06 0,00 5.895,55 0,00 0,00 0,00 1.550,00 33.793,75 3.115,51 4.331,08 0,00 0,00 7.446,59 26.347,16 31/12/2020
442 538300 CARLOS RANGEL SILVA DE MELO ANALISTA DO MP BELO HORIZONTE - COMARCA; DIVISAO DE CONTROLE IMOBILIARIO 9.146,93 2.744,08 0,00 4.467,37 0,00 0,00 0,00 2.319,39 18.677,77 1.340,03 2.032,16 0,00 0,00 3.372,19 15.305,58 31/12/2020
443 265100 CARLOS REIFF MIRANDA ANALISTA DO MP BELO HORIZONTE - COMARCA; BH-19PJ SAUDE-SECRETARIA 150PJ 18.820,14 5.646,04 0,00 5.934,42 0,00 0,00 0,00 1.550,00 31.950,60 2.880,27 5.066,77 0,00 0,00 7.947,04 24.003,56 31/12/2020
444 305400 CARLOS ROCHA DE SOUZA OFICIAL DO MP MONTALVÂNIA - COMARCA; MONTALVANIA-PJ-SECRETARIA 6.123,79 1.837,14 0,00 2.234,23 0,00 0,00 0,00 2.282,39 12.477,55 884,58 868,09 0,00 0,00 1.752,67 10.724,88 31/12/2020
445 365100 CARLOS WAGNER SANDER MORAIS COORDENADOR/OFICIAL BELO HORIZONTE - COMARCA; DIRETORIA DE ADMINISTRACAO FINANCEIRA 0,00 2.687,03 13.435,16 4.456,27 0,00 2.171,55 0,00 1.550,00 24.300,01 1.846,91 3.564,24 0,00 324,64 5.735,79 18.564,22 31/12/2020
446 399900 CARMELITA EVANGELISTA DE SOUZA OFICIAL DO MP JOÃO PINHEIRO - COMARCA; JOAO PINHEIRO-PJ-01PJ 7.912,85 1.582,57 0,00 6.963,35 0,00 0,00 0,00 1.550,00 18.008,77 1.061,47 1.449,98 0,00 0,00 2.511,45 15.497,32 31/12/2020
447 202000 CARMEN LUCIA MARIZ DE MACEDO OFICIAL DO MP BELO HORIZONTE - COMARCA; DIRETORIA GESTAO COMPRAS LICITACOES 14.790,66 10.353,47 0,00 4.935,07 8.381,38 0,00 0,00 1.550,00 40.010,58 2.965,01 7.430,50 0,00 0,00 10.395,51 29.615,07 31/12/2020
448 228500 CAROLINA CHIARELLA DOS SANTOS RIBEIRO ASSESSOR/OFICIAL BELO HORIZONTE - COMARCA; PROCURADORIA-GERAL ADJUNTA INSTITUCIONAL 0,00 3.119,26 10.397,52 3.140,26 0,00 0,00 0,00 1.550,00 18.207,04 1.232,23 2.404,62 0,00 0,00 3.636,85 14.570,19 31/12/2020
449 446500 CAROLINA COSTA VAL RODRIGUES ANALISTA DO MP CONTAGEM - COMARCA; CONTAGEM-PJ-05PJ 12.601,30 2.520,26 0,00 3.251,70 0,00 0,00 0,00 1.550,00 19.923,26 1.724,83 2.814,74 0,00 0,00 4.539,57 15.383,69 31/12/2020
450 603501 CAROLINA DOMINGOS BRANDAO RABELLO ANALISTA DO MP BARROSO - COMARCA; BARROSO-PJ-01PJ 9.146,93 914,69 0,00 3.846,96 0,00 0,00 0,00 1.550,00 15.458,58 1.127,14 1.587,62 0,00 0,00 2.714,76 12.743,82 31/12/2020
451 404300 CAROLINA DOS SANTOS VIEIRA ANALISTA DO MP BELO HORIZONTE - COMARCA; BH-08PJ JUIZADO ESPECIAL-SECRETARIA 14.324,23 2.864,85 0,00 4.084,70 0,00 0,00 0,00 1.550,00 22.823,78 1.977,07 3.209,67 0,00 0,00 5.186,74 17.637,04 31/12/2020
452 551200 CAROLINA LOPES ARANTES MASCARENHAS ANALISTA DO MP BELO HORIZONTE - COMARCA; COORD EST DEF DIR FAM PESSOAS DEFICI IDOSOS 9.146,93 914,69 0,00 7.379,93 0,00 0,00 0,00 2.319,39 19.760,94 1.127,14 1.483,35 0,00 0,00 2.610,49 17.150,45 31/12/2020
453 622600 CAROLINA LOREDO LOPES CATIZANI OFICIAL DO MP RIBEIRÃO DAS NEVES - COMARCA; RIBEIRAO DAS NEVES-PJ-12PJ 4.974,42 497,44 0,00 1.731,43 0,00 0,00 0,00 1.550,00 8.753,29 603,32 469,49 0,00 0,00 1.072,81 7.680,48 31/12/2020
454 382200 CAROLINA MENDES CHAVES LIN ANALISTA DO MP BELO HORIZONTE - COMARCA; BH-12PJ JUIZO CRIMINAL-GAB 088PJ 10.069,62 2.013,92 0,00 2.676,63 0,00 0,00 0,00 2.319,39 17.079,56 1.362,94 2.026,67 0,00 0,00 3.389,61 13.689,95 31/12/2020
455 461900 CAROLINA MURTA TEIXEIRA DIAS ASSESSOR/ANALISTA BELO HORIZONTE - COMARCA; PROCURADOR-GERAL DE JUSTIÇA 0,00 2.520,26 12.601,30 3.104,82 0,00 0,00 0,00 1.550,00 19.776,38 1.362,94 2.914,26 0,00 0,00 4.277,20 15.499,18 31/12/2020
456 509600 CAROLINA PINTO DE OLIVEIRA SOUZA ANALISTA DO MP MURIAÉ - COMARCA; MURIAE-PJ-01PJ 10.069,62 1.006,96 0,00 4.086,47 0,00 0,00 0,00 2.319,39 17.482,44 1.244,89 1.677,94 0,00 0,00 2.922,83 14.559,61 31/12/2020
457 629100 CAROLINA RODRIGUES AMARAL ANALISTA DO MP BELO HORIZONTE - COMARCA; PROC. JUSTICA DIR. DIFUSOS E COLETIVOS-SEC 8.436,53 843,65 0,00 2.331,44 0,00 0,00 0,00 1.550,00 13.161,62 1.036,50 1.397,65 0,00 0,00 2.434,15 10.727,47 31/12/2020
458 502600 CAROLINA RODRIGUES RUBEN ANALISTA DO MP BELO HORIZONTE - COMARCA; BH-18PJ VIOLENCIA DOMESTICA-SECRETARIA 10.069,62 1.006,96 0,00 2.582,51 0,00 0,00 0,00 3.088,78 16.747,87 1.244,89 1.730,08 0,00 0,00 2.974,97 13.772,90 31/12/2020
459 529600 CAROLINA VAZ DE MELO MAMBRINI ANALISTA DO MP BELO HORIZONTE - COMARCA; DIVISAO DE MATERIAIS 9.146,93 914,69 0,00 2.635,57 0,00 0,00 293,94 1.550,00 14.541,13 1.127,14 1.587,62 0,00 0,00 2.714,76 11.826,37 31/12/2020
460 619100 CAROLINA ZAKHIA NARDELLI RODRIGUES ANALISTA DO MP NEPOMUCENO - COMARCA; NEPOMUCENO-PJ-UNPJ 8.436,53 843,65 0,00 2.331,44 0,00 0,00 0,00 2.319,39 13.931,01 1.036,50 1.397,65 0,00 0,00 2.434,15 11.496,86 31/12/2020
461 517600 CAROLINE ALVES DE OLIVEIRA MULLER ANALISTA DO MP VISCONDE DO RIO BRANCO - COMARCA; VISCONDE DO RIO BRANCO-PJ-01PJ 10.069,62 1.006,96 0,00 2.530,37 0,00 0,00 0,00 2.319,39 15.926,34 1.244,89 1.782,22 0,00 0,00 3.027,11 12.899,23 31/12/2020
462 373200 CAROLINE ANTUNES RIBEIRO OFICIAL DO MP JACUI - COMARCA; JACUI-PJ-UNPJ 8.858,43 1.771,69 0,00 2.700,53 0,00 0,00 0,00 1.550,00 14.880,65 1.193,09 1.569,41 0,00 0,00 2.762,50 12.118,15 31/12/2020
463 556800 CAROLINE DE SOUZA CARDOSO DOMINGUES OFICIAL DO MP BRASÍLIA DE MINAS - COMARCA; BRASILIA DE MINAS-PJ-02PJ 5.930,75 593,08 0,00 2.050,13 0,00 0,00 0,00 1.550,00 10.123,96 722,19 726,09 0,00 0,00 1.448,28 8.675,68 31/12/2020
464 499400 CAROLINE MARQUES DE LOURDES MARZULLO OFICIAL DO MP JUIZ DE FORA - COMARCA; JUIZ DE FORA-PJ-08PJ 7.663,37 766,34 0,00 2.197,41 0,00 0,00 0,00 2.703,54 13.330,66 937,85 1.190,90 0,00 0,00 2.128,75 11.201,91 31/12/2020
465 616800 CAROLINE MONTEIRO DE BARROS ANALISTA DO MP CONTAGEM - COMARCA; CONTAGEM-PJ-11PJ 8.436,53 843,65 0,00 2.331,44 0,00 0,00 0,00 1.550,00 13.161,62 1.036,50 1.397,65 0,00 0,00 2.434,15 10.727,47 31/12/2020
466 618100 CAROLINE VASCONCELOS COSTA LANZA ANALISTA DO MP PARAOPEBA - COMARCA; PARAOPEBA-PJ-UNPJ 8.436,53 843,65 0,00 3.490,93 0,00 0,00 0,00 4.627,56 17.398,67 1.036,50 1.397,65 0,00 0,00 2.434,15 14.964,52 31/12/2020
467 699000 CAROLLINA RODRIGUES SOUTO AMARAL ASSESSOR PROCURADOR JUSTICA BELO HORIZONTE - COMARCA; GABINETE DE PROCURADOR DE JUSTIÇA - SALA 405 0,00 0,00 6.708,54 598,98 0,00 0,00 0,00 1.450,00 8.757,52 713,09 1.054,39 0,00 0,00 1.767,48 6.990,04 31/12/2020
468 604000 CASSIA APARECIDA DA SILVA OFICIAL DO MP PARACATU - COMARCA; PARACATU-PJ-01PJ 5.930,75 593,08 0,00 2.050,13 0,00 0,00 0,00 1.550,00 10.123,96 722,19 726,09 0,00 0,00 1.448,28 8.675,68 31/12/2020
469 268800 CASSIA BEATRIZ TEIXEIRA OFICIAL DO MP BELO HORIZONTE - COMARCA; COMB CRIMES PRAT POR AG POL MUN-SECRETARIA 12.601,30 3.780,39 0,00 3.450,21 0,00 0,00 0,00 1.550,00 21.381,90 1.878,56 3.119,00 0,00 0,00 4.997,56 16.384,34 31/12/2020
470 500000 CASSIA DE OLIVEIRA COSTA VIANA ANALISTA DO MP SETE LAGOAS - COMARCA; SETE LAGOAS-PJ-09PJ 10.069,62 5.034,81 0,00 10.615,49 0,00 0,00 0,00 1.550,00 27.269,92 1.722,74 2.810,60 0,00 0,00 4.533,34 22.736,58 31/12/2020
471 368800 CASSIA LUISA BATISTA MENDONCA WEBER OFICIAL DO MP BELO HORIZONTE - COMARCA; DIVISÃO DE EDUCAÇÃO PARA O CONSUMO 7.663,37 1.532,67 0,00 2.318,14 0,00 0,00 0,00 1.550,00 13.064,18 1.026,74 1.363,91 0,00 0,00 2.390,65 10.673,53 31/12/2020
472 622200 CASSIA VAZ DE AZEVEDO LISBOA MARZANO ASSESSOR BELO HORIZONTE - COMARCA; CGMP-SECRETARIA DA CORREGEDORIA-GERAL DO MP 0,00 0,00 3.076,28 1.514,69 0,00 0,00 0,00 2.319,39 6.910,36 734,41 119,78 0,00 0,00 854,19 6.056,17 31/12/2020
473 121000 CASSIO HENRIQUE AFONSO DA SILVA OFICIAL DO MP BELO HORIZONTE - COMARCA; ASSESS TECNICA DA CORREGEDORIA-GERAL DO MP 18.820,14 13.174,10 0,00 6.877,93 0,00 0,00 0,00 1.550,00 40.422,17 3.821,27 6.773,93 0,00 0,00 10.595,20 29.826,97 31/12/2020
474 512001 CATARINA NATALINO CALIXTO COORDENADOR/ANALISTA BELO HORIZONTE - COMARCA; DIRETORIA GESTAO TRANSPORTES 0,00 1.343,52 13.435,16 3.422,28 4.926,23 0,00 0,00 1.550,00 24.677,19 1.036,50 4.202,49 0,00 225,33 5.464,32 19.212,87 31/12/2020
475 606200 CATARINE DE SIQUEIRA DE QUADROS ANALISTA DO MP RIBEIRÃO DAS NEVES - COMARCA; RIBEIRAO DAS NEVES-PJ-02PJ 9.146,93 914,69 0,00 4.053,87 0,00 0,00 0,00 1.550,00 15.665,49 1.127,14 1.535,48 0,00 0,00 2.662,62 13.002,87 31/12/2020
476 622300 CECILIA APARECIDA PEREIRA ASSUNCAO OFICIAL DO MP TRÊS PONTAS - COMARCA; TRES PONTAS-PJ-SECRETARIA 5.387,19 538,72 0,00 1.855,10 0,00 0,00 0,00 3.088,78 10.869,79 654,63 528,11 0,00 0,00 1.182,74 9.687,05 31/12/2020
477 538000 CECILIA FONTES DE MATOS PIMENTEL ANALISTA DO MP PALMA - COMARCA; PALMA-PJ-UNPJ 9.146,93 914,69 0,00 2.635,57 0,00 0,00 0,00 2.319,39 15.016,58 1.127,14 1.587,62 0,00 0,00 2.714,76 12.301,82 31/12/2020
478 261300 CECILIO ANTONIO CAMPOS DOS REIS ANALISTA DO MP BELO HORIZONTE - COMARCA; AUDITORIA INTERNA 18.103,37 5.431,01 0,00 4.637,28 7.844,79 0,00 0,00 1.550,00 37.566,45 2.763,79 6.999,87 0,00 0,00 9.763,66 27.802,79 31/12/2020
479 386400 CEFAS AMORELI DE FIGUEIREDO OFICIAL DO MP CABO VERDE - COMARCA; CABO VERDE-PJ-SECRETARIA 6.123,79 1.224,76 0,00 1.936,73 0,00 0,00 0,00 1.550,00 10.835,28 815,39 927,26 0,00 0,00 1.742,65 9.092,63 31/12/2020
480 149000 CELIA MAGALHAES CLAROS SOSSI OFICIAL DO MP GOVERNADOR VALADARES - COMARCA; GAECO REGIONAL DE GOVERNADOR VALADARES 16.750,82 11.725,57 0,00 8.509,95 0,00 6.895,17 0,00 1.550,00 45.431,51 3.381,54 6.961,65 0,00 0,00 10.343,19 35.088,32 31/12/2020
481 421000 CELINA BENEDITA DE SOUZA ALMEIDA OFICIAL DO MP CAMBUÍ - COMARCA; CAMBUI-PJ-01PJ 8.579,10 4.289,55 0,00 3.180,42 0,00 0,00 0,00 1.550,00 17.599,07 1.456,37 2.216,88 0,00 0,00 3.673,25 13.925,82 31/12/2020
482 252900 CELIO DE MELO CASTOR ANALISTA DO MP BELO HORIZONTE - COMARCA; BH-02PJ FAMILIA-SECRETARIA 18.103,37 5.431,01 0,00 4.637,28 0,00 0,00 0,00 1.550,00 29.721,66 2.763,79 4.842,55 0,00 0,00 7.606,34 22.115,32 31/12/2020
483 395700 CELIO FERREIRA LIMA OFICIAL DO MP CONTAGEM - COMARCA; CONTAGEM-PJ-SECRETARIA 8.579,10 1.715,82 0,00 2.483,56 0,00 0,00 0,00 2.319,39 15.097,87 1.154,21 1.592,20 0,00 0,00 2.746,41 12.351,46 31/12/2020
484 281300 CELMA REGINA PEREIRA SANTOS ANALISTA DO MP BELO HORIZONTE - COMARCA; SUPERINTENDENCIA DE RECURSOS HUMANOS 18.820,14 5.646,04 0,00 5.435,44 0,00 0,00 0,00 1.550,00 31.451,62 2.880,27 5.066,77 0,00 0,00 7.947,04 23.504,58 31/12/2020
485 535600 CELSO MEDEIROS DE PAIVA OFICIAL DO MP RIO PRETO - COMARCA; RIO PRETO-PJ-SECRETARIA 5.387,19 538,72 0,00 1.959,31 0,00 0,00 0,00 1.691,10 9.576,32 654,63 528,11 0,00 0,00 1.182,74 8.393,58 31/12/2020
486 367000 CESAR NARVAES DE AVELAR COORDENADOR/OFICIAL BELO HORIZONTE - COMARCA; DIVISAO DE MEMORIA INSTITUCIONAL 0,00 2.363,83 11.819,15 5.086,45 0,00 0,00 0,00 1.550,00 20.819,43 1.233,26 2.545,21 0,00 533,12 4.311,59 16.507,84 31/12/2020
487 226500 CESAR SILVEIRA BARROUIN OFICIAL DO MP BELO HORIZONTE - COMARCA; DIRETORIA DE ADMINISTRACAO FINANCEIRA 12.601,30 5.040,52 0,00 3.648,74 0,00 0,00 0,00 1.550,00 22.840,56 2.032,30 3.423,26 0,00 0,00 5.455,56 17.385,00 31/12/2020
488 121400 CEZAR MORENO CONCEICAO TAVARES OFICIAL DO MP BELO HORIZONTE - COMARCA; COORD EST DEF DIR FAM PESSOAS DEFICI IDOSOS 16.750,82 11.725,57 0,00 6.065,26 0,00 0,00 0,00 2.319,39 36.861,04 3.381,54 5.927,45 0,00 0,00 9.308,99 27.552,05 31/12/2020
489 243800 CHARLES MARTINS MUNIZ OFICIAL DO MP BELO HORIZONTE - COMARCA; LAB TECNOLOGIA CONTRA LAVAGEM DINHEIRO 12.601,30 5.040,52 0,00 3.648,74 5.880,61 0,00 0,00 1.100,00 28.271,17 2.032,30 5.040,43 0,00 0,00 7.072,73 21.198,44 31/12/2020
490 193500 CHARLIN CESAR KOURLY OFICIAL DO MP ARAGUARI - COMARCA; ARAGUARI-PJ-07PJ 15.272,02 6.108,81 0,00 4.243,05 0,00 0,00 0,00 1.550,00 27.173,88 2.494,59 4.324,35 0,00 0,00 6.818,94 20.354,94 31/12/2020
491 385500 CHILLEN PEIXOTO DE MOURA OFICIAL DO MP BELO HORIZONTE - COMARCA; DIVISÃO DE FISCALIZAÇÃO DAS RELAÇÕES DE CONSU 8.579,10 1.715,82 0,00 3.268,54 0,00 0,00 0,00 2.319,39 15.882,85 1.154,21 1.644,34 0,00 0,00 2.798,55 13.084,30 31/12/2020
492 534500 CHRISTIAN DOUGLAS BRITO RUAS OFICIAL DO MP SÃO JOÃO DA PONTE - COMARCA; SAO JOAO DA PONTE-PJ-SECRETARIA 5.930,75 593,08 0,00 2.666,57 0,00 0,00 0,00 1.550,00 10.740,40 722,19 726,09 0,00 0,00 1.448,28 9.292,12 31/12/2020
493 370600 CHRISTIAN KARINE FELIX PRATES ASSESSOR BELO HORIZONTE - COMARCA; SUPRIN DE PLANEJAMENTO E COORDENACAO 0,00 0,00 10.397,52 3.404,90 0,00 0,00 0,00 1.550,00 15.352,42 1.426,18 2.096,36 0,00 0,00 3.522,54 11.829,88 31/12/2020
494 435800 CHRISTIANA BAHIA ANDRADE PINA ANALISTA DO MP BELO HORIZONTE - COMARCA; LABORATORIO TECNOLOGIA INTELIGENCIA 13.011,52 2.602,30 0,00 3.329,25 0,00 0,00 0,00 2.319,39 21.262,46 1.784,88 2.933,60 0,00 0,00 4.718,48 16.543,98 31/12/2020
495 516800 CHRISTIANE FERREIRA DO NASCIMENTO ANALISTA DO MP POUSO ALEGRE - COMARCA; POUSO ALEGRE-PJ-08PJ 10.069,62 1.006,96 0,00 4.008,27 0,00 0,00 0,00 1.550,00 16.634,85 1.244,89 1.834,36 0,00 0,00 3.079,25 13.555,60 31/12/2020
496 176000 CHRISTIANE JUNQUEIRA PULITI ANDRADE DE BARROS ASSESSOR BELO HORIZONTE - COMARCA; CAO-VIOLENCIA DOMESTICA E FAMILIAR 0,00 9.157,17 11.446,46 5.505,17 0,00 2.397,44 0,00 1.550,00 30.056,24 2.397,44 4.796,64 0,00 0,00 7.194,08 22.862,16 31/12/2020
497 319200 CHRISTIANE MARIA DE ASSIS RUSSO OFICIAL DO MP BELO HORIZONTE - COMARCA; CAO-ORDEM ECONOMICA E TRIBUTARIA-SECRETARIA 11.085,56 3.325,67 0,00 10.170,36 0,00 0,00 0,00 2.319,39 26.900,98 1.639,93 2.590,61 0,00 0,00 4.230,54 22.670,44 31/12/2020
498 510300 CHRISTIANE MARY DE CARVALHO FERREIRA ANALISTA DO MP BELO HORIZONTE - COMARCA; DIRETORIA DE SISTEMAS DE INFORMACAO 10.069,62 1.006,96 0,00 2.530,37 0,00 0,00 0,00 1.550,00 15.156,95 1.244,89 1.782,22 0,00 0,00 3.027,11 12.129,84 31/12/2020
499 424900 CHRISTIANE PEREIRA TURNER DE ARAUJO OFICIAL DO MP BELO HORIZONTE - COMARCA; CAO-PATRIMONIO PUBLICO 8.579,10 1.715,82 0,00 2.780,77 0,00 0,00 0,00 2.319,39 15.395,08 1.154,21 1.540,06 0,00 0,00 2.694,27 12.700,81 31/12/2020
500 513700 CHRISTIANE VIEIRA SOARES PEDERSOLI ASSESSOR/ANALISTA BELO HORIZONTE - COMARCA; ASSESSORIA JURIDICA DO PROCON-MG 0,00 1.144,65 11.446,46 2.819,00 0,00 0,00 0,00 2.319,39 17.729,50 1.244,89 2.250,85 0,00 0,00 3.495,74 14.233,76 31/12/2020
501 412300 CHRYSTIAN MACHADO RIBEIRO ANALISTA DO MP VARGINHA - COMARCA; VARGINHA-PJ-04PJ 13.011,52 2.602,30 0,00 5.576,76 0,00 0,00 0,00 1.550,00 22.740,58 1.784,88 2.933,60 0,00 0,00 4.718,48 18.022,10 31/12/2020
502 513800 CHRYSTIANE DO NASCIMENTO DE MAGALHAES OFICIAL DO MP UBERLÂNDIA - COMARCA; UBERLANDIA-PJ-10PJ 7.421,79 742,18 0,00 2.451,23 0,00 0,00 0,00 2.319,39 12.934,59 907,53 1.021,89 0,00 0,00 1.929,42 11.005,17 31/12/2020
503 497900 CIBELE DE FREITAS SANCHES DIAS ANALISTA DO MP SABARÁ - COMARCA; SABARA-PJ-03PJ 10.069,62 1.006,96 0,00 4.180,49 0,00 0,00 0,00 1.550,00 16.807,07 1.244,89 1.782,22 0,00 0,00 3.027,11 13.779,96 31/12/2020
504 500900 CIBELLE SILVA PRADO ALVARENGA ANALISTA DO MP ITANHANDU - COMARCA; ITANHANDU-PJ-UNPJ 10.069,62 1.006,96 0,00 8.016,53 0,00 0,00 0,00 3.088,78 22.181,89 1.244,89 1.834,36 0,00 0,00 3.079,25 19.102,64 31/12/2020
505 296400 CINTIA APARECIDA MOREIRA NAVES E RODRIGUES ANALISTA DO MP CAMPO BELO - COMARCA; CAMPO BELO-PJ-02PJ 17.413,92 5.224,18 0,00 4.493,73 0,00 0,00 0,00 1.550,00 28.681,83 2.651,75 4.626,89 0,00 0,00 7.278,64 21.403,19 31/12/2020
506 407900 CINTIA NETO COMELLI ANALISTA DO MP BELO HORIZONTE - COMARCA; CENTRAL DE APOIO TECNICO-SETOR CONTABIL 13.011,52 2.602,30 0,00 3.381,38 0,00 0,00 515,26 7.940,37 27.450,83 1.784,88 2.881,46 0,00 0,00 4.666,34 22.784,49 31/12/2020
507 304700 CINTIA QUEIROZ OFICIAL DO MP BELO HORIZONTE - COMARCA; OUVIDORIA DO MPMG 10.069,62 3.020,89 0,00 2.770,75 0,00 0,00 0,00 1.550,00 17.411,26 1.482,77 2.322,77 0,00 0,00 3.805,54 13.605,72 31/12/2020
508 286100 CIRO CANGUSSU CORDEIRO OFICIAL DO MP IPATINGA - COMARCA; IPATINGA-PJ-09PJ 7.663,37 2.299,01 0,00 2.543,14 0,00 0,00 0,00 2.319,39 14.824,91 1.115,63 1.459,22 0,00 0,00 2.574,85 12.250,06 31/12/2020
509 689900 CISSA NOGUEIRA NUNES ASSESSOR PROCURADOR JUSTICA BELO HORIZONTE - COMARCA; GABINETE DE PROCURADOR DE JUSTIÇA - SALA 608 0,00 0,00 7.187,72 1.796,93 0,00 0,00 0,00 1.550,00 10.534,65 859,14 1.213,66 0,00 0,00 2.072,80 8.461,85 31/12/2020
510 681700 CLARA FERREIRA ALKIMIM ASSESSOR PROMOTOR JUSTICA ARAÇUAÍ - COMARCA; ARACUAI-PJ-01PJ 0,00 0,00 7.187,72 2.934,14 0,00 0,00 0,00 1.550,00 11.671,86 994,11 1.213,66 0,00 0,00 2.207,77 9.464,09 31/12/2020
511 695500 CLARA RODRIGUES BLACH ASSESSOR PROCURADOR JUSTICA BELO HORIZONTE - COMARCA; PROCURADORIA-GERAL DE JUSTICA 0,00 0,00 6.708,54 598,98 0,00 0,00 0,00 1.450,00 8.757,52 713,09 1.054,39 0,00 0,00 1.767,48 6.990,04 31/12/2020
512 412500 CLARICE GOMES MAROTTA ANALISTA DO MP BELO HORIZONTE - COMARCA; COORD ESTADUAL DE DEFESA DOS ANIMAIS 13.011,52 3.903,46 0,00 3.534,24 0,00 0,00 0,00 1.550,00 21.999,22 1.943,62 3.247,76 0,00 0,00 5.191,38 16.807,84 31/12/2020
513 605300 CLARISSA AZEVEDO ROCHA OFICIAL DO MP BELO HORIZONTE - COMARCA; DIRET DE DESENV DE RECURSOS HUMANOS-DDRH 5.930,75 593,08 0,00 2.050,13 0,00 0,00 0,00 1.550,00 10.123,96 722,19 726,09 0,00 0,00 1.448,28 8.675,68 31/12/2020
514 308100 CLARISSA DUARTE BELLONI DIRETOR/ANALISTA BELO HORIZONTE - COMARCA; DIRETORIA-GERAL 0,00 7.409,35 24.697,83 6.245,40 0,00 0,00 0,00 3.857,08 42.209,66 2.651,75 6.944,07 0,00 853,38 10.449,20 31.760,46 31/12/2020
515 497100 CLARISSA ROCHA GUIDI ANALISTA DO MP BELO HORIZONTE - COMARCA; BH-02PJ FAMILIA-SECRETARIA 10.736,08 1.073,61 0,00 2.782,09 0,00 0,00 0,00 2.319,39 16.911,17 1.330,36 1.960,32 0,00 0,00 3.290,68 13.620,49 31/12/2020
516 641800 CLARISSE TAVARES GONCALVES OFICIAL DO MP BELO HORIZONTE - COMARCA; BH-07PJ 01 TRIBUNAL JURI-SECRETARIA 5.217,34 521,73 0,00 1.884,53 0,00 0,00 0,00 1.550,00 9.173,60 680,13 534,67 0,00 0,00 1.214,80 7.958,80 31/12/2020
517 463700 CLAUDIA ADRIANA FERRAO DIAS ANALISTA DO MP SETE LAGOAS - COMARCA; SETE LAGOAS-PJ-06PJ 10.069,62 2.013,92 0,00 8.016,53 0,00 0,00 0,00 1.550,00 21.650,07 1.362,94 2.078,80 0,00 0,00 3.441,74 18.208,33 31/12/2020
518 415400 CLAUDIA ALMEIDA DE VASCONCELLOS BARROS ASSESSOR/OFICIAL BELO HORIZONTE - COMARCA; DIVISAO DE SERVICOS 0,00 2.079,50 10.397,52 2.648,72 0,00 0,00 0,00 1.550,00 16.675,74 1.409,76 2.047,36 0,00 461,02 3.918,14 12.757,60 31/12/2020
519 207000 CLAUDIA APARECIDA VILELA MACHADO ANALISTA DO MP BELO HORIZONTE - COMARCA; CENTRAL DE APOIO TECNICO-SETOR CONTABIL 18.820,14 7.528,06 0,00 4.852,85 0,00 0,00 0,00 1.550,00 32.751,05 3.115,51 5.363,22 0,00 0,00 8.478,73 24.272,32 31/12/2020
520 365700 CLAUDIA BREGUEZ CUNHA ANALISTA DO MP VARGINHA - COMARCA; VARGINHA-PJ-07PJ 14.790,66 2.958,13 0,00 3.665,65 0,00 0,00 0,00 1.550,00 22.964,44 2.045,35 3.449,09 0,00 0,00 5.494,44 17.470,00 31/12/2020
521 430500 CLAUDIA CECILIA SANTANA VENCESLAU OFICIAL DO MP BELO HORIZONTE - COMARCA; DIR ANALISES TECNOLOGIA INTELIGENCIA 8.579,10 1.715,82 0,00 2.728,64 0,00 0,00 0,00 1.550,00 14.573,56 1.154,21 1.592,20 0,00 0,00 2.746,41 11.827,15 31/12/2020
522 112400 CLAUDIA CRISTINA FIUZA DE AVELAR AGENTE DO MP BELO HORIZONTE - COMARCA; SERVICO MEDICO-DEPTO PERIC MEDICA SAUDE OCUP 10.069,62 7.048,73 0,00 3.566,28 0,00 0,00 0,00 1.550,00 22.234,63 1.968,43 3.296,87 0,00 0,00 5.265,30 16.969,33 31/12/2020
523 480400 CLAUDIA GOULART DE SOUZA OFICIAL DO MP PASSOS - COMARCA; PASSOS-PJ-06PJ 7.663,37 1.532,67 0,00 2.318,14 0,00 0,00 0,00 1.550,00 13.064,18 1.026,74 1.377,20 0,00 0,00 2.403,94 10.660,24 31/12/2020
524 519800 CLAUDIA HELENA CORREA DE ALMEIDA ANALISTA DO MP BELO HORIZONTE - COMARCA; BH-12PJ JUIZO CRIMINAL-GAB 096PJ 10.069,62 1.006,96 0,00 4.008,27 0,00 0,00 0,00 1.550,00 16.634,85 1.244,89 1.834,36 0,00 0,00 3.079,25 13.555,60 31/12/2020
525 422100 CLAUDIA IACOMINI CABRAL ANALISTA DO MP BELO HORIZONTE - COMARCA; CENT DE APOIO TEC-SETOR DEF,IDOSO E INFANC 13.011,52 9.108,06 0,00 4.354,20 0,00 0,00 0,00 1.550,00 28.023,78 2.586,94 4.502,12 0,00 0,00 7.089,06 20.934,72 31/12/2020
526 258200 CLAUDIA LAGE MICHALAROS ANALISTA DO MP BELO HORIZONTE - COMARCA; CENTRAL DE APOIO TECN-SETOR DE MEIO AMBIENTE 18.103,37 12.672,36 0,00 12.041,83 0,00 4.829,30 0,00 1.550,00 49.196,86 3.668,95 7.541,83 0,00 0,00 11.210,78 37.986,08 31/12/2020
527 284600 CLAUDIA LENI DE FREITAS OFICIAL DO MP CONTAGEM - COMARCA; CONTAGEM-PJ-SECRETARIA 6.123,79 2.449,52 0,00 2.114,63 0,00 0,00 0,00 1.550,00 12.237,94 954,50 1.225,81 0,00 0,00 2.180,31 10.057,63 31/12/2020
528 433600 CLAUDIA LUIZA SANTIAGO FELICIO ANALISTA DO MP BELO HORIZONTE - COMARCA; CENT DE APOIO TEC-SETOR DEF,IDOSO E INFANC 13.011,52 2.602,30 0,00 10.994,30 0,00 0,00 0,00 1.550,00 28.158,12 1.784,88 2.829,32 0,00 0,00 4.614,20 23.543,92 31/12/2020
529 317000 CLAUDIA MACHADO ALVES ASSESSOR/OFICIAL BELO HORIZONTE - COMARCA; DIR GOVERNANCA TECNOLOGIA INFORMACAO 0,00 3.119,26 10.397,52 2.925,93 0,00 0,00 1.447,94 1.550,00 19.440,65 1.253,73 2.293,39 0,00 762,16 4.309,28 15.131,37 31/12/2020
530 155300 CLAUDIA MACIEL MIRANDA OFICIAL DO MP CONGONHAS - COMARCA; CONGONHAS-PJ-02PJ 16.750,82 8.375,41 0,00 9.059,54 0,00 0,00 0,00 1.550,00 35.735,77 2.962,77 5.121,32 0,00 0,00 8.084,09 27.651,68 31/12/2020
531 242200 CLAUDIA MICHELLE DIAS MUNIZ BALEEIRO OFICIAL DO MP MONTE AZUL - COMARCA; MONTE AZUL-PJ-SECRETARIA 12.601,30 5.040,52 0,00 3.700,88 0,00 0,00 0,00 1.550,00 22.892,70 2.032,30 3.371,12 0,00 0,00 5.403,42 17.489,28 31/12/2020
532 623000 CLAUDIA PATRICIA SILVA RODRIGUES RAPOSEIRAS OFICIAL DO MP PARÁ DE MINAS - COMARCA; PARA DE MINAS-PJ-02PJ 5.387,19 538,72 0,00 2.026,59 0,00 0,00 0,00 2.319,39 10.271,89 654,63 528,11 0,00 0,00 1.182,74 9.089,15 31/12/2020
533 418400 CLAUDIA REGINA MARTINS BONIFACIO OFICIAL DO MP ITUIUTABA - COMARCA; ITUIUTABA-PJ-06PJ 8.579,10 1.715,82 0,00 2.780,77 0,00 0,00 0,00 1.550,00 14.625,69 1.154,21 1.540,06 0,00 0,00 2.694,27 11.931,42 31/12/2020
534 498300 CLAUDIA SOUTO FARIAS BRAUN OFICIAL DO MP TEÓFILO OTONI - COMARCA; TEOFILO OTONI-PJ-SECRETARIA 6.123,79 612,38 0,00 2.660,07 2.245,39 0,00 0,00 1.550,00 13.191,63 746,19 1.291,09 0,00 0,00 2.037,28 11.154,35 31/12/2020
535 206500 CLAUDIA VALERIA FONSECA ANDRADE ANALISTA DO MP BELO HORIZONTE - COMARCA; BH-23PJ INF-FISC MED SOC FEC 18.820,14 9.410,07 0,00 7.221,15 0,00 3.350,77 0,00 1.550,00 40.352,13 3.350,77 6.893,95 0,00 0,00 10.244,72 30.107,41 31/12/2020
536 277500 CLAUDIO ANTONIO BORGES BRUNSWICK ALVARES OFICIAL DO MP BELO HORIZONTE - COMARCA; BH-15PJ M AMB 16PJ HAB URB-SECRETARIA 10.069,62 3.020,89 0,00 2.770,75 0,00 0,00 0,00 1.550,00 17.411,26 1.482,77 2.322,77 0,00 0,00 3.805,54 13.605,72 31/12/2020
537 444800 CLAUDIO ARESIO DO CARMO ANALISTA DO MP SETE LAGOAS - COMARCA; SETE LAGOAS-PJ-01PJ 10.069,62 4.027,85 0,00 2.969,15 0,00 0,00 0,00 1.550,00 18.616,62 1.602,60 2.514,59 0,00 0,00 4.117,19 14.499,43 31/12/2020
538 545100 CLAUDIO HENRIQUE MACEDO DE SOUZA FRANSOZO ANALISTA DO MP OURO PRETO - COMARCA; OURO PRETO-PJ-03PJ 9.146,93 914,69 0,00 7.275,66 0,00 0,00 0,00 2.319,39 19.656,67 1.127,14 1.587,62 0,00 0,00 2.714,76 16.941,91 31/12/2020
539 353500 CLAUDIO HENRIQUE PEDRO DA ROCHA OFICIAL DO MP BELO HORIZONTE - COMARCA; DIVISAO TRANSPORTES 9.752,14 1.950,43 0,00 2.817,32 3.900,86 0,00 0,00 1.550,00 19.970,75 1.317,61 2.954,97 0,00 0,00 4.272,58 15.698,17 31/12/2020
540 265800 CLAUDIO KUPIDLOWSKY FERNANDES OFICIAL DO MP BELO HORIZONTE - COMARCA; SECRETARIA DO PROCON-MG 10.069,62 3.020,89 0,00 3.595,76 0,00 0,00 0,00 1.550,00 18.236,27 1.482,77 1.500,32 0,00 0,00 2.983,09 15.253,18 31/12/2020
541 193600 CLAUDIO LEITE FONTES OFICIAL DO MP ITUIUTABA - COMARCA; ITUIUTABA-PJ-02PJ 9.146,93 3.658,77 0,00 2.886,91 0,00 0,00 0,00 1.550,00 17.242,61 1.448,88 1.966,39 0,00 0,00 3.415,27 13.827,34 31/12/2020
542 329400 CLAUDIO MARCIO BERNARDES OFICIAL DO MP ITAÚNA - COMARCA; ITAUNA-PJ-03PJ 10.069,62 7.048,73 0,00 5.983,55 0,00 0,00 0,00 2.319,39 25.421,29 1.968,43 3.244,73 0,00 0,00 5.213,16 20.208,13 31/12/2020
543 270200 CLAUDIO RABELO ALVES OFICIAL DO MP FORMIGA - COMARCA; FORMIGA-PJ-03PJ 10.736,08 3.220,82 0,00 3.276,80 0,00 0,00 0,00 1.574,24 18.807,94 1.585,87 2.376,26 0,00 0,00 3.962,13 14.845,81 31/12/2020
544 264700 CLAUDIO ROBERTO KFURI DE ARAUJO ANALISTA DO MP BELO HORIZONTE - COMARCA; CENTRAL DE APOIO TECNICO-SETOR DE INFORMATICA 18.103,37 5.431,01 0,00 4.741,55 0,00 0,00 0,00 1.550,00 29.825,93 2.763,79 4.738,28 0,00 0,00 7.502,07 22.323,86 31/12/2020
545 188600 CLAUDIO SALES OFICIAL DO MP NEPOMUCENO - COMARCA; NEPOMUCENO-PJ-SECRETARIA 14.790,66 11.832,53 0,00 5.063,81 0,00 0,00 0,00 1.550,00 33.237,00 3.149,89 5.585,80 0,00 0,00 8.735,69 24.501,31 31/12/2020
546 543300 CLAUDIO SILVA DE CARVALHO ANALISTA DO MP CAMPO BELO - COMARCA; CAMPO BELO-PJ-03PJ 8.436,53 843,65 0,00 2.601,12 0,00 0,00 0,00 1.550,00 13.431,30 1.036,50 1.345,51 0,00 0,00 2.382,01 11.049,29 31/12/2020
547 160700 CLAUDIO VICENTE HESS ASSESSOR BELO HORIZONTE - COMARCA; CENTRAL DE APOIO TECNICO-SETOR DE INFORMATICA 0,00 6.717,58 13.435,16 5.704,10 0,00 0,00 0,00 1.550,00 27.406,84 1.426,18 4.674,77 0,00 0,00 6.100,95 21.305,89 31/12/2020
548 312900 CLAUDIO VIEIRA FIRPE OFICIAL DO MP BELO HORIZONTE - COMARCA; CENTRO CERIMONIAL 10.069,62 3.020,89 0,00 2.931,72 0,00 0,00 0,00 1.550,00 17.572,23 1.482,77 2.322,77 0,00 0,00 3.805,54 13.766,69 31/12/2020
549 634100 CLEA CRISTINA GUERRA DE FREITAS COSTA OFICIAL DO MP BELO HORIZONTE - COMARCA; BH-18PJ VIOLENCIA DOMESTICA-SECRETARIA 5.217,34 521,73 0,00 4.578,02 0,00 0,00 0,00 2.319,39 12.636,48 633,52 482,53 0,00 0,00 1.116,05 11.520,43 31/12/2020
550 653100 CLEBER SOUZA SCALIONI ASSESSOR BELO HORIZONTE - COMARCA; CENTRAL DE APOIO TECNICO-SETOR CONTABIL 0,00 0,00 8.170,49 2.903,82 0,00 0,00 0,00 1.550,00 12.624,31 1.426,18 1.483,92 0,00 0,00 2.910,10 9.714,21 31/12/2020
551 459200 CLEIA ZILLE PEREIRA ANALISTA DO MP BELO HORIZONTE - COMARCA; BH-07PJ 01 TRIBUNAL JURI-SECRETARIA 10.069,62 2.013,92 0,00 2.478,24 0,00 0,00 0,00 1.550,00 16.111,78 1.362,94 2.078,80 0,00 0,00 3.441,74 12.670,04 31/12/2020
552 481800 CLEIDE CARDOSO DA SILVA ANALISTA DO MP MANHUAÇU - COMARCA; MANHUACU-PJ-04PJ 10.069,62 1.006,96 0,00 2.582,51 3.692,19 0,00 0,00 1.550,00 18.901,28 1.244,89 2.745,43 0,00 0,00 3.990,32 14.910,96 31/12/2020
553 347600 CLEIDIMAR DE OLIVEIRA SILVA OFICIAL DO MP PATOS DE MINAS - COMARCA; PATOS DE MINAS-PJ-03PJ 9.444,70 2.833,41 0,00 3.300,16 0,00 0,00 0,00 1.550,00 17.128,27 1.386,09 1.917,40 0,00 0,00 3.303,49 13.824,78 31/12/2020
554 396500 CLEIDISON BATISTA DE ANDRADE OFICIAL DO MP RESPLENDOR - COMARCA; RESPLENDOR-PJ-UNPJ 8.170,49 1.634,10 0,00 7.083,38 0,00 0,00 0,00 2.319,39 19.207,36 1.097,33 1.420,86 0,00 0,00 2.518,19 16.689,17 31/12/2020
555 535100 CLEISON ALVES DA SILVA ANALISTA DO MP BOA ESPERANÇA - COMARCA; BOA ESPERANCA-PJ-01PJ 9.146,93 914,69 0,00 2.739,84 0,00 0,00 0,00 1.550,00 14.351,46 1.127,14 1.483,35 0,00 0,00 2.610,49 11.740,97 31/12/2020
556 298100 CLEONICE AUGUSTA BARROS DE OLIVEIRA ANALISTA DO MP JUIZ DE FORA - COMARCA; JUIZ DE FORA-PJ-08PJ 18.820,14 5.646,04 0,00 5.435,44 0,00 0,00 0,00 1.550,00 31.451,62 2.880,27 5.066,77 0,00 0,00 7.947,04 23.504,58 31/12/2020
557 114300 CLERES PEREIRA DA SILVA JUNIOR ASSESSOR BELO HORIZONTE - COMARCA; BH-22PJ PES COM DEF E IDOSOS-SECRETARIA 0,00 2.568,16 5.136,32 2.955,38 2.568,16 0,00 0,00 1.550,00 14.778,02 1.426,18 1.132,80 0,00 0,00 2.558,98 12.219,04 31/12/2020
558 264100 CLETO HENRIQUE ANDRADE SILVA ANALISTA DO MP BELO HORIZONTE - COMARCA; DIRETORIA DE SISTEMAS DE INFORMACAO 18.103,37 5.431,01 0,00 4.741,55 0,00 0,00 0,00 1.550,00 29.825,93 2.763,79 4.738,28 0,00 0,00 7.502,07 22.323,86 31/12/2020
559 334400 CLEUBA DE OLIVEIRA BARCELOS GONCALVES OFICIAL DO MP DIVINÓPOLIS - COMARCA; COORD REG SAUDE MACRORREGIAO SANITARIA OESTE 10.069,62 3.020,89 0,00 4.710,14 0,00 0,00 0,00 1.550,00 19.350,65 1.482,77 2.218,49 0,00 0,00 3.701,26 15.649,39 31/12/2020
560 347500 CLEUSA CORDEIRO DA MATA PIMENTA OFICIAL DO MP CAMPO BELO - COMARCA; CAMPO BELO-PJ-02PJ 10.069,62 8.055,69 0,00 5.882,24 0,00 3.552,84 0,00 1.550,00 29.110,39 2.091,29 4.010,83 0,00 0,00 6.102,12 23.008,27 31/12/2020
561 510200 CLEZIO SALES SILVA OFICIAL DO MP BRASÓPOLIS - COMARCA; BRASOPOLIS-PJ-UNPJ 6.123,79 612,38 0,00 2.739,18 0,00 0,00 0,00 3.088,78 12.564,13 746,19 777,89 0,00 0,00 1.524,08 11.040,05 31/12/2020
562 323000 CLOTILDE DE PADUA VIEIRA OFICIAL DO MP BELO HORIZONTE - COMARCA; BH-19PJ SAUDE-SECRETARIA 129PJ 7.421,79 2.226,54 0,00 2.392,02 0,00 0,00 0,00 1.550,00 13.590,35 1.079,20 1.487,15 0,00 0,00 2.566,35 11.024,00 31/12/2020
563 285200 CLOVIS ANDRE LUDTKE OFICIAL DO MP BELO HORIZONTE - COMARCA; DIVISAO DE MANUTENCAO PREDIAL 10.069,62 3.020,89 0,00 2.770,75 0,00 0,00 0,00 1.550,00 17.411,26 1.482,77 2.322,77 0,00 0,00 3.805,54 13.605,72 31/12/2020
564 381100 CONCEICAO APARECIDA TEIXEIRA ARANTES ANALISTA DO MP BELO HORIZONTE - COMARCA; BH-23PJ INFRACIONAL-ASS JURIDICA 13.872,60 2.774,52 0,00 3.544,21 0,00 0,00 1.712,40 2.319,39 24.223,12 2.119,90 3.544,40 0,00 0,00 5.664,30 18.558,82 31/12/2020
565 249900 CONSTANTINO CEZAR GOMES MOTA OFICIAL DO MP MONTES CLAROS - COMARCA; COORD REG BACIA RIOS VERDE GRANDE E PARDO 9.444,70 2.833,41 0,00 2.908,00 0,00 0,00 0,00 2.319,39 17.505,50 1.386,09 2.021,67 0,00 0,00 3.407,76 14.097,74 31/12/2020
566 481000 CRISHMA ANALIA LOMBELLO ANALISTA DO MP JUIZ DE FORA - COMARCA; JUIZ DE FORA-PJ-13PJ 10.069,62 1.006,96 0,00 2.530,37 0,00 0,00 0,00 1.550,00 15.156,95 1.244,89 1.782,22 0,00 0,00 3.027,11 12.129,84 31/12/2020
567 523900 CRISTHYANE BAZOLI COSTA GUEDES COUTO OFICIAL DO MP BELO HORIZONTE - COMARCA; BH-04PJ JUIZO REG PÚBLICOS-SECRETARIA 7.421,79 742,18 0,00 2.346,96 0,00 0,00 0,00 1.550,00 12.060,93 907,53 1.126,16 0,00 0,00 2.033,69 10.027,24 31/12/2020
568 187000 CRISTIAN DAYVSON EVANGELISTA OFICIAL DO MP JUIZ DE FORA - COMARCA; JUIZ DE FORA-PJ-13PJ 14.790,66 5.916,26 0,00 4.183,85 0,00 0,00 0,00 1.550,00 26.440,77 2.410,35 4.110,06 0,00 0,00 6.520,41 19.920,36 31/12/2020
569 682100 CRISTIAN TRISTAO DE ANDRADE ASSESSOR PROMOTOR JUSTICA TRÊS CORACOES - COMARCA; TRES CORACOES-PJ-04PJ 0,00 0,00 7.187,72 2.934,14 0,00 0,00 0,00 1.550,00 11.671,86 994,11 1.213,66 0,00 0,00 2.207,77 9.464,09 31/12/2020
570 319800 CRISTIANA GONCALVES DOS SANTOS GUSMAO OFICIAL DO MP PARAOPEBA - COMARCA; PARAOPEBA-PJ-UNPJ 10.069,62 3.020,89 0,00 3.248,70 0,00 0,00 0,00 1.550,00 17.889,21 1.482,77 2.322,77 0,00 0,00 3.805,54 14.083,67 31/12/2020
571 520600 CRISTIANA JANAINA BARBOZA JUVENCIO DOS SANTOS ANALISTA DO MP BELO HORIZONTE - COMARCA; BH-02PJ FAMILIA-SECRETARIA 10.069,62 1.006,96 0,00 2.478,24 0,00 0,00 0,00 1.550,00 15.104,82 1.244,89 1.834,36 0,00 0,00 3.079,25 12.025,57 31/12/2020
572 195600 CRISTIANA SOARES HALABI OFICIAL DO MP UBERABA - COMARCA; UBERABA-PJ-01PJ 15.499,20 6.199,68 0,00 4.662,65 0,00 0,00 0,00 1.550,00 27.911,53 2.534,35 4.400,88 0,00 0,00 6.935,23 20.976,30 31/12/2020
573 218900 CRISTIANE ALVES BELLES OFICIAL DO MP JUIZ DE FORA - COMARCA; JUIZ DE FORA-PJ-10PJ 6.123,79 1.837,14 0,00 2.129,96 0,00 0,00 0,00 2.703,54 12.794,43 884,58 972,36 0,00 0,00 1.856,94 10.937,49 31/12/2020
574 263600 CRISTIANE CARVALHO COUTINHO OFICIAL DO MP BELO HORIZONTE - COMARCA; BH-23PJ INFRACIONAL-SEC EXP 10.069,62 3.020,89 0,00 2.822,89 0,00 0,00 0,00 1.550,00 17.463,40 1.482,77 2.270,63 0,00 0,00 3.753,40 13.710,00 31/12/2020
575 541000 CRISTIANE COELHO ALVES OFICIAL DO MP ITABIRA - COMARCA; ITABIRA-PJ-03PJ 5.387,19 538,72 0,00 1.959,31 0,00 0,00 0,00 1.550,00 9.435,22 654,63 528,11 0,00 0,00 1.182,74 8.252,48 31/12/2020
576 441700 CRISTIANE CORRADO DE ANDRADE ANALISTA DO MP BELO HORIZONTE - COMARCA; DIRETORIA DE SISTEMAS DE INFORMACAO 13.011,52 2.602,30 0,00 3.329,25 0,00 0,00 0,00 1.550,00 20.493,07 1.784,88 2.933,60 0,00 0,00 4.718,48 15.774,59 31/12/2020
577 375100 CRISTIANE DAS DORES ERCIO DE LIMA OFICIAL DO MP GOVERNADOR VALADARES - COMARCA; COOR REG INCLUSAO MOBILIZ VALE DO RIO DOCE 8.436,53 1.687,31 0,00 2.464,35 0,00 0,00 0,00 1.550,00 14.138,19 1.134,37 1.602,75 0,00 0,00 2.737,12 11.401,07 31/12/2020
578 178800 CRISTIANE DE LIMA HOSKEN OFICIAL DO MP BELO HORIZONTE - COMARCA; BH-14PJ DEFESA CONSUMIDOR-GAB 110PJ 15.272,02 6.108,81 0,00 4.342,03 0,00 0,00 0,00 1.550,00 27.272,86 2.494,59 4.220,08 0,00 0,00 6.714,67 20.558,19 31/12/2020
579 494000 CRISTIANE DE MELO MARQUEZ OLIVEIRA ANALISTA DO MP UBERLÂNDIA - COMARCA; UBERLANDIA-PJ-06PJ 11.085,56 1.108,56 0,00 2.790,48 4.064,71 0,00 0,00 3.088,78 22.138,09 1.376,10 3.223,39 0,00 0,00 4.599,49 17.538,60 31/12/2020
580 266100 CRISTIANE DE OLIVEIRA CASTRO OFICIAL DO MP BELO HORIZONTE - COMARCA; BH-14PJ DEFESA CONSUMIDOR-SECRETARIA 12.601,30 3.780,39 0,00 3.879,68 0,00 0,00 1.445,27 1.550,00 23.256,64 1.878,56 3.412,18 0,00 0,00 5.290,74 17.965,90 31/12/2020
581 329500 CRISTIANE DOS REIS SILVA OFICIAL DO MP ARAXÁ - COMARCA; ARAXA-PJ-04PJ 9.444,70 2.833,41 0,00 2.911,27 4.092,70 0,00 0,00 1.550,00 20.832,08 1.386,09 3.147,16 0,00 0,00 4.533,25 16.298,83 31/12/2020
582 301600 CRISTIANE GODINHO PIRES ANALISTA DO MP BETIM - COMARCA; BETIM-PJ-07PJ 16.750,82 5.025,25 0,00 4.355,80 0,00 0,00 0,00 1.550,00 27.681,87 2.544,00 4.419,46 0,00 0,00 6.963,46 20.718,41 31/12/2020
583 406100 CRISTIANE GONCALVES CHAVES ANALISTA DO MP BELO HORIZONTE - COMARCA; BH-14PJ DEFESA CONSUMIDOR-GAB 112PJ 14.324,23 4.297,27 0,00 4.239,67 0,00 0,00 0,00 1.550,00 24.411,17 2.152,26 3.659,68 0,00 0,00 5.811,94 18.599,23 31/12/2020
584 487600 CRISTIANE LOPES DE OLIVEIRA OFICIAL DO MP DIVINÓPOLIS - COMARCA; DIVINOPOLIS-PJ-03PJ 6.123,79 612,38 0,00 1.847,78 0,00 0,00 0,00 1.550,00 10.133,95 746,19 777,89 0,00 0,00 1.524,08 8.609,87 31/12/2020
585 502500 CRISTIANE MACIEL DE OLIVEIRA GOMES ANALISTA DO MP JUIZ DE FORA - COMARCA; JUIZ DE FORA-PJ-05PJ 10.069,62 1.006,96 0,00 2.478,24 3.692,19 0,00 0,00 2.319,39 19.566,40 1.244,89 2.849,71 0,00 0,00 4.094,60 15.471,80 31/12/2020
586 285500 CRISTIANE MAGALHAES LOURENCO ANALISTA DO MP BELO HORIZONTE - COMARCA; CENTRAL DE APOIO TECNICO-SETOR CONTABIL 17.413,92 5.224,18 0,00 4.545,87 7.546,03 0,00 0,00 1.550,00 36.280,00 2.651,75 6.649,91 0,00 0,00 9.301,66 26.978,34 31/12/2020
587 536500 CRISTIANE MICHELE DE SOUZA ANALISTA DO MP BARÃO DE COCAIS - COMARCA; BARAO DE COCAIS-PJ-UNPJ 9.146,93 914,69 0,00 2.739,84 0,00 0,00 0,00 2.319,39 15.120,85 1.127,14 1.483,35 0,00 0,00 2.610,49 12.510,36 31/12/2020
588 346600 CRISTIANE NOGUEIRA ANDRADE ANALISTA DO MP BELO HORIZONTE - COMARCA; CENTRAL DE APOIO TECNICO-SETOR CONTABIL 15.272,02 3.054,40 0,00 3.756,54 0,00 0,00 0,00 1.550,00 23.632,96 2.115,82 3.588,55 0,00 0,00 5.704,37 17.928,59 31/12/2020
589 234000 CRISTIANE OLIVEIRA TOSTES OFICIAL DO MP JUIZ DE FORA - COMARCA; JUIZ DE FORA-PJ-08PJ 14.324,23 4.297,27 0,00 4.239,67 0,00 0,00 546,23 8.278,27 31.685,67 2.152,26 3.659,68 0,00 0,00 5.811,94 25.873,73 31/12/2020
590 445800 CRISTIANE ORZIL COSTA OFICIAL DO MP SANTA LUZIA - COMARCA; SANTA LUZIA-PJ-05PJ 6.123,79 1.224,76 0,00 5.611,01 0,00 0,00 0,00 2.319,39 15.278,95 815,39 927,26 0,00 0,00 1.742,65 13.536,30 31/12/2020
591 616100 CRISTIANE PAES RODRIGUES MARCICANO ANALISTA DO MP CATAGUASES - COMARCA; CATAGUASES-PJ-05PJ 7.663,37 766,34 0,00 2.198,47 2.809,90 0,00 0,00 3.088,78 16.526,86 937,85 1.963,62 0,00 0,00 2.901,47 13.625,39 31/12/2020
592 612300 CRISTIANE RIBEIRO DOS REIS ARCANJO OFICIAL DO MP BELO HORIZONTE - COMARCA; DIRETORIA DE PAGAMENTO DE PESSOAL-DPAG 5.387,19 538,72 0,00 1.907,24 0,00 0,00 0,00 0,00 7.833,15 654,63 449,03 0,00 97,96 1.201,62 6.631,53 31/12/2020
593 257700 CRISTIANE RODRIGUES PAES NUNES ANALISTA DO MP BELO HORIZONTE - COMARCA; BH-22PJ PES COM DEF E IDOSOS-ORIENTACAO PSIC 18.820,14 5.646,04 0,00 5.487,58 0,00 0,00 0,00 2.319,39 32.273,15 2.880,27 5.014,63 0,00 0,00 7.894,90 24.378,25 31/12/2020
594 510800 CRISTIANE SANTOS FERNANDES ORNELES ANALISTA DO MP BELO HORIZONTE - COMARCA; COORD ESTADUAL DAS PJS DE HAB. E URBANISMO 10.069,62 1.006,96 0,00 2.478,24 0,00 0,00 0,00 1.550,00 15.104,82 1.244,89 1.834,36 0,00 0,00 3.079,25 12.025,57 31/12/2020
595 535701 CRISTIANE SANTOS MIRANDA ANALISTA DO MP BETIM - COMARCA; BETIM-PJ-12PJ 7.421,79 445,31 0,00 2.160,96 0,00 0,00 0,00 1.550,00 11.578,06 873,98 1.001,61 0,00 0,00 1.875,59 9.702,47 31/12/2020
596 536200 CRISTIANO DE OLIVEIRA ANALISTA DO MP CONCEIÇÃO DO MATO DENTRO - COMARCA; CONCEICAO DO MATO DENTRO-PJ-UNPJ 10.069,62 1.006,96 0,00 2.926,20 0,00 0,00 0,00 2.319,39 16.322,17 1.244,89 1.782,22 0,00 0,00 3.027,11 13.295,06 31/12/2020
597 477400 CRISTIANO SOARES ELEUTERIO ANALISTA DO MP BELO HORIZONTE - COMARCA; BH-17PJ PATRIMONIO PUBLICO-SECRETARIA 11.085,56 2.217,11 0,00 2.790,48 0,00 0,00 0,00 1.550,00 17.643,15 1.508,02 2.374,17 0,00 0,00 3.882,19 13.760,96 31/12/2020
598 449400 CRISTIANO TEIXEIRA RODRIGUES LANA ANALISTA DO MP BELO HORIZONTE - COMARCA; COORD EST DEF DIR FAM PESSOAS DEFICI IDOSOS 10.069,62 2.013,92 0,00 2.624,49 0,00 0,00 0,00 1.550,00 16.258,03 1.362,94 2.078,80 0,00 0,00 3.441,74 12.816,29 31/12/2020
599 239400 CRISTINA DE FATIMA CRUZ E SILVA OFICIAL DO MP MONTE SANTO DE MINAS - COMARCA; MONTE SANTO DE MINAS-PJ-SECRETARIA 12.601,30 3.780,39 0,00 3.450,21 0,00 0,00 0,00 1.550,00 21.381,90 1.878,56 3.119,00 0,00 0,00 4.997,56 16.384,34 31/12/2020
600 544000 CRISTINA DE OLIVEIRA TERRA ANALISTA DO MP RIBEIRÃO DAS NEVES - COMARCA; RIBEIRAO DAS NEVES-PJ-09PJ 9.146,93 914,69 0,00 7.275,66 0,00 0,00 0,00 1.550,00 18.887,28 1.127,14 1.587,62 0,00 0,00 2.714,76 16.172,52 31/12/2020
601 356800 CRISTINA DE PINHO BARROSO OFICIAL DO MP SABINÓPOLIS - COMARCA; SABINOPOLIS-PJ-UNPJ 8.170,49 2.451,15 0,00 2.896,02 0,00 0,00 0,00 3.073,03 16.590,69 1.192,11 1.619,49 0,00 0,00 2.811,60 13.779,09 31/12/2020
602 649500 CRISTINA DO DIVINO ESPIRITO SANTOS OFICIAL DO MP DIVINÓPOLIS - COMARCA; DIVINOPOLIS-PJ-12PJ 4.817,57 289,05 0,00 2.138,37 0,00 0,00 0,00 1.550,00 8.794,99 562,05 343,74 0,00 0,00 905,79 7.889,20 31/12/2020
603 348201 CRISTINA MARIA DA SILVA ANALISTA DO MP ARAXÁ - COMARCA; ARAXA-PJ-06PJ 10.069,62 2.013,92 0,00 3.520,68 0,00 0,00 1.006,96 2.319,39 18.930,57 1.362,94 2.078,80 0,00 110,77 3.552,51 15.378,06 31/12/2020
604 434900 CRISTINA MELO DE MADUREIRA ANALISTA DO MP BELO HORIZONTE - COMARCA; BH-07PJ 01 TRIBUNAL JURI-SECRETARIA 13.011,52 2.602,30 0,00 3.329,25 0,00 0,00 0,00 1.550,00 20.493,07 1.784,88 2.933,60 0,00 0,00 4.718,48 15.774,59 31/12/2020
605 307700 CRISTINA TEIXEIRA MARQUES OFICIAL DO MP BELO HORIZONTE - COMARCA; CENTRAL DE APOIO TECNICO-SETOR CONTABIL 8.858,43 2.657,53 0,00 2.683,67 3.838,65 0,00 0,00 1.550,00 19.588,28 1.295,85 2.996,80 0,00 0,00 4.292,65 15.295,63 31/12/2020
606 265300 CRISTOVAO SANCHES DE MEDEIROS ANALISTA DO MP BELO HORIZONTE - COMARCA; DIRETORIA DE CONTABILIDADE 16.750,82 5.025,25 0,00 4.782,08 0,00 0,00 0,00 1.550,00 28.108,15 2.544,00 4.419,46 0,00 0,00 6.963,46 21.144,69 31/12/2020
607 349800 CROZEIR LUIZ DA SILVA OFICIAL DO MP UNAÍ - COMARCA; UNAI-PJ-SECRETARIA 9.444,70 1.888,94 0,00 2.972,81 3.777,88 0,00 0,00 4.315,56 22.399,89 1.274,70 2.883,63 0,00 0,00 4.158,33 18.241,56 31/12/2020
608 490500 CYNTHIA CRISTINA DE SOUZA OLIVEIRA VALENTE ANALISTA DO MP BELO HORIZONTE - COMARCA; BH-09PJ AUDITORIA MILITAR-SECRETARIA 10.069,62 1.006,96 0,00 4.008,27 0,00 0,00 0,00 1.550,00 16.634,85 1.244,89 1.834,36 0,00 0,00 3.079,25 13.555,60 31/12/2020
609 389800 CYNTHIA GARIGLIO DOS SANTOS OFICIAL DO MP PERDIZES - COMARCA; PERDIZES-PJ-SECRETARIA 6.529,10 1.305,82 0,00 2.260,15 0,00 0,00 0,00 2.319,39 12.414,46 870,35 889,49 0,00 0,00 1.759,84 10.654,62 31/12/2020
610 335101 CYNTHIA GONTIJO D ASSUNCAO ANALISTA DO MP BELO HORIZONTE - COMARCA; PROC. JUSTICA DIR. DIFUSOS E COLETIVOS-SEC 10.069,62 2.013,92 0,00 2.478,24 0,00 0,00 0,00 2.319,39 16.881,17 1.362,94 2.078,80 0,00 0,00 3.441,74 13.439,43 31/12/2020
611 269700 CYNTIA ROCHA CAVALCANTI OFICIAL DO MP UBERLÂNDIA - COMARCA; UBERLANDIA-PJ-06PJ 12.601,30 3.780,39 0,00 3.450,21 0,00 0,00 0,00 2.319,39 22.151,29 1.878,56 3.119,00 0,00 0,00 4.997,56 17.153,73 31/12/2020
612 278000 DAIRTON LOPES MARTINS FILHO COORDENADOR/ANALISTA BELO HORIZONTE - COMARCA; DIRETORIA DE SISTEMAS DE INFORMACAO 0,00 4.030,55 13.435,16 3.755,17 5.821,90 0,00 0,00 1.550,00 28.592,78 1.482,77 5.126,97 0,00 0,00 6.609,74 21.983,04 31/12/2020
613 392700 DALIANA CHAVES IBRAIM MARINHO OFICIAL DO MP ITAÚNA - COMARCA; ITAUNA-PJ-04PJ 7.187,72 1.437,54 0,00 2.230,75 2.875,09 0,00 0,00 1.550,00 15.281,10 960,53 2.029,09 0,00 0,00 2.989,62 12.291,48 31/12/2020
614 558101 DALLEY TASSIA SILVA ANALISTA DO MP MORADA NOVA DE MINAS - COMARCA; MORADA NOVA DE MINAS-PJ-UNPJ 8.436,53 843,65 0,00 6.929,48 0,00 0,00 0,00 3.088,78 19.298,44 1.036,50 1.293,38 0,00 0,00 2.329,88 16.968,56 31/12/2020
615 476700 DALTON DAUD ANALISTA DO MP ARAGUARI - COMARCA; ARAGUARI-PJ-05PJ 10.069,62 2.013,92 0,00 2.582,51 0,00 0,00 0,00 1.550,00 16.216,05 1.362,94 1.974,53 0,00 0,00 3.337,47 12.878,58 31/12/2020
616 426900 DANIEL ALVES DA SILVA OFICIAL DO MP BELO HORIZONTE - COMARCA; DIVISAO TRANSPORTES 6.123,79 1.224,76 0,00 5.715,29 0,00 0,00 0,00 1.550,00 14.613,84 815,39 822,98 0,00 0,00 1.638,37 12.975,47 31/12/2020
617 122000 DANIEL ANTONIO VIEIRA OFICIAL DO MP ENTRE-RIOS DE MINAS - COMARCA; ENTRE RIOS DE MINAS-PJ-SECRETARIA 10.069,62 8.055,69 0,00 12.773,27 0,00 0,00 0,00 1.550,00 32.448,58 2.091,29 3.331,45 0,00 0,00 5.422,74 27.025,84 31/12/2020
618 411000 DANIEL FERREIRA DA SILVA ANALISTA DO MP GOVERNADOR VALADARES - COMARCA; GOVERNADOR VALADARES-PJ-15PJ 12.601,30 3.780,39 0,00 3.658,76 0,00 0,00 0,00 3.088,78 23.129,23 1.878,56 2.910,45 0,00 0,00 4.789,01 18.340,22 31/12/2020
619 309000 DANIEL GOMES DOS SANTOS ANALISTA DO MP POÇOS DE CALDAS - COMARCA; POCOS DE CALDAS-PJ-03PJ 17.413,92 5.224,18 0,00 5.104,95 0,00 0,00 0,00 1.550,00 29.293,05 2.651,75 4.626,89 0,00 0,00 7.278,64 22.014,41 31/12/2020
620 554500 DANIEL GOMES PEREIRA OFICIAL DO MP NANUQUE - COMARCA; NANUQUE-PJ-02PJ 5.930,75 593,08 0,00 2.050,13 0,00 0,00 0,00 1.550,00 10.123,96 722,19 726,09 0,00 0,00 1.448,28 8.675,68 31/12/2020
621 453000 DANIEL GONCALVES PEREIRA ANALISTA DO MP UNAÍ - COMARCA; UNAI-PJ-02PJ 10.069,62 2.013,92 0,00 2.624,49 0,00 0,00 0,00 3.472,93 18.180,96 1.362,94 2.078,80 0,00 0,00 3.441,74 14.739,22 31/12/2020
622 495500 DANIEL GUIMARAES CABRAL OFICIAL DO MP BELO HORIZONTE - COMARCA; BH-17PJ PATRIMONIO PUBLICO-SECRETARIA 6.123,79 612,38 0,00 1.847,78 0,00 0,00 0,00 1.550,00 10.133,95 746,19 777,89 0,00 0,00 1.524,08 8.609,87 31/12/2020
623 442900 DANIEL GUIMARAES GONCALVES ANALISTA DO MP UBERLÂNDIA - COMARCA; UBERLANDIA-PJ-03PJ 12.601,30 2.520,26 0,00 3.251,70 0,00 0,00 0,00 1.550,00 19.923,26 1.724,83 2.814,74 0,00 0,00 4.539,57 15.383,69 31/12/2020
624 655900 DANIEL LUIZ DA SILVA ASSESSOR BELO HORIZONTE - COMARCA; DIV FISCAL ADM CONT TERCEIRIZACAO 0,00 0,00 3.076,28 1.472,03 0,00 0,00 0,00 1.550,00 6.098,31 734,41 205,10 0,00 0,00 939,51 5.158,80 31/12/2020
625 464600 DANIEL PIACENTINI STIVANIN ANALISTA DO MP ANDRADAS - COMARCA; ANDRADAS-PJ-02PJ 10.069,62 2.013,92 0,00 2.478,24 0,00 0,00 0,00 1.550,00 16.111,78 1.362,94 2.078,80 0,00 0,00 3.441,74 12.670,04 31/12/2020
626 417000 DANIEL QUEIROZ FERREIRA ANALISTA DO MP SÃO SEBASTIÃO DO PARAÍSO - COMARCA; SAO SEBASTIAO DO PARAISO-PJ-05PJ 12.601,30 2.520,26 0,00 3.251,70 0,00 0,00 0,00 1.550,00 19.923,26 1.724,83 2.814,74 0,00 0,00 4.539,57 15.383,69 31/12/2020
627 396700 DANIEL SILVA CARNEVALLI DIRETOR/ANALISTA BELO HORIZONTE - COMARCA; SUPERINTENDENCIA DE TECNOLOGIA DA INFORMACAO 0,00 3.482,78 17.413,92 4.027,01 6.965,57 0,00 0,00 2.319,39 34.208,67 1.977,07 5.867,85 0,00 1.386,24 9.231,16 24.977,51 31/12/2020
628 489300 DANIEL TABOZA ROCHA ANALISTA DO MP IPATINGA - COMARCA; IPATINGA-PJ-08PJ 10.069,62 1.006,96 0,00 2.478,24 0,00 0,00 0,00 2.319,39 15.874,21 1.244,89 1.834,36 0,00 0,00 3.079,25 12.794,96 31/12/2020
629 414100 DANIEL TARDELI VALADAO ANALISTA DO MP TRÊS CORACOES - COMARCA; TRES CORACOES-PJ-02PJ 12.601,30 2.520,26 0,00 3.460,25 0,00 0,00 0,00 3.088,78 21.670,59 1.724,83 2.606,19 0,00 0,00 4.331,02 17.339,57 31/12/2020
630 446601 DANIEL VIEIRA BUENO ANALISTA DO MP SÃO DOMINGOS DO PRATA - COMARCA; SAO DOMINGOS DO PRATA-PJ-UNPJ 8.858,43 885,84 0,00 2.569,79 0,00 0,00 0,00 2.319,39 14.633,45 1.090,34 1.458,33 0,00 0,00 2.548,67 12.084,78 31/12/2020
631 253200 DANIELA BATISTA LIMA BARBOSA ASSESSOR BELO HORIZONTE - COMARCA; CENTRAL DE APOIO TECN-SETOR DE MEIO AMBIENTE 0,00 1.540,90 5.136,32 2.567,84 0,00 0,00 0,00 1.550,00 10.795,06 1.426,18 1.073,27 0,00 0,00 2.499,45 8.295,61 31/12/2020
632 505800 DANIELA BORGES DE MATTOS RESENDE ANALISTA DO MP JUIZ DE FORA - COMARCA; JUIZ DE FORA-PJ-20PJ 10.069,62 1.006,96 0,00 4.008,27 0,00 0,00 0,00 2.319,39 17.404,24 1.244,89 1.834,36 0,00 0,00 3.079,25 14.324,99 31/12/2020
633 478000 DANIELA CARVALHO SOARES ANALISTA DO MP SÃO JOÃO DEL REI - COMARCA; SAO JOAO DEL REI-PJ-01PJ 10.069,62 2.013,92 0,00 4.008,27 0,00 0,00 0,00 1.550,00 17.641,81 1.362,94 2.078,80 0,00 0,00 3.441,74 14.200,07 31/12/2020
634 275900 DANIELA CHAGAS SODRE ANALISTA DO MP BELO HORIZONTE - COMARCA; CENTRAL DE APOIO TECNICO-SETOR CONTABIL 17.413,92 5.224,18 0,00 4.545,87 0,00 0,00 0,00 1.550,00 28.733,97 2.651,75 4.574,75 0,00 0,00 7.226,50 21.507,47 31/12/2020
635 234301 DANIELA CRUZ SOARES ANALISTA DO MP BELO HORIZONTE - COMARCA; LABORATORIO TECNOLOGIA INTELIGENCIA 18.103,37 5.431,01 0,00 4.637,28 0,00 0,00 0,00 1.550,00 29.721,66 2.763,79 4.842,55 0,00 0,00 7.606,34 22.115,32 31/12/2020
636 638000 DANIELA DE ALMEIDA BATISTA ANALISTA DO MP ANDRELÂNDIA - COMARCA; ANDRELANDIA-PJ-UNPJ 8.170,49 817,05 0,00 2.816,77 0,00 0,00 924,48 2.319,39 15.048,18 674,42 1.670,98 0,00 0,00 2.345,40 12.702,78 31/12/2020
637 301000 DANIELA DE ALMEIDA E OLIVEIRA ANALISTA DO MP BELO HORIZONTE - COMARCA; DIRETORIA DE SISTEMAS DE INFORMACAO 17.413,92 5.224,18 0,00 4.493,73 0,00 0,00 0,00 1.550,00 28.681,83 2.651,75 4.626,89 0,00 0,00 7.278,64 21.403,19 31/12/2020
638 296000 DANIELA DE AZEVEDO SILVA ANALISTA DO MP BRASÓPOLIS - COMARCA; BRASOPOLIS-PJ-UNPJ 16.750,82 5.025,25 0,00 4.355,80 0,00 0,00 0,00 1.550,00 27.681,87 2.544,00 4.419,46 0,00 0,00 6.963,46 20.718,41 31/12/2020
639 453500 DANIELA DE CASTRO SOUSA BARBOSA ANALISTA DO MP BELO HORIZONTE - COMARCA; BH-08PJ JUIZADO ESPECIAL-SECRETARIA 10.069,62 2.013,92 0,00 2.624,49 0,00 0,00 0,00 1.550,00 16.258,03 1.362,94 2.078,80 0,00 0,00 3.441,74 12.816,29 31/12/2020
640 506000 DANIELA DE OLIVEIRA CAVALIERI ANALISTA DO MP BELO HORIZONTE - COMARCA; BH-14PJ DEFESA CONSUMIDOR-GAB 005PJ 10.069,62 1.006,96 0,00 2.746,32 0,00 0,00 0,00 1.550,00 15.372,90 1.244,89 1.834,36 0,00 0,00 3.079,25 12.293,65 31/12/2020
641 546200 DANIELA DE VILHENA LEMES GONCALVES OFICIAL DO MP TRÊS CORACOES - COMARCA; TRES CORACOES-PJ-05PJ 5.387,19 538,72 0,00 2.438,39 0,00 0,00 0,00 1.550,00 9.914,30 654,63 475,97 0,00 0,00 1.130,60 8.783,70 31/12/2020
642 356400 DANIELA LEAL FERRAZ ANALISTA DO MP MONTES CLAROS - COMARCA; COORD REG PJ DEF EDUC DIR CRIANCA ADOL NORTE 14.790,66 2.958,13 0,00 3.665,65 0,00 0,00 0,00 1.550,00 22.964,44 2.045,35 3.449,09 0,00 0,00 5.494,44 17.470,00 31/12/2020
643 501000 DANIELA LOURENCO SANTOS DA SILVA GUIMARAES ANALISTA DO MP BELO HORIZONTE - COMARCA; BH-12PJ JUIZO CRIMINAL-GAB 095PJ 10.069,62 1.006,96 0,00 2.530,37 0,00 0,00 0,00 1.550,00 15.156,95 1.244,89 1.782,22 0,00 0,00 3.027,11 12.129,84 31/12/2020
644 195801 DANIELA MARIA DE OLIVEIRA QUEIROZ ANALISTA DO MP ARAGUARI - COMARCA; ARAGUARI-PJ-06PJ 13.011,52 5.204,61 0,00 3.739,24 6.072,04 0,00 0,00 1.550,00 29.577,41 2.102,36 5.231,74 0,00 0,00 7.334,10 22.243,31 31/12/2020
645 511400 DANIELA MARIA LARA DE OLIVEIRA ANALISTA DO MP BOA ESPERANÇA - COMARCA; BOA ESPERANCA-PJ-02PJ 10.069,62 1.006,96 0,00 4.034,33 3.692,19 0,00 0,00 2.319,39 21.122,49 1.244,89 2.797,57 0,00 0,00 4.042,46 17.080,03 31/12/2020
646 252101 DANIELA PAULA ALVES PENA ANALISTA DO MP CONTAGEM - COMARCA; CONTAGEM-PJ-APO TECNICO 14.324,23 5.729,69 0,00 4.498,92 0,00 0,00 0,00 1.550,00 26.102,84 2.329,16 4.004,95 0,00 0,00 6.334,11 19.768,73 31/12/2020
647 604700 DANIELA PEIXOTO NOGUEIRA COORDENADOR/OFICIAL BELO HORIZONTE - COMARCA; DIRET DE FORMACAO, APERFEIC. E POS-GRADUACAO 0,00 1.181,92 11.819,15 4.797,82 0,00 0,00 237,02 2.319,39 20.355,30 722,19 2.427,82 0,00 526,16 3.676,17 16.679,13 31/12/2020
648 429600 DANIELA PIMENTA NUNES MACHADO ANALISTA DO MP BELO HORIZONTE - COMARCA; BH-05PJ-JUÍZO SUCESSÕES-SEC 13.011,52 2.602,30 0,00 10.942,16 0,00 0,00 0,00 2.319,39 28.875,37 1.784,88 2.881,46 0,00 0,00 4.666,34 24.209,03 31/12/2020
649 662000 DANIELA RIBAS DE AVILA ASSESSOR I BELO HORIZONTE - COMARCA; DIRETORIA DE SEGURANCA 0,00 0,00 8.170,49 2.903,82 0,00 0,00 0,00 1.550,00 12.624,31 1.426,18 1.483,92 0,00 0,00 2.910,10 9.714,21 31/12/2020
650 462000 DANIELA SOUSA GOMES DO AMARAL ANALISTA DO MP BETIM - COMARCA; BETIM-PJ-04PJ 10.069,62 2.013,92 0,00 4.008,27 0,00 0,00 0,00 1.550,00 17.641,81 1.362,94 2.078,80 0,00 0,00 3.441,74 14.200,07 31/12/2020
651 427000 DANIELA TEIXEIRA DINIZ ANDRADE ANALISTA DO MP BELO HORIZONTE - COMARCA; DIRETORIA DE PROJETOS DE EDIFICACOES 10.069,62 2.013,92 0,00 2.676,63 0,00 0,00 0,00 1.550,00 16.310,17 1.362,94 2.026,67 0,00 0,00 3.389,61 12.920,56 31/12/2020
652 337200 DANIELA TOLEDO SENIUK ANALISTA DO MP BELO HORIZONTE - COMARCA; GABINETE DE PROCURADOR DE JUSTIÇA - SALA 412 13.435,16 4.030,55 0,00 6.191,32 0,00 0,00 0,00 1.550,00 25.207,03 2.010,82 3.380,73 0,00 0,00 5.391,55 19.815,48 31/12/2020
653 605600 DANIELE ALZIRA SILVA CABRAL MOREIRA OFICIAL DO MP BELO HORIZONTE - COMARCA; BH-10PJ EXECUÇÃO PENAL-SECRETARIA 5.930,75 593,08 0,00 2.050,13 2.174,61 0,00 0,00 2.319,39 13.067,96 722,19 1.324,11 0,00 0,00 2.046,30 11.021,66 31/12/2020
654 195500 DANIELE CHAVES FONSECA OFICIAL DO MP BELO HORIZONTE - COMARCA; ASSESSORIA ESPECIAL DO PGJ 15.499,20 6.199,68 0,00 4.662,65 0,00 0,00 0,00 1.550,00 27.911,53 2.534,35 4.400,88 0,00 0,00 6.935,23 20.976,30 31/12/2020
655 323400 DANIELE MEGALE SANTINI OFICIAL DO MP BELO HORIZONTE - COMARCA; CGMP-DIVIS DE APOIO FISC ORIENTACAO FUNCIONAL 10.069,62 3.020,89 0,00 2.987,35 0,00 0,00 0,00 1.550,00 17.627,86 1.482,77 2.270,63 0,00 0,00 3.753,40 13.874,46 31/12/2020
656 357900 DANIELE REJANE PINTO VERSIEUX OFICIAL DO MP PEDRO LEOPOLDO - COMARCA; PEDRO LEOPOLDO-PJ-03PJ 9.146,93 1.829,39 0,00 2.598,69 0,00 0,00 0,00 1.550,00 15.125,01 1.233,26 1.809,98 0,00 0,00 3.043,24 12.081,77 31/12/2020
657 389500 DANIELE VASCONCELOS AMORIM PRADO OFICIAL DO MP SÃO SEBASTIÃO DO PARAÍSO - COMARCA; SAO SEBASTIAO DO PARAISO-PJ-04PJ 8.858,43 1.771,69 0,00 2.544,12 0,00 0,00 0,00 1.550,00 14.724,24 1.193,09 1.725,82 0,00 0,00 2.918,91 11.805,33 31/12/2020
658 629700 DANIELLA BASTOS MARTINS BICALHO OFICIAL DO MP GOVERNADOR VALADARES - COMARCA; GOVERNADOR VALADARES-PJ-16PJ 5.387,19 538,72 0,00 4.672,50 0,00 0,00 0,00 1.550,00 12.148,41 654,63 580,24 0,00 0,00 1.234,87 10.913,54 31/12/2020
659 265000 DANIELLE CASTANHEIRA SCALABRINI OFICIAL DO MP BELO HORIZONTE - COMARCA; JUNTA RECURSAL DO PROCON ESTADUAL 10.069,62 3.020,89 0,00 2.875,02 0,00 0,00 0,00 1.550,00 17.515,53 1.482,77 2.218,49 0,00 0,00 3.701,26 13.814,27 31/12/2020
660 490100 DANIELLE DE AVILA SILVA LOPES ANALISTA DO MP BELO HORIZONTE - COMARCA; PROC. JUSTICA DIR. DIFUSOS E COLETIVOS-SEC 10.069,62 3.020,89 0,00 2.770,75 0,00 0,00 0,00 3.088,78 18.950,04 1.482,77 2.322,77 0,00 0,00 3.805,54 15.144,50 31/12/2020
661 549600 DANIELLE GOMES LOPES RODRIGUES OFICIAL DO MP VESPASIANO - COMARCA; VESPASIANO-PJ-02PJ 5.930,75 593,08 0,00 5.013,09 0,00 0,00 0,00 1.550,00 13.086,92 722,19 726,09 0,00 0,00 1.448,28 11.638,64 31/12/2020
662 613000 DANIELLE SILVA OLIVEIRA FRANKLIN ASSESSOR/OFICIAL BELO HORIZONTE - COMARCA; DIRETORIA DE ORCAMENTO-DIOR/SPC 0,00 1.039,75 10.397,52 8.668,24 0,00 0,00 0,00 3.088,78 23.194,29 654,63 2.005,45 0,00 328,80 2.988,88 20.205,41 31/12/2020
663 380800 DANILLO RIBEIRO ANTUNES ANALISTA DO MP MONTES CLAROS - COMARCA; MONTES CLAROS-PJ-SECRETARIA 14.324,23 2.864,85 0,00 4.032,56 0,00 0,00 0,00 1.550,00 22.771,64 1.977,07 3.261,81 0,00 0,00 5.238,88 17.532,76 31/12/2020
664 453700 DANILO BOTELHO DE CARVALHO ASSESSOR/ANALISTA BELO HORIZONTE - COMARCA; SUPERINTENDENCIA DE FINANCAS 0,00 4.939,57 24.697,83 6.283,76 0,00 0,00 0,00 2.319,39 38.240,55 1.724,83 6.699,64 0,00 388,93 8.813,40 29.427,15 31/12/2020
665 391200 DANILO D'AVILA MENDES ANALISTA DO MP MONTES CLAROS - COMARCA; GAECO REGIONAL DE MONTES CLAROS 14.324,23 2.864,85 0,00 3.980,42 0,00 0,00 0,00 2.319,39 23.488,89 1.977,07 3.313,94 0,00 0,00 5.291,01 18.197,88 31/12/2020
666 494900 DANILO GAVIAO AVELINO DE MELLO ANALISTA DO MP POUSO ALEGRE - COMARCA; GAECO REGIONAL DE POUSO ALEGRE 10.069,62 1.006,96 0,00 4.008,27 0,00 0,00 0,00 2.319,39 17.404,24 1.244,89 1.834,36 0,00 0,00 3.079,25 14.324,99 31/12/2020
667 604300 DANILO NASCIMENTO SALGADO ANALISTA DO MP JANAÚBA - COMARCA; JANAUBA-PJ-01PJ 9.146,93 914,69 0,00 2.635,57 0,00 0,00 0,00 1.550,00 14.247,19 1.127,14 1.587,62 0,00 0,00 2.714,76 11.532,43 31/12/2020
668 298300 DANUZA MONICA DE SOUZA DINIZ ANALISTA DO MP BELO HORIZONTE - COMARCA; ASSESSORIA ESPECIAL DO PGJ 13.872,60 4.161,78 0,00 4.185,53 0,00 0,00 0,00 1.550,00 23.769,91 2.080,20 3.465,90 0,00 0,00 5.546,10 18.223,81 31/12/2020
669 398700 DARCY LUIZ MILEO GREGATTI OFICIAL DO MP LAMBARI - COMARCA; LAMBARI-PJ-SECRETARIA 8.579,10 1.715,82 0,00 3.792,46 0,00 0,00 0,00 1.550,00 15.637,38 1.154,21 1.644,34 0,00 0,00 2.798,55 12.838,83 31/12/2020
670 406200 DARIANA AUGUSTA DE TOLEDO PATROCINIO RUIZ COORDENADOR/OFICIAL BELO HORIZONTE - COMARCA; DIRETORIA GESTAO COMPRAS LICITACOES 0,00 2.687,03 13.435,16 3.612,23 5.374,06 0,00 0,00 1.550,00 26.658,48 1.193,09 4.632,90 0,00 294,96 6.120,95 20.537,53 31/12/2020
671 586901 DARIO VITORINO DE CARVALHO SILVA ASSESSOR BELO HORIZONTE - COMARCA; DIRETORIA DE SEGURANCA 0,00 0,00 17.413,92 13.742,69 0,00 0,00 0,00 1.550,00 32.706,61 1.426,18 3.973,73 0,00 0,00 5.399,91 27.306,70 31/12/2020
672 305000 DARLI LEITE DE OLIVEIRA OFICIAL DO MP ARAÇUAÍ - COMARCA; ARACUAI-PJ-01PJ 6.123,79 1.837,14 0,00 2.182,09 0,00 0,00 0,00 1.550,00 11.693,02 884,58 920,22 0,00 0,00 1.804,80 9.888,22 31/12/2020
673 122200 DAVID RIBEIRO DOS SANTOS ANALISTA DO MP BORDA DA MATA - COMARCA; BORDA DA MATA-PJ-UNPJ 18.820,14 15.056,11 0,00 8.491,51 0,00 4.056,52 0,00 1.550,00 47.974,28 4.056,52 8.446,61 0,00 0,00 12.503,13 35.471,15 31/12/2020
674 389400 DAWSON CANEDO MARQUES OFICIAL DO MP TRÊS CORACOES - COMARCA; TRES CORACOES-PJ-01PJ 8.858,43 1.771,69 0,00 2.544,12 0,00 0,00 0,00 1.550,00 14.724,24 1.193,09 1.036,12 0,00 0,00 2.229,21 12.495,03 31/12/2020
675 537200 DAYANE TEIXEIRA DE OLIVEIRA CASELLI ANALISTA DO MP BELO HORIZONTE - COMARCA; GABINETE DE PROCURADOR DE JUSTIÇA - SALA 705 7.421,79 445,31 0,00 2.012,06 0,00 0,00 0,00 1.550,00 11.429,16 873,98 1.053,75 0,00 0,00 1.927,73 9.501,43 31/12/2020
676 256100 DAYSE ROSALY PEREIRA BATISTA OFICIAL DO MP BELO HORIZONTE - COMARCA; BH-08PJ JUIZADO ESPECIAL-SECRETARIA 10.069,62 3.020,89 0,00 2.770,75 0,00 0,00 0,00 1.550,00 17.411,26 1.482,77 2.322,77 0,00 0,00 3.805,54 13.605,72 31/12/2020
677 311901 DEBORA APARECIDA DA SILVA ASSESSOR BELO HORIZONTE - COMARCA; BH-23PJ CIVEL-SETOR ATEND PUB 0,00 0,00 3.076,28 1.472,03 0,00 0,00 0,00 1.550,00 6.098,31 734,41 205,10 0,00 0,00 939,51 5.158,80 31/12/2020
678 194301 DEBORA APARECIDA DOS SANTOS ANALISTA DO MP UBERLÂNDIA - COMARCA; UBERLANDIA-PJ-SEC FAMILIA 18.820,14 7.528,06 0,00 5.827,83 0,00 0,00 0,00 1.550,00 33.726,03 3.115,51 5.467,49 0,00 0,00 8.583,00 25.143,03 31/12/2020
679 518800 DEBORA CARVALHO FIORATTO COORDENADOR/OFICIAL BELO HORIZONTE - COMARCA; DIRETORIA MATERIAIS E SERVICOS 0,00 1.343,52 13.435,16 3.461,18 0,00 0,00 0,00 2.319,39 20.559,25 907,53 2.628,35 0,00 1.152,20 4.688,08 15.871,17 31/12/2020
680 444900 DEBORA CLAUDIA PEREIRA ALVES ANALISTA DO MP BELO HORIZONTE - COMARCA; BH-08PJ JUIZADO ESPECIAL-SECRETARIA 10.069,62 2.013,92 0,00 4.333,14 4.027,85 0,00 0,00 1.550,00 21.994,53 1.362,94 3.186,46 0,00 0,00 4.549,40 17.445,13 31/12/2020
681 617700 DEBORA COMANDUCI SCHREIDER ANALISTA DO MP BICAS - COMARCA; BICAS-PJ-UNPJ 8.436,53 843,65 0,00 2.383,57 0,00 0,00 544,44 7.489,32 19.697,51 1.036,50 1.345,51 0,00 0,00 2.382,01 17.315,50 31/12/2020
682 555700 DEBORA CRISTINA BUITRAGO PEREIRA ANALISTA DO MP BELO HORIZONTE - COMARCA; DIRETORIA GESTAO CONTRATOS CONVENIOS 9.146,93 914,69 0,00 2.635,57 0,00 0,00 0,00 3.088,78 15.785,97 1.127,14 1.587,62 0,00 0,00 2.714,76 13.071,21 31/12/2020
683 513100 DEBORA CRISTINA PEREIRA DE OLIVEIRA ANALISTA DO MP BELO HORIZONTE - COMARCA; BH-23PJ CIVEL-SETOR JURIDICO 10.069,62 1.006,96 0,00 2.478,24 0,00 0,00 0,00 2.319,39 15.874,21 1.244,89 1.834,36 0,00 0,00 3.079,25 12.794,96 31/12/2020
684 612100 DEBORA DUARTE SILVA DE SOUZA OFICIAL DO MP RIBEIRÃO DAS NEVES - COMARCA; RIBEIRAO DAS NEVES-PJ-06PJ 5.387,19 1.616,16 0,00 2.076,98 0,00 0,00 0,00 1.550,00 10.630,33 776,38 738,78 0,00 0,00 1.515,16 9.115,17 31/12/2020
685 539700 DEBORA SALES CARVALHO ANALISTA DO MP PATOS DE MINAS - COMARCA; COORD REG PJ DEF EDU DIR CRI ADO AL PAR NOROE 9.146,93 914,69 0,00 2.635,57 0,00 0,00 0,00 1.550,00 14.247,19 1.127,14 1.587,62 0,00 0,00 2.714,76 11.532,43 31/12/2020
686 424100 DEBORA SANTOS E ALVES ANALISTA DO MP JANUÁRIA - COMARCA; JANUARIA-PJ-01PJ 13.011,52 2.602,30 0,00 3.329,25 0,00 0,00 0,00 3.088,78 22.031,85 1.784,88 2.933,60 0,00 0,00 4.718,48 17.313,37 31/12/2020
687 426301 DEBORA SCUCATO MACHADO SOARES OFICIAL DO MP ITABIRITO - COMARCA; ITABIRITO-PJ-01PJ 5.930,75 1.186,15 0,00 5.389,79 0,00 0,00 0,00 2.319,39 14.826,08 789,21 870,75 0,00 0,00 1.659,96 13.166,12 31/12/2020
688 678100 DEBORA SOUZA COSTA ASSESSOR PROMOTOR JUSTICA BOTELHOS - COMARCA; BOTELHOS-PJ-UNPJ 0,00 0,00 7.187,72 2.948,36 0,00 0,00 0,00 1.550,00 11.686,08 994,11 1.161,52 0,00 0,00 2.155,63 9.530,45 31/12/2020
689 550200 DEBORA TRINDADE LEITE ANALISTA DO MP MANHUAÇU - COMARCA; MANHUACU-PJ-05PJ 9.146,93 914,69 0,00 2.739,84 0,00 0,00 0,00 1.550,00 14.351,46 1.127,14 1.483,35 0,00 0,00 2.610,49 11.740,97 31/12/2020
690 438000 DEBORAH COSTA LAGE ANALISTA DO MP BELO HORIZONTE - COMARCA; PROC JUST RECURSOS ESP E EXTRAORD CRIMINAIS 13.011,52 2.602,30 0,00 3.329,25 0,00 0,00 0,00 1.550,00 20.493,07 1.784,88 2.933,60 0,00 0,00 4.718,48 15.774,59 31/12/2020
691 475700 DEBORAH LOBAO LACERDA ASSESSOR/OFICIAL BELO HORIZONTE - COMARCA; BH-17PJ PATRIMONIO PUBLICO-SECRETARIA 0,00 1.634,10 8.170,49 2.354,35 0,00 0,00 0,00 1.550,00 13.708,94 815,39 1.602,67 0,00 0,00 2.418,06 11.290,88 31/12/2020
692 678500 DEBORAH PESSOA DA SILVA GUEDES ASSESSOR PROCURADOR JUSTICA BELO HORIZONTE - COMARCA; GABINETE DE PROCURADOR DE JUSTIÇA - SALA 703 0,00 0,00 7.187,72 2.934,14 0,00 0,00 0,00 1.550,00 11.671,86 994,11 1.213,66 0,00 0,00 2.207,77 9.464,09 31/12/2020
693 613700 DEISER MARIA FERREIRA ROSCOE OFICIAL DO MP BELO HORIZONTE - COMARCA; DIVISAO FROTA 5.387,19 538,72 0,00 1.802,96 0,00 0,00 0,00 1.550,00 9.278,87 654,63 580,24 0,00 0,00 1.234,87 8.044,00 31/12/2020
694 551900 DEISY ROCHA DA SILVA ANALISTA DO MP CARMO DO PARANAÍBA - COMARCA; CARMO DO PARANAIBA-PJ-01PJ 9.146,93 914,69 0,00 3.846,96 0,00 0,00 0,00 1.550,00 15.458,58 1.127,14 1.587,62 0,00 0,00 2.714,76 12.743,82 31/12/2020
695 501900 DELI RAQUEL RODRIGUES ANALISTA DO MP ITUIUTABA - COMARCA; ITUIUTABA-PJ-04PJ 10.069,62 1.006,96 0,00 8.016,53 0,00 0,00 0,00 1.550,00 20.643,11 1.244,89 1.834,36 0,00 0,00 3.079,25 17.563,86 31/12/2020
696 378600 DELIANE LOPES VIEIRA BREIJAO ANALISTA DO MP JUIZ DE FORA - COMARCA; JUIZ DE FORA-PJ-12PJ 14.324,23 2.864,85 0,00 4.032,56 0,00 0,00 0,00 1.550,00 22.771,64 1.977,07 3.261,81 0,00 0,00 5.238,88 17.532,76 31/12/2020
697 487700 DENIA FERREIRA MAIA SILVA OFICIAL DO MP TRÊS CORACOES - COMARCA; TRES CORACOES-PJ-04PJ 6.123,79 612,38 0,00 2.660,07 0,00 0,00 0,00 2.319,39 11.715,63 746,19 673,61 0,00 0,00 1.419,80 10.295,83 31/12/2020
698 424800 DENIS APARECIDO CAMPOS DELFINO ANALISTA DO MP LUZ - COMARCA; LUZ-PJ-UNPJ 12.601,30 2.520,26 0,00 3.460,25 0,00 0,00 0,00 2.319,39 20.901,20 1.724,83 2.606,19 0,00 0,00 4.331,02 16.570,18 31/12/2020
699 381400 DENISE ANGELICA MELLO DE PAULA OFICIAL DO MP BELO HORIZONTE - COMARCA; BH-18PJ DIREITOS HUMANOS-SECRETARIA 8.858,43 1.771,69 0,00 2.544,12 0,00 0,00 0,00 2.319,39 15.493,63 1.193,09 1.725,82 0,00 0,00 2.918,91 12.574,72 31/12/2020
700 196300 DENISE DE ALMEIDA VILELA FURTADO OFICIAL DO MP BELO HORIZONTE - COMARCA; CENTRAL DE APOIO TECNICO-SECRETARIA 12.204,02 4.881,61 0,00 3.561,18 0,00 0,00 0,00 2.703,54 23.350,35 1.964,44 3.288,97 0,00 0,00 5.253,41 18.096,94 31/12/2020
701 336900 DENISE DE SOUSA MORAES SILVA OFICIAL DO MP MATEUS LEME - COMARCA; MATEUS LEME-PJ-02PJ 6.123,79 1.837,14 0,00 2.522,78 0,00 884,58 0,00 1.550,00 12.918,29 884,58 1.319,90 0,00 0,00 2.204,48 10.713,81 31/12/2020
702 271100 DENISE ELOY PEIXOTO OFICIAL DO MP BELO HORIZONTE - COMARCA; DIRETORIA DE INTELIGENCIA 12.601,30 3.780,39 0,00 3.450,21 0,00 0,00 0,00 1.550,00 21.381,90 1.878,56 3.119,00 0,00 0,00 4.997,56 16.384,34 31/12/2020
703 385400 DENISE FREITAS DE ASSIS ASSESSOR/OFICIAL CARATINGA - COMARCA; CARATINGA-PJ-SECRETARIA 0,00 2.079,50 10.397,52 4.258,52 0,00 0,00 0,00 1.550,00 18.285,54 1.154,21 2.244,41 0,00 0,00 3.398,62 14.886,92 31/12/2020
704 437100 DENISE NOGUEIRA MAGRI MENDES ANALISTA DO MP BELO HORIZONTE - COMARCA; LAB TECNOLOGIA CONTRA LAVAGEM DINHEIRO 13.011,52 3.903,46 0,00 11.881,50 0,00 0,00 0,00 1.550,00 30.346,48 1.943,62 3.091,35 0,00 0,00 5.034,97 25.311,51 31/12/2020
705 524700 DENISE RAMOS GUIMARAES OFICIAL DO MP BELO HORIZONTE - COMARCA; BH-07PJ 01 TRIBUNAL JURI-SECRETARIA 6.123,79 612,38 0,00 1.930,59 0,00 0,00 0,00 1.550,00 10.216,76 746,19 777,89 0,00 0,00 1.524,08 8.692,68 31/12/2020
706 239100 DENISE RIBEIRO DOS SANTOS CAETANO OFICIAL DO MP ITANHANDU - COMARCA; ITANHANDU-PJ-SECRETARIA 12.601,30 3.780,39 0,00 3.502,35 0,00 0,00 0,00 1.550,00 21.434,04 1.878,56 3.066,86 0,00 0,00 4.945,42 16.488,62 31/12/2020
707 325500 DENISE ROSA TORRES OFICIAL DO MP BELO HORIZONTE - COMARCA; DIRETORIA DE PESSOAL ADMINISTRATIVO - DPAD 10.069,62 3.020,89 0,00 2.805,45 0,00 0,00 0,00 1.550,00 17.445,96 1.482,77 2.322,77 0,00 0,00 3.805,54 13.640,42 31/12/2020
708 437200 DENISE VIVIANE DOS SANTOS ANALISTA DO MP BELO HORIZONTE - COMARCA; ASSESS TECNICA DA CORREGEDORIA-GERAL DO MP 11.085,56 2.217,11 0,00 3.069,40 0,00 0,00 0,00 2.703,54 19.075,61 1.508,02 2.269,90 0,00 0,00 3.777,92 15.297,69 31/12/2020
709 267900 DENISIA DE ALMEIDA SALES OFICIAL DO MP BELO HORIZONTE - COMARCA; BH-18PJ DIREITOS HUMANOS-SECRETARIA 9.444,70 2.833,41 0,00 2.855,86 0,00 0,00 0,00 1.550,00 16.683,97 1.386,09 2.073,81 0,00 0,00 3.459,90 13.224,07 31/12/2020
710 480300 DESIREE ARANTES FERREIRA GOUVEA OFICIAL DO MP PRATÁPOLIS - COMARCA; PRATAPOLIS-PJ-UNPJ 6.123,79 612,38 0,00 2.607,93 0,00 0,00 0,00 1.550,00 10.894,10 746,19 777,89 0,00 0,00 1.524,08 9.370,02 31/12/2020
711 355300 DEYSE CRISTINA MORAIS OFICIAL DO MP PASSOS - COMARCA; PASSOS-PJ-02PJ 9.444,70 1.888,94 0,00 2.920,67 3.777,88 0,00 0,00 1.550,00 19.582,19 1.274,70 2.935,77 0,00 0,00 4.210,47 15.371,72 31/12/2020
712 523700 DIANA CAMPOS RESENDE OFICIAL DO MP SÃO JOÃO DEL REI - COMARCA; SAO JOAO DEL REI-PJ-04PJ 7.421,79 3.710,90 0,00 2.936,40 0,00 0,00 0,00 1.550,00 15.619,09 1.251,39 1.795,86 0,00 0,00 3.047,25 12.571,84 31/12/2020
713 241900 DIANA CARDOSO MARTINS OFICIAL DO MP BELO HORIZONTE - COMARCA; CAO-CRIMINAL 9.146,93 2.744,08 0,00 2.742,79 0,00 0,00 0,00 1.550,00 16.183,80 1.340,03 2.032,16 0,00 0,00 3.372,19 12.811,61 31/12/2020
714 410100 DIANA GORDILHO SILVEIRA SENA ANALISTA DO MP BELO HORIZONTE - COMARCA; GABINETE DE PROCURADOR DE JUSTIÇA - SALA 1006 13.011,52 2.602,30 0,00 3.329,25 0,00 0,00 0,00 1.550,00 20.493,07 1.784,88 2.933,60 0,00 0,00 4.718,48 15.774,59 31/12/2020
715 553000 DIANA MARIA MARQUES ANALISTA DO MP BETIM - COMARCA; BETIM-PJ-13PJ 9.146,93 914,69 0,00 2.687,71 0,00 0,00 0,00 1.550,00 14.299,33 1.127,14 1.535,48 0,00 0,00 2.662,62 11.636,71 31/12/2020
716 520000 DIARLE TOSTE DOS SANTOS ANALISTA DO MP RIO POMBA - COMARCA; RIO POMBA-PJ-UNPJ 10.069,62 1.006,96 0,00 2.530,37 3.692,19 0,00 0,00 1.550,00 18.849,14 1.244,89 2.222,82 0,00 0,00 3.467,71 15.381,43 31/12/2020
717 539800 DIEGO CAMARGOS RODRIGUES OFICIAL DO MP CONTAGEM - COMARCA; CONTAGEM-PJ-19PJ 5.930,75 593,08 0,00 2.050,13 0,00 0,00 0,00 1.550,00 10.123,96 722,19 726,09 0,00 0,00 1.448,28 8.675,68 31/12/2020
718 607300 DIEGO CERVEIRA DE SOUZA ANALISTA DO MP PATOS DE MINAS - COMARCA; COORD REG BACIAS PARACATU,URUCUIA E ABAETE 10.069,62 1.006,96 0,00 3.178,83 0,00 0,00 0,00 1.550,00 15.805,41 1.244,89 1.834,36 0,00 0,00 3.079,25 12.726,16 31/12/2020
719 669300 DIEGO DA CUNHA SOARES ASSESSOR ADMINISTRATIVO I BELO HORIZONTE - COMARCA; DIRET DE INFORMACAO E EXPEDICAO DE PROCESSOS 0,00 0,00 3.076,28 1.650,49 0,00 0,00 0,00 1.550,00 6.276,77 734,41 205,10 0,00 0,00 939,51 5.337,26 31/12/2020
720 446900 DIEGO DE FREITAS OFICIAL DO MP UBERABA - COMARCA; UBERABA-PJ-06PJ 8.170,49 1.634,10 0,00 2.643,87 0,00 0,00 0,00 1.550,00 13.998,46 1.097,33 1.525,14 0,00 0,00 2.622,47 11.375,99 31/12/2020
721 288800 DILENE NEPOMUCENO ALVES OFICIAL DO MP BELO HORIZONTE - COMARCA; DIRETORIA DE PESSOAL ADMINISTRATIVO - DPAD 10.069,62 3.020,89 0,00 4.658,00 0,00 0,00 0,00 1.550,00 19.298,51 1.482,77 2.322,77 0,00 0,00 3.805,54 15.492,97 31/12/2020
722 681200 DILLIANY PAULA LOPES SERRANO ASSESSOR PROMOTOR JUSTICA RESPLENDOR - COMARCA; RESPLENDOR-PJ-UNPJ 0,00 0,00 7.187,72 2.934,14 0,00 0,00 0,00 1.550,00 11.671,86 994,11 1.213,66 0,00 0,00 2.207,77 9.464,09 31/12/2020
723 270101 DILSON DO AMARAL ANALISTA DO MP RIO CASCA - COMARCA; RIO CASCA-PJ-UNPJ 9.146,93 914,69 0,00 2.635,57 0,00 0,00 0,00 1.550,00 14.247,19 1.127,14 1.587,62 0,00 0,00 2.714,76 11.532,43 31/12/2020
724 466000 DIMITRI GUDE MARCIAL ANALISTA DO MP NANUQUE - COMARCA; NANUQUE-PJ-02PJ 10.069,62 1.006,96 0,00 2.582,51 0,00 0,00 0,00 2.319,39 15.978,48 1.244,89 1.730,08 0,00 0,00 2.974,97 13.003,51 31/12/2020
725 516300 DINORA APARECIDA MACEDO BRANDAO ANALISTA DO MP BELO HORIZONTE - COMARCA; BH-19PJ SAUDE-SECRETARIA 150PJ 9.444,70 944,47 0,00 2.749,72 0,00 0,00 0,00 1.550,00 14.688,89 1.165,15 1.667,25 0,00 0,00 2.832,40 11.856,49 31/12/2020
726 511700 DIOGENES HENRIQUES PEREIRA LOURENCO ANALISTA DO MP CONTAGEM - COMARCA; CONTAGEM-PJ-25PJ 10.069,62 1.006,96 0,00 2.478,24 0,00 0,00 0,00 1.550,00 15.104,82 1.244,89 1.834,36 0,00 0,00 3.079,25 12.025,57 31/12/2020
727 604100 DIOGO CESAR DE OLIVEIRA HONORIO ASSESSOR PIUMHI - COMARCA; PIUMHI-PJ-02PJ 0,00 0,00 5.136,32 4.746,83 0,00 0,00 0,00 1.550,00 11.433,15 1.291,12 649,53 0,00 0,00 1.940,65 9.492,50 31/12/2020
728 387800 DIOGO FELIX DA SILVA OFICIAL DO MP CONSELHEIRO PENA - COMARCA; CONSELHEIRO PENA-PJ-01PJ 8.170,49 1.634,10 0,00 3.788,92 0,00 0,00 0,00 2.531,06 16.124,57 1.097,33 1.525,14 0,00 0,00 2.622,47 13.502,10 31/12/2020
729 259600 DIOGO MESQUITA MAIA ANALISTA DO MP BELO HORIZONTE - COMARCA; DIRET DE APOIO AS PROCURADORIAS DE JUSTICA 16.750,82 13.400,66 0,00 8.979,66 0,00 7.690,15 0,00 1.550,00 48.371,29 3.590,92 7.370,16 0,00 0,00 10.961,08 37.410,21 31/12/2020
730 386700 DIRCIMAR FERNANDES CARNEIRO OFICIAL DO MP VISCONDE DO RIO BRANCO - COMARCA; VISCONDE DO RIO BRANCO-PJ-03PJ 8.858,43 6.200,90 0,00 3.241,92 0,00 0,00 0,00 1.569,92 19.871,17 1.717,24 2.799,72 0,00 0,00 4.516,96 15.354,21 31/12/2020
731 113800 DIRSON APARECIDO GUIMARAES ASSESSOR BELO HORIZONTE - COMARCA; DIVISAO DE MANUTENCAO PREDIAL 0,00 4.622,69 5.136,32 3.261,23 0,00 0,00 0,00 1.550,00 14.570,24 1.426,18 1.920,77 0,00 0,00 3.346,95 11.223,29 31/12/2020
732 216700 DOMICIO VALDETE PEREIRA OFICIAL DO MP TEÓFILO OTONI - COMARCA; COORD REG PJ DEF EDU DIR CRIAN ADOL JEQUI MUC 14.790,66 5.916,26 0,00 4.235,99 0,00 0,00 0,00 1.550,00 26.492,91 2.410,35 4.057,92 0,00 0,00 6.468,27 20.024,64 31/12/2020
733 192701 DONIZETTI APARECIDO AMORIM ANALISTA DO MP PRATÁPOLIS - COMARCA; PRATAPOLIS-PJ-UNPJ 9.752,14 3.900,86 0,00 3.072,47 0,00 0,00 0,00 1.550,00 18.275,47 1.549,70 2.406,91 0,00 0,00 3.956,61 14.318,86 31/12/2020
734 558700 DORCILIA FATIMA DE OLIVEIRA OFICIAL DO MP DIVINÓPOLIS - COMARCA; DIVINOPOLIS-PJ-02PJ 5.930,75 593,08 0,00 2.102,27 0,00 0,00 0,00 1.550,00 10.176,10 722,19 673,95 0,00 0,00 1.396,14 8.779,96 31/12/2020
735 555300 DOUGLAS CUNHA DE SOUZA ANALISTA DO MP VARZEA DA PALMA - COMARCA; VARZEA DA PALMA-PJ-01PJ 9.146,93 914,69 0,00 3.846,96 0,00 0,00 3.129,20 1.550,00 18.587,78 1.127,14 2.448,15 0,00 0,00 3.575,29 15.012,49 31/12/2020
736 265900 DOUGLAS GOMES MOREIRA ANALISTA DO MP BELO HORIZONTE - COMARCA; CENTRAL DE APOIO TECNICO-SETOR DE ENGENHARIA 18.820,14 5.646,04 0,00 5.435,44 0,00 0,00 0,00 1.550,00 31.451,62 2.880,27 5.066,77 0,00 0,00 7.947,04 23.504,58 31/12/2020
737 241000 DOUGLAS MEIRELLES DE CASTRO OFICIAL DO MP CONCEIÇÃO DO RIO VERDE - COMARCA; CONCEICAO DO RIO VERDE-PJ-UNPJ 12.601,30 5.040,52 0,00 3.753,02 0,00 0,00 0,00 1.550,00 22.944,84 2.032,30 3.318,98 0,00 0,00 5.351,28 17.593,56 31/12/2020
738 534900 DOUGLAS SILVA E SOUZA ANALISTA DO MP CAMPOS GERAIS - COMARCA; CAMPOS GERAIS-PJ-UNPJ 9.146,93 914,69 0,00 2.687,71 0,00 0,00 0,00 1.550,00 14.299,33 1.127,14 1.535,48 0,00 0,00 2.662,62 11.636,71 31/12/2020
739 638900 DOUGLAS WALLAS CONCEICAO NEVES OFICIAL DO MP RIBEIRÃO DAS NEVES - COMARCA; RIBEIRAO DAS NEVES-PJ-SEC CIVEL 4.817,57 481,76 0,00 1.881,93 0,00 0,00 0,00 1.550,00 8.731,26 635,30 427,41 0,00 0,00 1.062,71 7.668,55 31/12/2020
740 146800 DUCINALVA AMARAL LOPES REIS OFICIAL DO MP PARAISÓPOLIS - COMARCA; PARAISOPOLIS-PJ-UNPJ 18.820,14 13.174,10 0,00 9.758,38 0,00 6.916,97 0,00 1.550,00 50.219,59 3.821,27 7.824,78 0,00 0,00 11.646,05 38.573,54 31/12/2020
741 122500 DUILIO CARLOS FERREIRA UTSCH OFICIAL DO MP CONCEIÇÃO DO MATO DENTRO - COMARCA; CONCEICAO DO MATO DENTRO-PJ-UNPJ 14.790,66 11.832,53 0,00 10.389,93 0,00 3.888,71 0,00 1.550,00 42.451,83 3.149,89 6.452,02 0,00 0,00 9.601,91 32.849,92 31/12/2020
742 201800 DULCINEIA ANDRE DE SOUZA OFICIAL DO MP JEQUITINHONHA - COMARCA; JEQUITINHONHA-PJ-SECRETARIA 14.790,66 5.916,26 0,00 4.340,26 6.902,31 0,00 0,00 1.550,00 33.499,49 2.410,35 5.851,78 0,00 0,00 8.262,13 25.237,36 31/12/2020
743 395800 DUVIDIER MEDIRCIO JUNIOR ANALISTA DO MP BELO HORIZONTE - COMARCA; CENTRAL DE APOIO TECNICO-SETOR DE ENGENHARIA 14.324,23 2.864,85 0,00 3.577,43 0,00 0,00 0,00 1.550,00 22.316,51 1.977,07 3.313,94 0,00 0,00 5.291,01 17.025,50 31/12/2020
744 604800 ECIA RAMILIS ISSA DE ABREU ANALISTA DO MP BRASÍLIA DE MINAS - COMARCA; BRASILIA DE MINAS-PJ-01PJ 9.146,93 914,69 0,00 3.846,96 0,00 0,00 0,00 1.550,00 15.458,58 1.127,14 1.587,62 0,00 0,00 2.714,76 12.743,82 31/12/2020
745 273000 EDELFINA APARECIDA GUIMARAES OFICIAL DO MP CACHOEIRA DE MINAS - COMARCA; CACHOEIRA DE MINAS-PJ-UNPJ 10.069,62 7.048,73 0,00 3.407,93 0,00 0,00 0,00 1.550,00 22.076,28 1.968,43 3.244,73 0,00 0,00 5.213,16 16.863,12 31/12/2020
746 523300 EDER DOS SANTOS PATRICIO ANALISTA DO MP NOVA SERRANA - COMARCA; NOVA SERRANA-PJ-03PJ 10.069,62 1.006,96 0,00 2.478,24 0,00 0,00 0,00 2.319,39 15.874,21 1.244,89 1.834,36 0,00 0,00 3.079,25 12.794,96 31/12/2020
747 356700 EDER JOSE PACHECO OFICIAL DO MP CAMPO BELO - COMARCA; CAMPO BELO-PJ-SECRETARIA 9.146,93 1.829,39 0,00 4.101,67 0,00 0,00 0,00 2.560,09 17.638,08 1.233,26 1.705,71 0,00 0,00 2.938,97 14.699,11 31/12/2020
748 507900 EDERSON SILVA LOPES OFICIAL DO MP BELO HORIZONTE - COMARCA; LABORATORIO TECNOLOGIA INTELIGENCIA 6.123,79 612,38 0,00 5.320,15 0,00 0,00 0,00 1.550,00 13.606,32 746,19 673,61 0,00 0,00 1.419,80 12.186,52 31/12/2020
749 296200 EDGARD GOULART MATOSINHO DE LAET JR ANALISTA DO MP GOVERNADOR VALADARES - COMARCA; GAECO REGIONAL DE GOVERNADOR VALADARES 16.750,82 5.025,25 0,00 4.886,35 0,00 0,00 0,00 1.550,00 28.212,42 2.544,00 4.315,19 0,00 0,00 6.859,19 21.353,23 31/12/2020
750 295000 EDILA MARIA DA SILVEIRA OFICIAL DO MP FORMIGA - COMARCA; FORMIGA-PJ-01PJ 8.858,43 2.657,53 0,00 4.227,23 0,00 0,00 0,00 1.751,38 17.494,57 1.295,85 1.941,17 0,00 0,00 3.237,02 14.257,55 31/12/2020
751 332300 EDILA MARILAC MIRANDA PRADO OFICIAL DO MP DIAMANTINA - COMARCA; DIAMANTINA-PJ-01PJ 10.069,62 5.034,81 0,00 3.353,28 0,00 0,00 498,45 8.526,37 27.482,53 1.722,74 2.706,33 0,00 0,00 4.429,07 23.053,46 31/12/2020
752 376600 EDILANE CONSOLACAO ROSA NAZARETH ANALISTA DO MP BETIM - COMARCA; BETIM-PJ-10PJ 14.324,23 2.864,85 0,00 6.315,24 0,00 0,00 0,00 1.550,00 25.054,32 1.977,07 3.313,94 0,00 0,00 5.291,01 19.763,31 31/12/2020
753 301500 EDILENE APARECIDA DE CARVALHO ANALISTA DO MP BELO HORIZONTE - COMARCA; BH-02PJ FAMILIA-SECRETARIA 16.750,82 5.025,25 0,00 4.834,21 0,00 0,00 0,00 1.550,00 28.160,28 2.544,00 4.367,32 0,00 0,00 6.911,32 21.248,96 31/12/2020
754 309800 EDILZA DOS REIS OFICIAL DO MP UBERLÂNDIA - COMARCA; UBERLANDIA-PJ-03PJ 10.069,62 3.020,89 0,00 2.770,75 0,00 0,00 0,00 1.550,00 17.411,26 1.482,77 2.322,77 0,00 0,00 3.805,54 13.605,72 31/12/2020
755 200500 EDINEIA MARIA DE OLIVEIRA ANTUNES OFICIAL DO MP MONTES CLAROS - COMARCA; MONTES CLAROS-PJ-10PJ 14.790,66 5.916,26 0,00 4.131,71 6.902,31 0,00 0,00 1.550,00 33.290,94 2.410,35 6.060,33 0,00 0,00 8.470,68 24.820,26 31/12/2020
756 427700 EDISANGELA SOARES LOPES OFICIAL DO MP PIRAPORA - COMARCA; PIRAPORA-PJ-02PJ 6.123,79 1.224,76 0,00 2.805,50 0,00 0,00 0,00 1.550,00 11.704,05 815,39 927,26 0,00 0,00 1.742,65 9.961,40 31/12/2020
757 555400 EDISON MONTEIRO SAMPAIO NETO ANALISTA DO MP BELO HORIZONTE - COMARCA; BH-12PJ JUIZO CRIMINAL-GAB 094PJ 9.146,93 914,69 0,00 2.635,57 0,00 0,00 0,00 1.550,00 14.247,19 1.127,14 1.587,62 0,00 0,00 2.714,76 11.532,43 31/12/2020
758 517700 EDMILSON TADEU FERNANDES OFICIAL DO MP POUSO ALEGRE - COMARCA; GAECO REGIONAL DE POUSO ALEGRE 6.741,63 674,16 0,00 2.037,67 0,00 0,00 0,00 1.550,00 11.003,46 822,99 943,66 0,00 0,00 1.766,65 9.236,81 31/12/2020
759 358400 EDNA APARECIDA SILVA FERREIRA OFICIAL DO MP CORONEL FABRICIANO - COMARCA; CORONEL FABRICIANO-PJ-02PJ 9.146,93 1.829,39 0,00 2.702,96 0,00 0,00 0,00 1.550,00 15.229,28 1.233,26 1.705,71 0,00 0,00 2.938,97 12.290,31 31/12/2020
760 331800 EDNA MARCIA CAMILO DA SILVA OFICIAL DO MP SETE LAGOAS - COMARCA; SETE LAGOAS-PJ-SEC CRIMINAIS 10.069,62 3.020,89 0,00 2.822,89 0,00 0,00 0,00 1.550,00 17.463,40 1.482,77 2.270,63 0,00 0,00 3.753,40 13.710,00 31/12/2020
761 327900 EDRIEL SANTANA PEREIRA OFICIAL DO MP TUPACIGUARA - COMARCA; TUPACIGUARA-PJ-UNPJ 10.069,62 3.020,89 0,00 2.770,75 0,00 0,00 0,00 2.421,39 18.282,65 1.482,77 2.322,77 0,00 0,00 3.805,54 14.477,11 31/12/2020
762 482400 EDSON GARCIA OFICIAL DO MP MACHADO - COMARCA; MACHADO-PJ-02PJ 5.562,64 556,26 0,00 1.862,40 0,00 0,00 0,00 2.319,39 10.300,69 676,44 523,04 0,00 0,00 1.199,48 9.101,21 31/12/2020
763 225601 EDSON LABRE FILHO ANALISTA DO MP VARGINHA - COMARCA; VARGINHA-PJ-01PJ 16.750,82 5.025,25 0,00 4.834,21 0,00 0,00 0,00 1.550,00 28.160,28 2.544,00 4.367,32 0,00 0,00 6.911,32 21.248,96 31/12/2020
764 602700 EDSON NOGUEIRA BUENO OFICIAL DO MP PITANGUI - COMARCA; PITANGUI-PJ-02PJ 5.387,19 538,72 0,00 1.907,17 0,00 0,00 0,00 1.550,00 9.383,08 654,63 580,24 0,00 0,00 1.234,87 8.148,21 31/12/2020
765 414400 EDUARDO ABRANTES CAMPOS ANALISTA DO MP SÃO JOÃO DEL REI - COMARCA; SAO JOAO DEL REI-PJ-02PJ 13.011,52 2.602,30 0,00 3.329,25 0,00 0,00 0,00 1.550,00 20.493,07 1.784,88 2.933,60 0,00 0,00 4.718,48 15.774,59 31/12/2020
766 476800 EDUARDO ALVES DE MOURA ANALISTA DO MP UBERLÂNDIA - COMARCA; UBERLANDIA-PJ-02PJ 10.069,62 1.006,96 0,00 2.634,65 3.692,19 0,00 0,00 2.319,39 19.722,81 1.244,89 2.693,30 0,00 0,00 3.938,19 15.784,62 31/12/2020
767 390800 EDUARDO AMORIM PETTERSEN OFICIAL DO MP CARANGOLA - COMARCA; CARANGOLA-PJ-SECRETARIA 8.579,10 1.715,82 0,00 2.676,50 0,00 0,00 0,00 2.319,39 15.290,81 1.154,21 1.644,34 0,00 0,00 2.798,55 12.492,26 31/12/2020
768 461600 EDUARDO ANTONIO DE ASSIS FARIA ASSESSOR BELO HORIZONTE - COMARCA; ASSESS EXECUTIVA DO CONSELHO SUPERIOR DO MP 0,00 0,00 8.170,49 3.008,09 0,00 0,00 0,00 2.319,39 13.497,97 1.426,18 1.379,65 0,00 0,00 2.805,83 10.692,14 31/12/2020
769 248800 EDUARDO DE CASTRO AMORIM ANALISTA DO MP BELO HORIZONTE - COMARCA; SUPERINTENDENCIA DE RECURSOS HUMANOS 18.820,14 5.646,04 0,00 4.786,47 0,00 0,00 0,00 1.550,00 30.802,65 2.880,27 5.066,77 0,00 0,00 7.947,04 22.855,61 31/12/2020
770 209100 EDUARDO DE SOUZA MAIA ANALISTA DO MP BELO HORIZONTE - COMARCA; SUPERINTENDENCIA DE RECURSOS HUMANOS 18.820,14 7.528,06 0,00 4.852,85 0,00 0,00 0,00 1.550,00 32.751,05 3.115,51 5.363,22 0,00 0,00 8.478,73 24.272,32 31/12/2020
771 633900 EDUARDO GONCALVES PIRES OFICIAL DO MP BELO HORIZONTE - COMARCA; BH-19PJ SAUDE-SECRETARIA 150PJ 5.743,70 1.723,11 0,00 2.220,78 0,00 0,00 0,00 1.550,00 11.237,59 828,74 956,11 0,00 0,00 1.784,85 9.452,74 31/12/2020
772 350500 EDUARDO GONCALVES RIBEIRO OFICIAL DO MP VESPASIANO - COMARCA; VESPASIANO-PJ-04PJ 8.858,43 1.771,69 0,00 7.637,64 3.543,37 0,00 0,00 1.550,00 23.361,13 1.193,09 2.700,25 0,00 0,00 3.893,34 19.467,79 31/12/2020
773 115800 EDUARDO HENRIQUE DE CAMPOS MAIA OFICIAL DO MP BELO HORIZONTE - COMARCA; DIV FISCAL ADM CONT TERCEIRIZACAO 16.750,82 8.375,41 0,00 5.535,18 0,00 0,00 0,00 1.550,00 32.211,41 2.962,77 5.069,18 0,00 0,00 8.031,95 24.179,46 31/12/2020
774 392600 EDUARDO HENRIQUE DOS SANTOS COSTA ELIAZAR OFICIAL DO MP MATOZINHOS - COMARCA; MATOZINHOS-PJ-01PJ 7.912,85 1.582,57 0,00 7.119,76 3.165,14 0,00 0,00 1.626,94 21.407,26 1.061,47 2.163,98 0,00 0,00 3.225,45 18.181,81 31/12/2020
775 407500 EDUARDO MASCARENHAS CURI AZEVEDO COORDENADOR/ANALISTA BELO HORIZONTE - COMARCA; CENTRO JORNALISMO 0,00 2.687,03 13.435,16 3.533,18 0,00 0,00 0,00 2.319,39 21.974,76 1.362,94 3.189,43 0,00 0,00 4.552,37 17.422,39 31/12/2020
776 601300 EDUARDO TRAD VIEIRA OFICIAL DO MP BELO HORIZONTE - COMARCA; SUPERINTENDENCIA DE RECURSOS HUMANOS 5.387,19 538,72 0,00 2.443,06 0,00 0,00 0,00 1.550,00 9.918,97 654,63 580,24 0,00 0,00 1.234,87 8.684,10 31/12/2020
777 257600 EDUARDO VALADARES CABRAL ANALISTA DO MP BELO HORIZONTE - COMARCA; COORD DE INCLUSAO E MOBILIZACAO SOCIAIS 14.790,66 4.437,20 0,00 13.209,44 0,00 0,00 0,00 1.550,00 33.987,30 2.227,14 3.805,84 0,00 0,00 6.032,98 27.954,32 31/12/2020
778 545700 EDVAIR FERREIRA DE CARVALHO OFICIAL DO MP ARAGUARI - COMARCA; ARAGUARI-PJ-06PJ 5.387,19 538,72 0,00 2.011,45 0,00 0,00 0,00 1.550,00 9.487,36 654,63 475,97 0,00 0,00 1.130,60 8.356,76 31/12/2020
779 401700 EDWANIA AMORIM DO CARMO OFICIAL DO MP RIBEIRÃO DAS NEVES - COMARCA; RIBEIRAO DAS NEVES-PJ-03PJ 8.858,43 1.771,69 0,00 3.935,50 0,00 0,00 0,00 1.550,00 16.115,62 1.193,09 1.725,82 0,00 0,00 2.918,91 13.196,71 31/12/2020
780 303600 EFIGENIO SARAIVA LOPES ANALISTA DO MP BELO HORIZONTE - COMARCA; DIRETORIA DE PAGAMENTO DE PESSOAL-DPAG 18.820,14 5.646,04 0,00 5.539,72 0,00 0,00 0,00 1.550,00 31.555,90 2.880,27 4.962,49 0,00 0,00 7.842,76 23.713,14 31/12/2020
781 286000 ELAINE APARECIDA SILVA BERZOINI OFICIAL DO MP JUIZ DE FORA - COMARCA; JUIZ DE FORA-PJ-14PJ 10.069,62 3.020,89 0,00 2.770,75 0,00 0,00 0,00 1.550,00 17.411,26 1.482,77 2.322,77 0,00 0,00 3.805,54 13.605,72 31/12/2020
782 509000 ELAINE CANDIDA PONTES OFICIAL DO MP BELO HORIZONTE - COMARCA; BH-02PJ FAMILIA-SECRETARIA 7.421,79 742,18 0,00 2.155,59 0,00 0,00 0,00 1.550,00 11.869,56 907,53 1.126,16 0,00 0,00 2.033,69 9.835,87 31/12/2020
783 283601 ELAINE CRISTINA MEQUELINO DUARTE ANALISTA DO MP ALFENAS - COMARCA; ALFENAS-PJ-02PJ 14.324,23 2.864,85 0,00 4.084,70 0,00 0,00 0,00 1.550,00 22.823,78 1.977,07 3.209,67 0,00 0,00 5.186,74 17.637,04 31/12/2020
784 535500 ELAINE DE OLIVEIRA CAMPOS REIS OFICIAL DO MP RIBEIRÃO DAS NEVES - COMARCA; SEC PJ EXECUCAO PENAL RIBEIRAO NEVES 5.930,75 593,08 0,00 2.050,13 0,00 0,00 0,00 1.550,00 10.123,96 722,19 726,09 0,00 0,00 1.448,28 8.675,68 31/12/2020
785 455700 ELAINE DE OLIVEIRA CASTRO ANALISTA DO MP POMPÉU - COMARCA; POMPEU-PJ-UNPJ 10.069,62 2.013,92 0,00 2.530,37 0,00 0,00 0,00 2.139,87 16.753,78 1.362,94 2.026,67 0,00 0,00 3.389,61 13.364,17 31/12/2020
786 367200 ELAINE MUNIZ BARBOSA ANALISTA DO MP BELO HORIZONTE - COMARCA; DIRETORIA DE SISTEMAS DE INFORMACAO 14.790,66 2.958,13 0,00 3.717,79 0,00 0,00 0,00 2.319,39 23.785,97 2.045,35 3.396,95 0,00 0,00 5.442,30 18.343,67 31/12/2020
787 679200 ELAINE RIBEIRO CHAVES ASSESSOR PROCURADOR JUSTICA BELO HORIZONTE - COMARCA; GABINETE DE PROCURADOR DE JUSTIÇA - SALA 614 0,00 0,00 7.187,72 2.934,14 0,00 0,00 0,00 1.550,00 11.671,86 994,11 1.213,66 0,00 0,00 2.207,77 9.464,09 31/12/2020
788 176900 ELAINE RIBEIRO TAVEIRA OFICIAL DO MP BELO HORIZONTE - COMARCA; DIRETORIA DE PESSOAL ADMINISTRATIVO - DPAD 13.011,52 5.204,61 0,00 4.166,28 0,00 0,00 0,00 1.550,00 23.932,41 2.102,36 3.561,93 0,00 0,00 5.664,29 18.268,12 31/12/2020
789 496200 ELAINE SABRINA MOREIRA SCHUWARTEN ANALISTA DO MP CORONEL FABRICIANO - COMARCA; CORONEL FABRICIANO-PJ-04PJ 10.069,62 1.006,96 0,00 2.478,24 0,00 0,00 0,00 1.550,00 15.104,82 1.244,89 1.834,36 0,00 0,00 3.079,25 12.025,57 31/12/2020
790 489200 ELAINE VICENTINO GARCIA ANALISTA DO MP BELO HORIZONTE - COMARCA; CENTRAL DE APOIO TECNICO-SETOR CONTABIL 10.069,62 3.020,89 0,00 2.875,02 0,00 0,00 0,00 1.550,00 17.515,53 1.482,77 2.218,49 0,00 0,00 3.701,26 13.814,27 31/12/2020
791 244500 ELCI ALVES DE SOUZA ASSESSOR BELO HORIZONTE - COMARCA; CAO-CONFLITOS AGRARIOS-SECRETARIA 0,00 1.540,90 5.136,32 3.335,84 0,00 0,00 0,00 1.550,00 11.563,06 1.426,18 1.021,14 0,00 0,00 2.447,32 9.115,74 31/12/2020
792 472500 ELCI VAZ DE OLIVEIRA FILHO ANALISTA DO MP PIUMHI - COMARCA; PIUMHI-PJ-02PJ 10.069,62 5.034,81 0,00 3.063,27 0,00 0,00 0,00 1.550,00 19.717,70 1.722,74 2.810,60 0,00 0,00 4.533,34 15.184,36 31/12/2020
793 385200 ELCI VIANA REIS OFICIAL DO MP RIO PARDO DE MINAS - COMARCA; RIO PARDO DE MINAS-PJ-SECRETARIA 8.858,43 3.543,37 0,00 2.823,23 0,00 0,00 0,00 1.550,00 16.775,03 1.400,81 2.155,91 0,00 0,00 3.556,72 13.218,31 31/12/2020
794 289801 ELCIO JOSE DOS SANTOS ASSESSOR/ANALISTA BELO HORIZONTE - COMARCA; DIVISAO DE SERVICOS 0,00 2.520,26 12.601,30 5.434,42 0,00 0,00 0,00 1.550,00 22.105,98 1.362,94 2.914,26 0,00 0,00 4.277,20 17.828,78 31/12/2020
795 319600 ELEN TULER DE ALBERGARIA ANALISTA DO MP BELO HORIZONTE - COMARCA; BH-19PJ SAUDE-SECRETARIA 130PJ 13.872,60 5.549,04 0,00 3.929,19 0,00 0,00 0,00 1.550,00 24.900,83 2.251,07 3.852,55 0,00 0,00 6.103,62 18.797,21 31/12/2020
796 151000 ELI LOURENCO RIBEIRO AGENTE DO MP BELO HORIZONTE - COMARCA; BH-19PJ SAUDE-SECRETARIA 130PJ 11.085,56 5.542,78 0,00 4.127,01 0,00 0,00 0,00 1.550,00 22.305,35 1.908,65 2.303,23 0,00 0,00 4.211,88 18.093,47 31/12/2020
797 205500 ELIANA ALVES DE SOUSA OFICIAL DO MP GOVERNADOR VALADARES - COMARCA; GOVERNADOR VALADARES-PJ-07PJ 10.069,62 4.027,85 0,00 3.420,81 0,00 0,00 0,00 1.550,00 19.068,28 1.602,60 2.566,73 0,00 0,00 4.169,33 14.898,95 31/12/2020
798 628800 ELIANA APARECIDA PEREIRA ANALISTA DO MP CAMBUÍ - COMARCA; CAMBUI-PJ-02PJ 7.663,37 766,34 0,00 2.249,55 0,00 0,00 0,00 1.550,00 12.229,26 937,85 1.138,76 0,00 0,00 2.076,61 10.152,65 31/12/2020
799 301700 ELIANA DA SILVEIRA ANALISTA DO MP BELO HORIZONTE - COMARCA; BH-13ª PJ JUÍZO DE TÓXICOS-SECRETARIA 15.272,02 4.581,61 0,00 3.997,15 0,00 0,00 0,00 1.550,00 25.400,78 2.304,42 3.956,67 0,00 0,00 6.261,09 19.139,69 31/12/2020
800 251500 ELIANA DE LIMA MILAGRES FONSECA ANALISTA DO MP CONTAGEM - COMARCA; CONTAGEM-PJ-16PJ 15.272,02 4.581,61 0,00 4.101,43 0,00 0,00 0,00 1.550,00 25.505,06 2.304,42 3.852,40 0,00 0,00 6.156,82 19.348,24 31/12/2020
801 503900 ELIANA DIAS DUTRA FERREIRA OFICIAL DO MP GOVERNADOR VALADARES - COMARCA; GOVERNADOR VALADARES-PJ-10PJ 7.663,37 766,34 0,00 2.301,68 0,00 0,00 0,00 0,00 10.731,39 937,85 1.086,63 0,00 0,00 2.024,48 8.706,91 31/12/2020
802 413900 ELIANA PINTO DE OLIVEIRA NEVES ANALISTA DO MP CAMPO BELO - COMARCA; CAMPO BELO-PJ-04PJ 12.601,30 2.520,26 0,00 3.251,70 0,00 0,00 0,00 2.319,39 20.692,65 1.724,83 2.814,74 0,00 0,00 4.539,57 16.153,08 31/12/2020
803 228200 ELIANA RODRIGUES DA CUNHA PINHEIRO OFICIAL DO MP BELO HORIZONTE - COMARCA; DIRETORIA DE PROJETOS DE EDIFICACOES 12.601,30 3.780,39 0,00 4.813,47 0,00 2.333,04 0,00 1.550,00 25.078,20 1.878,56 3.635,60 0,00 0,00 5.514,16 19.564,04 31/12/2020
804 386600 ELIANA SABINO CHAVES PESSOA ANALISTA DO MP CARATINGA - COMARCA; CARATINGA-PJ-06PJ 13.011,52 9.108,06 0,00 4.406,34 0,00 0,00 0,00 1.550,00 28.075,92 2.586,94 4.449,98 0,00 0,00 7.036,92 21.039,00 31/12/2020
805 677500 ELIANA SILVA ANDRADE ASSESSOR PROMOTOR JUSTICA TRÊS CORACOES - COMARCA; TRES CORACOES-PJ-06PJ 0,00 0,00 7.187,72 2.934,14 0,00 0,00 0,00 1.550,00 11.671,86 994,11 1.213,66 0,00 0,00 2.207,77 9.464,09 31/12/2020
806 297400 ELIANE AUGUSTA RIBEIRO COSTA ANALISTA DO MP CONSELHEIRO LAFAIETE - COMARCA; CONSELHEIRO LAFAIETE-PJ-05PJ 17.413,92 5.224,18 0,00 4.598,01 0,00 0,00 0,00 1.550,00 28.786,11 2.651,75 4.522,61 0,00 0,00 7.174,36 21.611,75 31/12/2020
807 510600 ELIANE CAROLINA MAIA ANALISTA DO MP IGARAPÉ - COMARCA; IGARAPE-PJ-03PJ 10.069,62 1.006,96 0,00 2.634,65 0,00 0,00 0,00 1.550,00 15.261,23 1.244,89 1.677,94 0,00 0,00 2.922,83 12.338,40 31/12/2020
808 269300 ELIANE EDLAMAR ROCHA OFICIAL DO MP PEDRO LEOPOLDO - COMARCA; PEDRO LEOPOLDO-PJ-02PJ 9.752,14 2.925,64 0,00 2.918,81 0,00 0,00 0,00 1.550,00 17.146,59 1.433,66 2.170,64 0,00 0,00 3.604,30 13.542,29 31/12/2020
809 262600 ELIANE FERREIRA SOARES ASSESSOR BELO HORIZONTE - COMARCA; BH-18PJ DIREITOS HUMANOS-SECRETARIA 0,00 2.054,53 5.136,32 3.522,03 0,00 0,00 0,00 1.550,00 12.262,88 1.426,18 1.162,39 0,00 0,00 2.588,57 9.674,31 31/12/2020
810 204400 ELIANE GLAUCE DE QUEIROS MAIA OFICIAL DO MP GUANHÃES - COMARCA; GUANHAES-PJ-02PJ 14.790,66 5.916,26 0,00 14.158,67 0,00 0,00 0,00 1.550,00 36.415,59 2.410,35 4.162,20 0,00 0,00 6.572,55 29.843,04 31/12/2020
811 91800 ELIANE KAPLER ALVES OFICIAL DO MP BELO HORIZONTE - COMARCA; DIVISAO DE CONTROLE IMOBILIARIO 18.820,14 9.410,07 0,00 9.594,59 0,00 0,00 0,00 1.550,00 39.374,80 3.350,77 5.868,21 0,00 0,00 9.218,98 30.155,82 31/12/2020
812 334200 ELIANE MARCIA DE OLIVEIRA BRITO OFICIAL DO MP BELO HORIZONTE - COMARCA; BH-08PJ JUIZADO ESPECIAL-SECRETARIA 6.123,79 1.837,14 0,00 3.003,07 0,00 0,00 0,00 1.550,00 12.514,00 884,58 1.076,64 0,00 0,00 1.961,22 10.552,78 31/12/2020
813 365900 ELIANE MARIA DE OLIVEIRA FERREIRA OFICIAL DO MP SETE LAGOAS - COMARCA; SETE LAGOAS-PJ-SEC CRIMINAIS 10.069,62 5.034,81 0,00 3.603,05 0,00 0,00 0,00 1.550,00 20.257,48 1.722,74 2.810,60 0,00 0,00 4.533,34 15.724,14 31/12/2020
814 320600 ELIANE STADLER DE SOUZA OFICIAL DO MP FRANCISCO SÁ - COMARCA; FRANCISCO SA-PJ-SECRETARIA 9.146,93 1.829,39 0,00 2.650,82 0,00 0,00 0,00 1.550,00 15.177,14 1.233,26 1.757,85 0,00 0,00 2.991,11 12.186,03 31/12/2020
815 448900 ELIAS PEREIRA OTONI ASSESSOR BELO HORIZONTE - COMARCA; BH-18PJ DIREITOS HUMANOS-SECRETARIA 0,00 0,00 5.136,32 4.832,15 0,00 0,00 0,00 1.550,00 11.518,47 1.291,12 545,25 0,00 0,00 1.836,37 9.682,10 31/12/2020
816 495400 ELICA SOUZA GASPARONI MATTOS OFICIAL DO MP UBÁ - COMARCA; UBA-PJ-06PJ 7.663,37 766,34 0,00 3.210,82 0,00 0,00 0,00 1.550,00 13.190,53 937,85 1.190,90 0,00 0,00 2.128,75 11.061,78 31/12/2020
817 86600 ELIENE FERREIRA DA SILVA OFICIAL DO MP BELO HORIZONTE - COMARCA; BH-22PJ PES COM DEF E IDOSOS-SECRETARIA 21.145,12 14.801,58 0,00 9.004,77 0,00 4.254,77 0,00 1.550,00 50.756,24 4.254,77 8.726,34 484,48 0,00 13.465,59 37.290,65 31/12/2020
818 183800 ELIENE MARIA CUNHA OFICIAL DO MP BELO HORIZONTE - COMARCA; DIRETORIA DE PESSOAL ADMINISTRATIVO - DPAD 15.272,02 6.108,81 0,00 14.643,35 0,00 0,00 0,00 1.550,00 37.574,18 2.494,59 4.272,22 0,00 0,00 6.766,81 30.807,37 31/12/2020
819 172300 ELINA APARECIDA SILVA ASSESSOR BELO HORIZONTE - COMARCA; BH-19PJ SAUDE-SECRETARIA 130PJ 0,00 1.230,51 3.076,28 1.988,33 0,00 0,00 0,00 1.550,00 7.845,12 1.077,80 356,51 0,00 0,00 1.434,31 6.410,81 31/12/2020
820 492501 ELINE CAMPOS DA FONSECA CUNHA ANALISTA DO MP PONTE NOVA - COMARCA; PONTE NOVA-PJ-02PJ 9.146,93 914,69 0,00 3.748,29 0,00 0,00 0,00 1.550,00 15.359,91 1.127,14 1.587,62 0,00 0,00 2.714,76 12.645,15 31/12/2020
821 618900 ELISA MOURA VIEIRA MARCATTI OFICIAL DO MP BELO HORIZONTE - COMARCA; BH-23PJ CIVEL-SEC EXP CIVEIS 5.387,19 538,72 0,00 1.802,96 0,00 0,00 0,00 2.319,39 10.048,26 654,63 580,24 0,00 0,00 1.234,87 8.813,39 31/12/2020
822 256500 ELISABETE NOGUEIRA ANALISTA DO MP RIBEIRÃO DAS NEVES - COMARCA; SEC PJ EXECUCAO PENAL RIBEIRAO NEVES 14.790,66 7.395,33 0,00 7.819,40 0,00 0,00 0,00 1.550,00 31.555,39 2.595,24 4.361,68 0,00 0,00 6.956,92 24.598,47 31/12/2020
823 355000 ELISANGELA DARLANTONI RIBEIRO OFICIAL DO MP ARAXÁ - COMARCA; ARAXA-PJ-05PJ 8.579,10 1.715,82 0,00 2.483,56 0,00 0,00 0,00 1.550,00 14.328,48 1.154,21 1.592,20 0,00 0,00 2.746,41 11.582,07 31/12/2020
824 604400 ELISANGELA DEMASI FERREIRA MOREIRA ANALISTA DO MP CABO VERDE - COMARCA; CABO VERDE-PJ-UNPJ 9.146,93 914,69 0,00 2.635,57 0,00 0,00 0,00 1.550,00 14.247,19 1.127,14 1.587,62 0,00 0,00 2.714,76 11.532,43 31/12/2020
825 323800 ELISANGELA GONCALVES DE JESUS OFICIAL DO MP BELO HORIZONTE - COMARCA; BH-09PJ AUDITORIA MILITAR-SECRETARIA 9.444,70 2.833,41 0,00 2.859,13 0,00 0,00 0,00 1.550,00 16.687,24 1.386,09 2.073,81 0,00 0,00 3.459,90 13.227,34 31/12/2020
826 507400 ELISANGELA MIGUEL DA ROCHA SILVA ASSESSOR BELO HORIZONTE - COMARCA; CGMP-DIVIS DE APOIO FISC ORIENTACAO FUNCIONAL 0,00 0,00 3.076,28 1.486,25 0,00 0,00 0,00 2.319,39 6.881,92 734,41 176,66 0,00 0,00 911,07 5.970,85 31/12/2020
827 261400 ELISANGELA REZENDE MENDES OFICIAL DO MP POUSO ALEGRE - COMARCA; POUSO ALEGRE-PJ-05PJ 10.069,62 3.020,89 0,00 2.931,72 0,00 0,00 0,00 1.550,00 17.572,23 1.482,77 2.322,77 0,00 0,00 3.805,54 13.766,69 31/12/2020
828 534100 ELISANGELA ROSINE SILVA OFICIAL DO MP UBERABA - COMARCA; UBERABA-PJ-06PJ 5.387,19 538,72 0,00 1.907,17 0,00 0,00 0,00 1.550,00 9.383,08 654,63 580,24 0,00 0,00 1.234,87 8.148,21 31/12/2020
829 634300 ELIUDE GRACA DAMASIO ROSARIO FRANCELINO OFICIAL DO MP BELO HORIZONTE - COMARCA; BH-18PJ VIOLENCIA DOMESTICA-SECRETARIA 4.817,57 481,76 0,00 2.259,10 0,00 0,00 0,00 2.319,39 9.877,82 583,82 427,41 0,00 0,00 1.011,23 8.866,59 31/12/2020
830 461700 ELIZABETH ALEIXO DA PAZ ANALISTA DO MP JUIZ DE FORA - COMARCA; JUIZ DE FORA-PJ-18PJ 10.069,62 2.013,92 0,00 2.478,24 4.027,85 0,00 0,00 1.550,00 20.139,63 1.362,94 3.186,46 0,00 0,00 4.549,40 15.590,23 31/12/2020
831 227300 ELIZABETH COIMBRA FELIX ASSESSOR/OFICIAL BELO HORIZONTE - COMARCA; DIRETORIA DE PAGAMENTO DE PESSOAL-DPAG 13.011,52 5.204,61 2.520,26 4.410,57 0,00 0,00 0,00 1.550,00 26.696,96 2.102,36 4.150,72 0,00 0,00 6.253,08 20.443,88 31/12/2020
832 354800 ELIZABETH DOS REIS OFICIAL DO MP BELO HORIZONTE - COMARCA; DIVISAO DE MATERIAIS 10.069,62 2.013,92 0,00 3.108,44 0,00 0,00 0,00 1.550,00 16.741,98 1.362,94 2.026,67 0,00 0,00 3.389,61 13.352,37 31/12/2020
833 612000 ELIZABETH MARIA DE QUEIROZ TANIGUCHI OFICIAL DO MP BELO HORIZONTE - COMARCA; SUPERINTENDENCIA DE RECURSOS HUMANOS 4.974,42 497,44 0,00 2.236,73 0,00 0,00 0,00 1.550,00 9.258,59 603,32 469,49 0,00 0,00 1.072,81 8.185,78 31/12/2020
834 452800 ELIZANGELA MARIA DAVI OFICIAL DO MP ARCOS - COMARCA; ARCOS-PJ-01PJ 6.123,79 1.224,76 0,00 2.831,57 0,00 0,00 0,00 1.550,00 11.730,12 815,39 875,12 0,00 0,00 1.690,51 10.039,61 31/12/2020
835 496300 ELIZANGELA MARQUES PINTO COELHO OFICIAL DO MP BELO HORIZONTE - COMARCA; DIRETORIA DE PESSOAL ADMINISTRATIVO - DPAD 7.663,37 766,34 0,00 2.197,41 0,00 0,00 0,00 1.550,00 12.177,12 937,85 1.190,90 0,00 0,00 2.128,75 10.048,37 31/12/2020
836 422500 ELIZETE FORTES DA CUNHA ANALISTA DO MP RIBEIRÃO DAS NEVES - COMARCA; RIBEIRAO DAS NEVES-PJ-07PJ 13.011,52 2.602,30 0,00 3.381,38 0,00 0,00 0,00 1.550,00 20.545,20 1.784,88 2.881,46 0,00 0,00 4.666,34 15.878,86 31/12/2020
837 506100 ELLEM CRISTINA ROCHA FONSECA BOWEN ANALISTA DO MP GOVERNADOR VALADARES - COMARCA; COORD REG PJ DEF EDU DIR CRIANCA ADOL RIODOCE 10.069,62 1.006,96 0,00 8.016,53 0,00 0,00 0,00 1.550,00 20.643,11 1.244,89 1.834,36 0,00 0,00 3.079,25 17.563,86 31/12/2020
838 468200 ELLEN CRISTINA BERNARDES DARE ANALISTA DO MP TRÊS PONTAS - COMARCA; TRES PONTAS-PJ-02PJ 10.069,62 2.013,92 0,00 2.530,37 0,00 0,00 0,00 1.550,00 16.163,91 1.362,94 2.026,67 0,00 0,00 3.389,61 12.774,30 31/12/2020
839 418800 ELLEN CRISTINA DE QUEIROZ FERREIRA ANALISTA DO MP BELO HORIZONTE - COMARCA; CENTRAL DE APOIO TECNICO-SETOR CONTABIL 12.601,30 2.520,26 0,00 5.414,65 0,00 0,00 0,00 3.548,67 24.084,88 1.724,83 2.814,74 0,00 0,00 4.539,57 19.545,31 31/12/2020
840 328401 ELLEN CRISTINA FERREIRA MORAIS MONTEIRO ANALISTA DO MP CAMANDUCAIA - COMARCA; CAMANDUCAIA-PJ-UNPJ 12.601,30 2.520,26 0,00 5.466,79 0,00 0,00 0,00 1.550,00 22.138,35 1.724,83 2.710,47 0,00 0,00 4.435,30 17.703,05 31/12/2020
841 556100 ELLEN CRISTINE BIANCHIN DA SILVA OFICIAL DO MP SÃO GONÇALO DO SAPUCAÍ - COMARCA; SAO GONCALO DO SAPUCAI-PJ-02PJ 5.387,19 538,72 0,00 4.695,24 0,00 0,00 0,00 1.550,00 12.171,15 654,63 528,11 0,00 0,00 1.182,74 10.988,41 31/12/2020
842 447100 ELLEN ROSANA DE MACEDO BORGES OFICIAL DO MP UBERLÂNDIA - COMARCA; UBERLANDIA-PJ-17PJ 7.912,85 1.582,57 0,00 2.365,33 3.165,14 0,00 0,00 1.550,00 16.575,89 1.061,47 2.320,39 0,00 0,00 3.381,86 13.194,03 31/12/2020
843 477700 ELMA JACOB OFICIAL DO MP BELO HORIZONTE - COMARCA; COORD DE GABINETE DO PGJ 7.663,37 5.364,36 0,00 4.005,93 4.342,58 2.107,76 0,00 1.550,00 25.034,00 1.475,30 3.907,48 0,00 0,00 5.382,78 19.651,22 31/12/2020
844 123300 ELMA PAULA DOS SANTOS COELHO OFICIAL DO MP BELO HORIZONTE - COMARCA; BH-19PJ SAUDE-SECRETARIA 130PJ 18.820,14 16.938,13 0,00 10.475,64 0,00 9.886,22 0,00 1.550,00 57.670,13 4.254,77 8.882,75 296,05 0,00 13.433,57 44.236,56 31/12/2020
845 356500 ELOISA CARDOSO SILVA FRANCA OFICIAL DO MP PEÇANHA - COMARCA; PECANHA-PJ-SECRETARIA 6.123,79 1.224,76 0,00 5.767,42 0,00 0,00 0,00 1.550,00 14.665,97 815,39 770,85 0,00 0,00 1.586,24 13.079,73 31/12/2020
846 251901 ELOISA COSTA E SILVA ANALISTA DO MP SANTOS DUMONT - COMARCA; SANTOS DUMONT-PJ-02PJ 10.069,62 3.020,89 0,00 2.822,89 0,00 0,00 0,00 2.319,39 18.232,79 1.482,77 2.270,63 0,00 0,00 3.753,40 14.479,39 31/12/2020
847 400400 ELOIZA MARIA FERRI PIRES DA SILVA OFICIAL DO MP BELO HORIZONTE - COMARCA; ASSESSORIA TECNICA DO PROCON-MG 7.912,85 1.582,57 0,00 2.417,46 0,00 0,00 0,00 1.550,00 13.462,88 1.061,47 1.397,84 0,00 0,00 2.459,31 11.003,57 31/12/2020
848 258000 ELSO CECIANO PALMEIRA COORDENADOR/OFICIAL BELO HORIZONTE - COMARCA; DIRET DE PESSOAL DO MINISTERIO PUBLICO - DPMP 12.204,02 8.542,81 2.836,60 5.262,61 0,00 0,00 0,00 1.550,00 30.396,04 2.415,35 4.951,86 0,00 0,00 7.367,21 23.028,83 31/12/2020
849 206900 ELVIRA RITA DOS SANTOS ANALISTA DO MP BELO HORIZONTE - COMARCA; CENTRAL DE APOIO TECNICO-SETOR CONTABIL 18.820,14 7.528,06 0,00 6.797,70 0,00 3.115,51 0,00 1.550,00 37.811,41 3.115,51 6.376,40 0,00 0,00 9.491,91 28.319,50 31/12/2020
850 506800 ELVIS FERREIRA DA SILVA ANALISTA DO MP BELO HORIZONTE - COMARCA; DIRETORIA DE SISTEMAS DE INFORMACAO 10.069,62 1.006,96 0,00 2.634,65 0,00 0,00 0,00 2.319,39 16.030,62 1.244,89 1.677,94 0,00 0,00 2.922,83 13.107,79 31/12/2020
851 602400 ELZA MARIA MOREIRA MUNIZ ANALISTA DO MP RIO PARANAÍBA - COMARCA; RIO PARANAIBA-PJ-UNPJ 9.146,93 914,69 0,00 2.687,71 0,00 0,00 0,00 1.550,00 14.299,33 1.127,14 1.535,48 0,00 0,00 2.662,62 11.636,71 31/12/2020
852 368401 ELZIRA SIMOES DOS SANTOS ASSESSOR BELO HORIZONTE - COMARCA; ASSESSORIA DE COMUNICACAO INTEGRADA 0,00 3.433,94 11.446,46 4.413,55 0,00 0,00 0,00 1.550,00 20.843,95 1.426,18 3.329,15 0,00 0,00 4.755,33 16.088,62 31/12/2020
853 437400 EMANOELLE DA SILVA RODRIGUES OFICIAL DO MP UNAÍ - COMARCA; UNAI-PJ-03PJ 7.187,72 1.437,54 0,00 2.167,15 0,00 0,00 0,00 3.088,78 13.881,19 960,53 1.186,30 0,00 0,00 2.146,83 11.734,36 31/12/2020
854 458900 EMANUELLE CONRAD SILVA FREDERICO NAVES ANALISTA DO MP ALFENAS - COMARCA; ALFENAS-PJ-05PJ 12.601,30 2.520,26 0,00 3.105,30 0,00 0,00 0,00 2.319,39 20.546,25 1.724,83 2.762,60 0,00 0,00 4.487,43 16.058,82 31/12/2020
855 284100 EMERSON MAGNO ALMEIDA PEDROSA DA FONSECA ANALISTA DO MP BELO HORIZONTE - COMARCA; CENTRAL DE APOIO TECNICO-SETOR CONTABIL 17.413,92 5.224,18 0,00 16.658,59 0,00 0,00 0,00 1.550,00 40.846,69 2.651,75 2.726,78 0,00 0,00 5.378,53 35.468,16 31/12/2020
856 179900 EMERSON MORAIS DIAS OFICIAL DO MP BELO HORIZONTE - COMARCA; SUPERINTENDÊNCIA DE ENGENHARIA E ARQUITETURA 15.272,02 6.108,81 0,00 4.237,75 0,00 0,00 0,00 1.550,00 27.168,58 2.494,59 4.324,35 0,00 0,00 6.818,94 20.349,64 31/12/2020
857 488700 EMERSON SIQUEIRA DE SOUSA TEIXEIRA ANALISTA DO MP TARUMIRIM - COMARCA; TARUMIRIM-PJ-UNPJ 10.069,62 1.006,96 0,00 2.634,65 0,00 0,00 0,00 1.550,00 15.261,23 1.244,89 1.677,94 0,00 0,00 2.922,83 12.338,40 31/12/2020
858 194200 EMILIA ALVES FERREIRA RAMOS OFICIAL DO MP UBERLÂNDIA - COMARCA; UBERLANDIA-PJ-SEC FAMILIA 9.444,70 3.777,88 0,00 2.952,52 0,00 0,00 0,00 1.550,00 17.725,10 1.498,49 2.354,77 0,00 0,00 3.853,26 13.871,84 31/12/2020
859 679500 EMILY DIAS LEMOS E SILVA ASSESSOR PROCURADOR JUSTICA BELO HORIZONTE - COMARCA; GABINETE DE PROCURADOR DE JUSTIÇA - SALA 706 0,00 0,00 7.187,72 2.962,58 0,00 0,00 0,00 2.319,39 12.469,69 994,11 1.109,39 0,00 0,00 2.103,50 10.366,19 31/12/2020
860 620700 EMILY FONTANA DE SIQUEIRA ANALISTA DO MP BELO HORIZONTE - COMARCA; BH-18PJ VIOLENCIA DOMESTICA-SECRETARIA 8.436,53 843,65 0,00 3.516,99 0,00 0,00 0,00 2.319,39 15.116,56 1.036,50 1.345,51 0,00 0,00 2.382,01 12.734,55 31/12/2020
861 297000 ENEIDA SOARES COSTA MELO ANALISTA DO MP PIUMHI - COMARCA; PIUMHI-PJ-01PJ 17.413,92 5.224,18 0,00 4.493,73 0,00 0,00 0,00 1.550,00 28.681,83 2.651,75 4.626,89 0,00 0,00 7.278,64 21.403,19 31/12/2020
862 276000 ENEZIO RODRIGUES DE SOUZA FILHO OFICIAL DO MP UBERLÂNDIA - COMARCA; UBERLANDIA-PJ-10PJ 10.069,62 3.020,89 0,00 2.770,75 0,00 0,00 0,00 1.550,00 17.411,26 1.482,77 2.322,77 0,00 0,00 3.805,54 13.605,72 31/12/2020
863 387700 ENI MARIA DOS REIS OFICIAL DO MP POUSO ALEGRE - COMARCA; POUSO ALEGRE-PJ-07PJ 8.858,43 1.771,69 0,00 3.935,50 0,00 0,00 0,00 1.550,00 16.115,62 1.193,09 1.725,82 0,00 0,00 2.918,91 13.196,71 31/12/2020
864 605100 ENIA MAIA ASSESSOR/OFICIAL BELO HORIZONTE - COMARCA; DIRETORIA DE ORCAMENTO-DIOR/SPC 0,00 1.039,75 10.397,52 2.856,70 0,00 0,00 0,00 1.550,00 15.843,97 722,19 1.950,68 0,00 460,39 3.133,26 12.710,71 31/12/2020
865 612200 ENILDO GOMES MEIRA FILHO ANALISTA DO MP MATOZINHOS - COMARCA; MATOZINHOS-PJ-02PJ 8.436,53 843,65 0,00 2.487,85 0,00 0,00 0,00 2.319,39 14.087,42 1.036,50 1.241,24 0,00 0,00 2.277,74 11.809,68 31/12/2020
866 553700 ENIVALDO NOVATO PUBLIO ANALISTA DO MP DIVINÓPOLIS - COMARCA; DIVINOPOLIS-PJ-09PJ 9.146,93 914,69 0,00 2.687,71 0,00 0,00 0,00 1.550,00 14.299,33 1.127,14 1.535,48 0,00 0,00 2.662,62 11.636,71 31/12/2020
867 680600 ENZO JOSE FERES SOUZA JABER ASSESSOR PROMOTOR JUSTICA NOVO CRUZEIRO - COMARCA; NOVO CRUZEIRO-PJ-SECRETARIA 0,00 0,00 7.187,72 2.934,14 0,00 0,00 0,00 1.550,00 11.671,86 994,11 1.213,66 0,00 0,00 2.207,77 9.464,09 31/12/2020
868 417300 ERIC BARATTI DA SILVA ANALISTA DO MP FRUTAL - COMARCA; FRUTAL-PJ-05PJ 10.069,62 2.013,92 0,00 2.624,49 0,00 0,00 0,00 1.550,00 16.258,03 1.362,94 2.078,80 0,00 0,00 3.441,74 12.816,29 31/12/2020
869 637600 ERIC DA ROCHA CHEHUEN ANALISTA DO MP LIMA DUARTE - COMARCA; LIMA DUARTE-PJ-UNPJ 8.170,49 817,05 0,00 6.898,76 0,00 0,00 0,00 1.550,00 17.436,30 674,42 1.416,75 0,00 0,00 2.091,17 15.345,13 31/12/2020
870 398900 ERIC TEIXEIRA SILVA OFICIAL DO MP UBERLÂNDIA - COMARCA; UBERLANDIA-PJ-SEC CIVEIS CRIMINAIS 8.579,10 1.715,82 0,00 2.431,42 0,00 0,00 0,00 1.550,00 14.276,34 1.154,21 1.644,34 0,00 0,00 2.798,55 11.477,79 31/12/2020
871 274200 ERICA DE SOUZA ANDRADE OFICIAL DO MP CURVELO - COMARCA; CURVELO-PJ-03PJ 10.069,62 3.020,89 0,00 2.822,89 0,00 0,00 0,00 1.550,00 17.463,40 1.482,77 2.270,63 0,00 0,00 3.753,40 13.710,00 31/12/2020
872 225700 ERICA GOMES DO COUTO OFICIAL DO MP BELO HORIZONTE - COMARCA; BH-21PJ TUTELA FUNDACOES-SECRETARIA 14.324,23 4.297,27 0,00 4.239,67 0,00 0,00 0,00 2.319,39 25.180,56 2.152,26 3.659,68 0,00 0,00 5.811,94 19.368,62 31/12/2020
873 632600 ERICA LEONOR MARTINS OFICIAL DO MP RESENDE COSTA - COMARCA; RESENDE COSTA-PJ-UNPJ 5.217,34 521,73 0,00 1.876,21 0,00 0,00 0,00 1.550,00 9.165,28 633,52 534,67 0,00 0,00 1.168,19 7.997,09 31/12/2020
874 524800 ERICA MACHADO DA COSTA E SOUZA ANALISTA DO MP BELO HORIZONTE - COMARCA; PROC JUST RECURSOS ESP E EXTRAORD CRIMINAIS 10.069,62 1.006,96 0,00 2.478,24 0,00 0,00 0,00 1.550,00 15.104,82 1.244,89 1.834,36 0,00 0,00 3.079,25 12.025,57 31/12/2020
875 249500 ERICA RODRIGUES ANDRADE OFICIAL DO MP SÃO FRANCISCO - COMARCA; SAO FRANCISCO-PJ-02PJ 9.146,93 2.744,08 0,00 2.794,93 0,00 0,00 0,00 1.550,00 16.235,94 1.340,03 1.980,02 0,00 0,00 3.320,05 12.915,89 31/12/2020
876 260800 ERICA VIANA GIARDINI DE OLIVEIRA OFICIAL DO MP BELO HORIZONTE - COMARCA; DIRETORIA GESTAO COMPRAS LICITACOES 10.069,62 3.020,89 0,00 2.770,75 4.363,50 0,00 0,00 1.550,00 21.774,76 1.482,77 3.522,73 0,00 0,00 5.005,50 16.769,26 31/12/2020
877 299800 ERICH DOUGLAS RIBEIRO GARCIA ANALISTA DO MP BELO HORIZONTE - COMARCA; CENTRAL DE APOIO TECNICO-SETOR CONTABIL 16.750,82 5.025,25 0,00 4.782,08 7.258,69 0,00 0,00 1.550,00 35.366,84 2.544,00 6.415,60 0,00 0,00 8.959,60 26.407,24 31/12/2020
878 365000 ERICK EDUARDO JOSE DA SILVA OFICIAL DO MP SANTOS DUMONT - COMARCA; SANTOS DUMONT-PJ-02PJ 6.123,79 1.224,76 0,00 1.936,73 0,00 0,00 0,00 1.550,00 10.835,28 815,39 927,26 0,00 0,00 1.742,65 9.092,63 31/12/2020
879 688900 ERICK FERDINANN SANTOS GOMES ASSESSOR PROMOTOR JUSTICA OURO PRETO - COMARCA; OURO PRETO-PJ-04PJ 0,00 0,00 7.187,72 1.796,93 0,00 0,00 0,00 1.550,00 10.534,65 859,14 1.213,66 0,00 0,00 2.072,80 8.461,85 31/12/2020
880 227400 ERIKA DE LAET GOULART BOECHAT ASSESSOR/OFICIAL BELO HORIZONTE - COMARCA; ASSESSORIA ESPECIAL DO PGJ 14.324,23 4.297,27 2.520,26 4.858,86 7.047,25 0,00 0,00 1.550,00 34.597,87 2.152,26 6.238,61 0,00 0,00 8.390,87 26.207,00 31/12/2020
881 681300 ERIKA FERNANDA ELISEU FERREIRA ASSESSOR PROCURADOR JUSTICA BELO HORIZONTE - COMARCA; GABINETE DE PROCURADOR DE JUSTIÇA - SALA 407 0,00 0,00 7.187,72 2.934,14 0,00 0,00 0,00 1.550,00 11.671,86 994,11 1.213,66 0,00 0,00 2.207,77 9.464,09 31/12/2020
882 285100 ERIKA FERREIRA DA SILVA OFICIAL DO MP JUIZ DE FORA - COMARCA; JUIZ DE FORA-PJ-11PJ 10.069,62 3.020,89 0,00 2.770,75 0,00 0,00 0,00 1.550,00 17.411,26 1.482,77 2.322,77 0,00 0,00 3.805,54 13.605,72 31/12/2020
883 420100 ERIKA JEANINE VERSIANI DE CASTRO ANALISTA DO MP BELO HORIZONTE - COMARCA; COORD ESTADUAL DE DEFESA DA EDUCACAO 13.011,52 2.602,30 0,00 3.329,25 0,00 0,00 0,00 1.550,00 20.493,07 1.784,88 2.933,60 0,00 0,00 4.718,48 15.774,59 31/12/2020
884 677100 ERIKA LAYS CARDOSO FERNANDES ASSESSOR PROMOTOR JUSTICA GRAO MOGOL - COMARCA; GRAO MOGOL-PJ-UNPJ 0,00 0,00 7.187,72 2.934,14 0,00 0,00 0,00 1.550,00 11.671,86 994,11 1.213,66 0,00 0,00 2.207,77 9.464,09 31/12/2020
885 606900 ERIKA MARIA BARBOSA ANALISTA DO MP BELO HORIZONTE - COMARCA; CAO-SAUDE 8.436,53 843,65 0,00 2.601,12 0,00 0,00 0,00 1.550,00 13.431,30 1.036,50 1.345,51 0,00 0,00 2.382,01 11.049,29 31/12/2020
886 491000 ERIKA ROCHA PEREIRA E SILVA COORDENADOR/ANALISTA BELO HORIZONTE - COMARCA; DIR GOVERNANCA TECNOLOGIA INFORMACAO 0,00 1.343,52 13.435,16 3.311,21 4.926,23 0,00 0,00 1.550,00 24.566,12 1.244,89 4.207,15 0,00 0,00 5.452,04 19.114,08 31/12/2020
887 283201 ERIKA STEHLING COORDENADOR/ANALISTA BELO HORIZONTE - COMARCA; CENTRAL DE APOIO TECNICO-SETOR DE ENGENHARIA 10.069,62 1.006,96 2.363,83 4.865,15 0,00 0,00 0,00 1.550,00 19.855,56 1.244,89 2.484,41 0,00 0,00 3.729,30 16.126,26 31/12/2020
888 254000 ERLANDIA DA SILVA MENDES OFICIAL DO MP IPATINGA - COMARCA; IPATINGA-PJ-03PJ 12.601,30 5.040,52 0,00 3.805,16 0,00 0,00 0,00 1.550,00 22.996,98 2.032,30 3.266,85 0,00 0,00 5.299,15 17.697,83 31/12/2020
889 208600 ERNANE JOSE DA COSTA ANALISTA DO MP BELO HORIZONTE - COMARCA; CENTRAL DE APOIO TECNICO-SETOR MEDICO 18.820,14 15.056,11 0,00 5.789,88 0,00 0,00 0,00 1.550,00 41.216,13 4.056,52 7.331,07 0,00 0,00 11.387,59 29.828,54 31/12/2020
890 260600 ERNANI CALDEIRA DE ANDRADE ANALISTA DO MP BELO HORIZONTE - COMARCA; CENTRAL DE APOIO TECNICO-SETOR CONTABIL 18.820,14 5.646,04 0,00 4.423,07 0,00 0,00 0,00 1.550,00 30.439,25 2.880,27 5.066,77 0,00 0,00 7.947,04 22.492,21 31/12/2020
891 348500 ERNILANDIA DE OLIVEIRA DIAS OFICIAL DO MP MONTES CLAROS - COMARCA; MONTES CLAROS-PJ-16PJ 8.858,43 1.771,69 0,00 2.544,12 0,00 0,00 0,00 1.550,00 14.724,24 1.193,09 1.725,82 0,00 0,00 2.918,91 11.805,33 31/12/2020
892 199300 ERTON PORTINARI DE ANDRADE OFICIAL DO MP SETE LAGOAS - COMARCA; SETE LAGOAS-PJ-05PJ 14.790,66 5.916,26 0,00 4.235,99 0,00 0,00 0,00 1.550,00 26.492,91 2.410,35 4.057,92 0,00 0,00 6.468,27 20.024,64 31/12/2020
893 618800 ESLY DE CARLA AYALLA BARBOSA MENDES OFICIAL DO MP NOVA LIMA - COMARCA; NOVA LIMA-PJ-SECRETARIA 4.974,42 497,44 0,00 1.731,43 0,00 0,00 0,00 1.550,00 8.753,29 603,32 469,49 0,00 0,00 1.072,81 7.680,48 31/12/2020
894 537000 ESTANISLAU CORREIA ALMEIDA JUNIOR OFICIAL DO MP UBERLÂNDIA - COMARCA; UBERLANDIA-PJ-25PJ 5.930,75 593,08 0,00 2.050,13 0,00 0,00 0,00 1.550,00 10.123,96 722,19 726,09 0,00 0,00 1.448,28 8.675,68 31/12/2020
895 692100 ESTEFANIA FARIA FERREIRA ASSESSOR PROCURADOR JUSTICA BELO HORIZONTE - COMARCA; GABINETE DE PROCURADOR DE JUSTIÇA - SALA 814 0,00 0,00 7.187,72 1.197,95 0,00 0,00 0,00 1.550,00 9.935,67 805,23 1.213,66 0,00 0,00 2.018,89 7.916,78 31/12/2020
896 326900 ESTER ALICE PIMENTA OFICIAL DO MP BELO HORIZONTE - COMARCA; COORD DE INCLUSAO E MOBILIZACAO SOCIAIS 10.069,62 3.020,89 0,00 3.094,46 0,00 0,00 0,00 1.550,00 17.734,97 1.482,77 2.322,77 0,00 0,00 3.805,54 13.929,43 31/12/2020
897 503700 ESTHER GONCALVES FONSECA ANALISTA DO MP BELO HORIZONTE - COMARCA; CENTRO PUBLICIDADE E DESIGN GRAFICO 9.444,70 944,47 0,00 2.749,72 0,00 0,00 0,00 1.550,00 14.688,89 1.165,15 1.667,25 0,00 0,00 2.832,40 11.856,49 31/12/2020
898 475600 ETIENE DE FATIMA OLIVEIRA PEREIRA ANALISTA DO MP PATROCÍNIO - COMARCA; PATROCINIO-PJ-04PJ 10.069,62 2.013,92 0,00 2.582,51 0,00 0,00 0,00 1.550,00 16.216,05 1.362,94 1.974,53 0,00 0,00 3.337,47 12.878,58 31/12/2020
899 428800 EUGENIA RODRIGUES TRAJANO BORGES ANALISTA DO MP UBERABA - COMARCA; UBERABA-PJ-08PJ 12.601,30 2.520,26 0,00 3.251,70 0,00 0,00 0,00 2.319,39 20.692,65 1.724,83 2.814,74 0,00 0,00 4.539,57 16.153,08 31/12/2020
900 272700 EUGENIO DE BARCELOS FILHO OFICIAL DO MP FRUTAL - COMARCA; FRUTAL-PJ-03PJ 8.858,43 2.657,53 0,00 4.253,30 0,00 0,00 0,00 1.550,00 17.319,26 1.295,85 1.889,03 0,00 0,00 3.184,88 14.134,38 31/12/2020
901 254100 EULALIA ALVES MIRANDA LUCAS OFICIAL DO MP ALMENARA - COMARCA; ALMENARA-PJ-02PJ 12.204,02 3.661,21 0,00 3.845,11 0,00 0,00 0,00 1.550,00 21.260,34 1.815,55 2.890,03 0,00 0,00 4.705,58 16.554,76 31/12/2020
902 615500 EUNICE BARBOSA PINTO OFICIAL DO MP OURO PRETO - COMARCA; OURO PRETO-PJ-03PJ 5.387,19 1.077,44 0,00 1.887,83 0,00 0,00 0,00 1.550,00 9.902,46 715,51 711,65 0,00 0,00 1.427,16 8.475,30 31/12/2020
903 641200 EUNICE ELVIRA DA SILVA MATOS OFICIAL DO MP BELO HORIZONTE - COMARCA; BH-14PJ DEFESA CONSUMIDOR-SECRETARIA 4.817,57 481,76 0,00 1.787,64 0,00 0,00 0,00 1.550,00 8.636,97 583,82 427,41 0,00 0,00 1.011,23 7.625,74 31/12/2020
904 557900 EURIPEDES JOSUE PERES OFICIAL DO MP IBIÁ - COMARCA; IBIA-PJ-UNPJ 5.387,19 538,72 0,00 4.643,10 0,00 0,00 0,00 1.550,00 12.119,01 654,63 580,24 0,00 0,00 1.234,87 10.884,14 31/12/2020
905 225800 EURO CESAR VIEIRA BARBOSA ANALISTA DO MP BELO HORIZONTE - COMARCA; BH-17PJ PATRIMONIO PUBLICO-SECRETARIA 18.820,14 7.528,06 0,00 4.800,71 8.782,73 0,00 0,00 1.550,00 41.481,64 3.115,51 7.830,61 0,00 0,00 10.946,12 30.535,52 31/12/2020
906 199400 EUSTAQUIO ADAILTON LIMA E SILVA OFICIAL DO MP MANGA - COMARCA; MANGA-PJ-01PJ 14.790,66 10.353,47 0,00 8.819,69 0,00 0,00 0,00 1.550,00 35.513,82 2.965,01 5.021,35 0,00 0,00 7.986,36 27.527,46 31/12/2020
907 548000 EVA VILMA LEAO REIS JULIO OFICIAL DO MP BELO HORIZONTE - COMARCA; BH-07PJ 01 TRIBUNAL JURI-SECRETARIA 5.930,75 1.779,23 0,00 2.264,81 0,00 0,00 0,00 1.550,00 11.524,79 856,23 1.015,42 0,00 0,00 1.871,65 9.653,14 31/12/2020
908 517000 EVALDO SENA COSTA FILHO ANALISTA DO MP CONTAGEM - COMARCA; CONTAGEM-PJ-15PJ 10.069,62 3.020,89 0,00 2.927,16 4.363,50 0,00 0,00 1.550,00 21.931,17 1.482,77 3.366,32 0,00 0,00 4.849,09 17.082,08 31/12/2020
909 217500 EVELANGE LEAO RABELO ASSESSOR BELO HORIZONTE - COMARCA; COORD EST DEF DIR FAM PESSOAS DEFICI IDOSOS 0,00 1.230,51 3.076,28 1.924,42 0,00 0,00 0,00 1.550,00 7.781,21 1.077,80 448,14 0,00 0,00 1.525,94 6.255,27 31/12/2020
910 679600 EVERTON BARBOSA DA SILVA ASSESSOR PROCURADOR JUSTICA BELO HORIZONTE - COMARCA; GABINETE DE PROCURADOR DE JUSTIÇA - SALA 510 0,00 0,00 7.187,72 2.934,14 0,00 0,00 0,00 1.550,00 11.671,86 994,11 1.213,66 0,00 0,00 2.207,77 9.464,09 31/12/2020
911 540400 EVIE SARAMELLA DE RESENDE OFICIAL DO MP BARBACENA - COMARCA; BARBACENA-PJ-05PJ 5.930,75 593,08 0,00 5.013,09 0,00 0,00 0,00 1.550,00 13.086,92 722,19 726,09 0,00 0,00 1.448,28 11.638,64 31/12/2020
912 469000 EWERTON CARDOSO DE SA RODRIGUES ANALISTA DO MP CAMPO BELO - COMARCA; CAMPO BELO-PJ-01PJ 10.069,62 2.013,92 0,00 2.582,51 0,00 0,00 0,00 2.319,39 16.985,44 1.362,94 1.974,53 0,00 0,00 3.337,47 13.647,97 31/12/2020
913 368900 FABIANA BARBOSA SIQUEIRA OFICIAL DO MP BELO HORIZONTE - COMARCA; CAO-ORDEM ECONOMICA E TRIBUTARIA-SECRETARIA 9.146,93 1.829,39 0,00 7.965,88 0,00 0,00 0,00 1.550,00 20.492,20 1.233,26 1.757,85 0,00 0,00 2.991,11 17.501,09 31/12/2020
914 273800 FABIANA CARNEIRO AMORIM COORDENADOR/OFICIAL BELO HORIZONTE - COMARCA; BH-23PJ CIVEL-COORD ADM CIVEL 11.085,56 3.325,67 2.363,83 3.775,90 0,00 0,00 0,00 1.550,00 22.100,96 1.639,93 3.188,52 0,00 0,00 4.828,45 17.272,51 31/12/2020
915 519300 FABIANA DE OLIVEIRA LOUREIRO ANALISTA DO MP BELO HORIZONTE - COMARCA; BH-09PJ AUDITORIA MILITAR-SECRETARIA 10.069,62 1.006,96 0,00 2.478,24 0,00 0,00 0,00 1.550,00 15.104,82 1.244,89 1.834,36 0,00 0,00 3.079,25 12.025,57 31/12/2020
916 363400 FABIANA DOURADO DUPIN VIEGAS ANALISTA DO MP BELO HORIZONTE - COMARCA; GABINETE DE PROCURADOR DE JUSTIÇA - SALA 705 15.272,02 3.054,40 0,00 3.808,68 0,00 0,00 0,00 1.550,00 23.685,10 2.115,82 3.536,42 0,00 0,00 5.652,24 18.032,86 31/12/2020
917 410800 FABIANA DUARTE QUITITE ANALISTA DO MP BELO HORIZONTE - COMARCA; BH-15PJ M AMB PAT HIST CULT-GAB 116PJ 13.011,52 2.602,30 0,00 3.329,25 5.204,61 0,00 0,00 1.550,00 25.697,68 1.784,88 4.364,87 0,00 0,00 6.149,75 19.547,93 31/12/2020
918 419500 FABIANA EULALIA DOS SANTOS ANALISTA DO MP SÃO JOÃO DEL REI - COMARCA; SAO JOAO DEL REI-PJ-01PJ 13.011,52 2.602,30 0,00 5.576,76 0,00 0,00 0,00 1.550,00 22.740,58 1.784,88 2.933,60 0,00 0,00 4.718,48 18.022,10 31/12/2020
919 700300 FABIANA MARCIA DE SOUZA ASSESSOR BELO HORIZONTE - COMARCA; DIRET DE CONTROLE E DE MANUTENCAO DE IMOVEIS 0,00 0,00 2.050,85 256,36 0,00 0,00 0,00 1.150,00 3.457,21 282,50 42,33 0,00 0,00 324,83 3.132,38 31/12/2020
920 376300 FABIANA MATTOSO LEMOS ANALISTA DO MP BELO HORIZONTE - COMARCA; BH-21PJ TUTELA FUNDACOES-SECRETARIA 14.324,23 2.864,85 0,00 3.980,42 0,00 0,00 0,00 1.550,00 22.719,50 1.977,07 3.313,94 0,00 0,00 5.291,01 17.428,49 31/12/2020
921 331500 FABIANA PACHECO OFICIAL DO MP GUAXUPÉ - COMARCA; GUAXUPE-PJ-01PJ 10.069,62 3.020,89 0,00 3.352,97 0,00 0,00 0,00 2.319,39 18.762,87 1.482,77 2.218,49 0,00 0,00 3.701,26 15.061,61 31/12/2020
922 510700 FABIANA PEREIRA SANTOS BORGES ANALISTA DO MP BELO HORIZONTE - COMARCA; DIRETORIA DE SISTEMAS DE INFORMACAO 10.069,62 1.006,96 0,00 2.530,37 0,00 0,00 0,00 2.319,39 15.926,34 1.244,89 1.782,22 0,00 0,00 3.027,11 12.899,23 31/12/2020
923 181700 FABIANA SOUZA FERREIRA OFICIAL DO MP BELO HORIZONTE - COMARCA; BH-19PJ SAUDE-SECRETARIA 150PJ 6.123,79 2.449,52 0,00 2.218,91 0,00 0,00 0,00 1.550,00 12.342,22 954,50 1.121,54 0,00 0,00 2.076,04 10.266,18 31/12/2020
924 272900 FABIANA STOCKLER LEITE OFICIAL DO MP LAJINHA - COMARCA; LAJINHA-PJ-SECRETARIA 10.069,62 5.034,81 0,00 3.167,55 0,00 0,00 0,00 1.729,52 20.001,50 1.722,74 2.706,33 0,00 0,00 4.429,07 15.572,43 31/12/2020
925 225500 FABIANE DE FATIMA PORTELLA ANALISTA DO MP BELO HORIZONTE - COMARCA; BH-18PJ DIREITOS HUMANOS-SECRETARIA 18.820,14 5.646,04 0,00 4.423,07 0,00 0,00 0,00 1.550,00 30.439,25 2.880,27 5.066,77 0,00 0,00 7.947,04 22.492,21 31/12/2020
926 433800 FABIANE DINIZ MATTOS ANALISTA DO MP BELO HORIZONTE - COMARCA; BH-23PJ INFRACIONAL-ASS JURIDICA 13.011,52 2.602,30 0,00 3.329,25 0,00 0,00 3.211,92 3.088,78 25.243,77 2.177,48 3.708,91 0,00 0,00 5.886,39 19.357,38 31/12/2020
927 455000 FABIANO CARVALHO DA SILVA ANALISTA DO MP LAVRAS - COMARCA; LAVRAS-PJ-05PJ 10.069,62 2.013,92 0,00 2.478,24 0,00 0,00 0,00 1.550,00 16.111,78 1.362,94 2.078,80 0,00 0,00 3.441,74 12.670,04 31/12/2020
928 498800 FABIANO FURTADO PESSOA COELHO ANALISTA DO MP BELO HORIZONTE - COMARCA; DIRETORIA DE REDES E BANCOS DE DADOS 10.069,62 1.006,96 0,00 2.530,37 3.692,19 0,00 0,00 1.550,00 18.849,14 1.244,89 2.797,57 0,00 0,00 4.042,46 14.806,68 31/12/2020
929 663000 FABIANO MARQUES CORREA ASSESSOR BELO HORIZONTE - COMARCA; DIRETORIA DE SUPORTE E MANUTENCAO 0,00 0,00 5.136,32 2.178,67 0,00 0,00 0,00 1.550,00 8.864,99 1.291,12 649,53 0,00 0,00 1.940,65 6.924,34 31/12/2020
930 394600 FABIANO PALHARES SILVA ANALISTA DO MP BELO HORIZONTE - COMARCA; CENTRAL DE APOIO TECN-SETOR DE MEIO AMBIENTE 14.324,23 2.864,85 0,00 4.032,56 0,00 0,00 0,00 1.550,00 22.771,64 1.977,07 3.261,81 0,00 0,00 5.238,88 17.532,76 31/12/2020
931 676600 FABIANO RESENDE VELOSO ASSESSOR PROCURADOR JUSTICA BELO HORIZONTE - COMARCA; GABINETE DE PROCURADOR DE JUSTIÇA - SALA 1002 0,00 0,00 7.187,72 2.934,14 0,00 0,00 0,00 1.550,00 11.671,86 994,11 1.213,66 0,00 0,00 2.207,77 9.464,09 31/12/2020
932 444400 FABIANO SARAIVA MEDEIROS ANALISTA DO MP BETIM - COMARCA; BETIM-PJ-11PJ 12.601,30 2.520,26 0,00 10.678,38 5.040,52 0,00 0,00 2.319,39 33.159,85 1.724,83 4.096,61 0,00 0,00 5.821,44 27.338,41 31/12/2020
933 408700 FABIANO SOARES PORTILHO ANALISTA DO MP VIÇOSA - COMARCA; VICOSA-PJ-02PJ 13.011,52 2.602,30 0,00 3.329,25 0,00 0,00 0,00 1.550,00 20.493,07 1.784,88 2.933,60 0,00 0,00 4.718,48 15.774,59 31/12/2020
934 442600 FABIO CARVALHO VIEIRA ANALISTA DO MP MONTES CLAROS - COMARCA; MONTES CLAROS-PJ-06PJ 9.752,14 1.950,43 0,00 2.713,05 3.900,86 0,00 0,00 1.550,00 19.866,48 1.317,61 3.059,24 0,00 0,00 4.376,85 15.489,63 31/12/2020
935 240101 FABIO JUNQUEIRA DE ASSIS FONSECA OFICIAL DO MP BELO HORIZONTE - COMARCA; BH-17PJ PATRIMONIO PUBLICO-SECRETARIA 8.170,49 1.634,10 0,00 2.414,06 0,00 0,00 0,00 1.550,00 13.768,65 1.097,33 1.525,14 0,00 0,00 2.622,47 11.146,18 31/12/2020
936 271500 FABIO LUIZ VIEIRA OFICIAL DO MP SANTA VITÓRIA - COMARCA; SANTA VITORIA-PJ-UNPJ 10.069,62 3.020,89 0,00 2.875,02 0,00 0,00 0,00 1.636,56 17.602,09 1.482,77 2.218,49 0,00 0,00 3.701,26 13.900,83 31/12/2020
937 213100 FABIO PRATES GONCALVES ASSESSOR BELO HORIZONTE - COMARCA; CENTRO CERIMONIAL 0,00 4.159,01 10.397,52 4.497,09 0,00 0,00 0,00 2.319,39 21.373,01 1.426,18 3.083,67 0,00 0,00 4.509,85 16.863,16 31/12/2020
938 436700 FABIO SANTIAGO DE CARVALHO OFICIAL DO MP POÇO FUNDO - COMARCA; POCO FUNDO-PJ-UNPJ 8.579,10 1.715,82 0,00 2.676,50 0,00 0,00 0,00 1.550,00 14.521,42 1.154,21 1.644,34 0,00 0,00 2.798,55 11.722,87 31/12/2020
939 208400 FABIOLA DE SOUSA CARDOSO ASSESSOR/ANALISTA BELO HORIZONTE - COMARCA; ASSESS TECNICA DA CORREGEDORIA-GERAL DO MP 18.820,14 7.528,06 2.520,26 5.263,50 0,00 0,00 0,00 1.550,00 35.681,96 3.115,51 6.212,70 0,00 0,00 9.328,21 26.353,75 31/12/2020
940 392200 FABIOLA LEROY COSTA ANALISTA DO MP ESMERALDAS - COMARCA; ESMERALDAS-PJ-01PJ 10.069,62 2.013,92 0,00 8.666,26 0,00 0,00 0,00 2.319,39 23.069,19 1.362,94 2.078,80 0,00 0,00 3.441,74 19.627,45 31/12/2020
941 409000 FABIOLA MONTEIRO DE CARVALHO CASTRO ANALISTA DO MP BOM SUCESSO - COMARCA; BOM SUCESSO-PJ-UNPJ 11.085,56 2.217,11 0,00 2.965,13 0,00 0,00 0,00 1.550,00 17.817,80 1.508,02 2.374,17 0,00 0,00 3.882,19 13.935,61 31/12/2020
942 525800 FABRICIA ALVES DANTAS OFICIAL DO MP MONTES CLAROS - COMARCA; MONTES CLAROS-PJ-01PJ 7.421,79 742,18 0,00 2.451,23 2.721,32 0,00 0,00 1.550,00 14.886,52 907,53 1.770,25 0,00 0,00 2.677,78 12.208,74 31/12/2020
943 263400 FABRICIA PINTO TEIXEIRA SANTIAGO OFICIAL DO MP BELO HORIZONTE - COMARCA; CAO-FUNDACOES-SECRETARIA 12.601,30 3.780,39 0,00 3.554,49 0,00 0,00 0,00 1.550,00 21.486,18 1.878,56 3.014,73 0,00 0,00 4.893,29 16.592,89 31/12/2020
944 420800 FABRICIO BERNARDES DE OLIVEIRA OFICIAL DO MP ITURAMA - COMARCA; ITURAMA-PJ-02PJ 8.579,10 1.715,82 0,00 2.728,64 0,00 0,00 0,00 1.604,33 14.627,89 1.154,21 1.592,20 0,00 0,00 2.746,41 11.881,48 31/12/2020
945 474000 FABRICIO DE FREITAS SALES ANALISTA DO MP MONTES CLAROS - COMARCA; COORD REG PATRI PUB ORD TRIB-NORTE MINAS 10.069,62 2.013,92 0,00 2.478,24 0,00 0,00 0,00 1.550,00 16.111,78 1.362,94 2.078,80 0,00 0,00 3.441,74 12.670,04 31/12/2020
946 510100 FABRICIO FURTADO ASSIS DO CARMO ANALISTA DO MP BELO HORIZONTE - COMARCA; SERVICO MEDICO-DEPTO PERIC MEDICA SAUDE OCUP 10.069,62 1.006,96 0,00 2.695,02 0,00 0,00 963,51 2.319,39 17.054,50 1.244,89 2.099,32 0,00 0,00 3.344,21 13.710,29 31/12/2020
947 519600 FABRICIO GONTIJO SALVATI ANALISTA DO MP JUIZ DE FORA - COMARCA; JUIZ DE FORA-CAO ESPECIALIZADO-SECRETARIA 10.069,62 1.006,96 0,00 2.478,24 3.692,19 0,00 0,00 1.550,00 18.797,01 1.244,89 2.849,71 0,00 0,00 4.094,60 14.702,41 31/12/2020
948 637400 FABRICIO HENRIQUE DA SILVA PASSOS ASSESSOR/ANALISTA BELO HORIZONTE - COMARCA; CENTRO PUBLICIDADE E DESIGN GRAFICO 0,00 1.039,75 10.397,52 4.081,75 0,00 0,00 0,00 1.550,00 17.069,02 1.090,34 1.642,68 0,00 1.212,24 3.945,26 13.123,76 31/12/2020
949 428200 FABRICIO ORZIL VIANA ANALISTA DO MP SANTA LUZIA - COMARCA; SANTA LUZIA-PJ-04PJ 10.069,62 2.013,92 0,00 4.333,14 0,00 0,00 0,00 1.550,00 17.966,68 1.362,94 2.078,80 0,00 0,00 3.441,74 14.524,94 31/12/2020
950 455600 FABRICIO PAIVA DA ROCHA ANALISTA DO MP SÃO JOÃO DEL REI - COMARCA; SAO JOAO DEL REI-PJ-06PJ 10.069,62 2.013,92 0,00 2.530,37 0,00 0,00 0,00 2.319,39 16.933,30 1.362,94 2.026,67 0,00 0,00 3.389,61 13.543,69 31/12/2020
951 511500 FABRICIO RENE CARDOSO DE PADUA ANALISTA DO MP SÃO SEBASTIÃO DO PARAÍSO - COMARCA; SAO SEBASTIAO DO PARAISO-PJ-03PJ 10.069,62 1.006,96 0,00 2.478,24 0,00 0,00 0,00 1.550,00 15.104,82 1.244,89 1.834,36 0,00 0,00 3.079,25 12.025,57 31/12/2020
952 496100 FABRICIO RESENDE GONCALVES OFICIAL DO MP ENTRE-RIOS DE MINAS - COMARCA; ENTRE RIOS DE MINAS-PJ-UNPJ 7.421,79 742,18 0,00 6.054,86 0,00 0,00 0,00 2.319,39 16.538,22 907,53 1.126,16 0,00 0,00 2.033,69 14.504,53 31/12/2020
953 650300 FABRICIO ROBERTO AZEVEDO OFICIAL DO MP NOVA SERRANA - COMARCA; NOVA SERRANA-PJ-04PJ 4.376,03 262,56 0,00 1.573,33 0,00 0,00 0,00 1.550,00 7.761,92 510,24 292,75 0,00 0,00 802,99 6.958,93 31/12/2020
954 514900 FADUA MARIA DRUMOND CHEQUER ANALISTA DO MP DIVINÓPOLIS - COMARCA; DIVINOPOLIS-PJ-12PJ 10.069,62 1.006,96 0,00 4.060,40 0,00 0,00 0,00 1.550,00 16.686,98 1.244,89 1.730,08 0,00 0,00 2.974,97 13.712,01 31/12/2020
955 282500 FANNY FERREIRA MELO OFICIAL DO MP ARAXÁ - COMARCA; ARAXA-PJ-03PJ 8.436,53 2.530,96 0,00 2.462,39 0,00 0,00 0,00 1.550,00 14.979,88 1.232,23 1.807,84 0,00 0,00 3.040,07 11.939,81 31/12/2020
956 692500 FARID JUNIOR NUNES DA SILVA ASSESSOR PROCURADOR JUSTICA BELO HORIZONTE - COMARCA; GABINETE DE PROCURADOR DE JUSTIÇA - SALA 902 0,00 0,00 7.187,72 1.197,95 0,00 0,00 0,00 1.550,00 9.935,67 805,23 1.109,39 0,00 0,00 1.914,62 8.021,05 31/12/2020
957 540100 FATIMA CRISTINA POVOA DA COSTA ASSESSOR/OFICIAL BELO HORIZONTE - COMARCA; BH-18PJ VIOLENCIA DOMESTICA-SECRETARIA 0,00 3.119,26 10.397,52 3.832,91 0,00 2.099,91 0,00 1.550,00 20.999,60 856,23 2.847,75 0,00 1.243,68 4.947,66 16.051,94 31/12/2020
958 382800 FATIMA DE OLIVEIRA COELHO E SILVA OFICIAL DO MP BELO HORIZONTE - COMARCA; DIRETORIA DE ADMINISTRACAO FINANCEIRA 7.187,72 2.156,32 0,00 2.612,64 0,00 0,00 0,00 1.550,00 13.506,68 1.043,91 1.361,04 0,00 0,00 2.404,95 11.101,73 31/12/2020
959 398601 FELIPE ANTONIO HORTA DE PAULA ANALISTA DO MP BELO HORIZONTE - COMARCA; PROC. JUSTICA DIR. DIFUSOS E COLETIVOS-SEC 9.146,93 914,69 0,00 2.635,57 0,00 0,00 0,00 1.550,00 14.247,19 1.127,14 1.587,62 0,00 0,00 2.714,76 11.532,43 31/12/2020
960 430900 FELIPE BOY VIEIRA ANALISTA DO MP BELO HORIZONTE - COMARCA; DIRETORIA DE SEGURANCA 12.204,02 2.440,80 0,00 3.519,95 0,00 0,00 0,00 1.550,00 19.714,77 1.667,73 2.699,34 0,00 0,00 4.367,07 15.347,70 31/12/2020
961 631700 FELIPE DE MORAIS SIMOES COELHO ANALISTA DO MP BELO HORIZONTE - COMARCA; BH-18PJ VIOLENCIA DOMESTICA-SECRETARIA 7.663,37 766,34 0,00 2.197,41 0,00 0,00 0,00 1.550,00 12.177,12 937,85 1.190,90 0,00 0,00 2.128,75 10.048,37 31/12/2020
962 549100 FELIPE FERNANDES ALVIM ANALISTA DO MP LAJINHA - COMARCA; LAJINHA-PJ-UNPJ 9.146,93 914,69 0,00 2.635,57 0,00 0,00 0,00 1.550,00 14.247,19 1.127,14 1.587,62 0,00 0,00 2.714,76 11.532,43 31/12/2020
963 487300 FELIPE FERNANDES SILVEIRA ASSESSOR BELO HORIZONTE - COMARCA; DIVISAO DE MANUTENCAO PREDIAL 0,00 0,00 3.076,28 3.010,17 0,00 0,00 0,00 1.550,00 7.636,45 734,41 205,10 0,00 0,00 939,51 6.696,94 31/12/2020
964 693100 FELIPE FROIS DO AMARAL ASSESSOR PROMOTOR JUSTICA RIBEIRÃO DAS NEVES - COMARCA; RIBEIRAO NEVES-SEC PJ EXECUCAO PENAL 0,00 0,00 7.187,72 1.197,95 0,00 0,00 0,00 1.550,00 9.935,67 805,23 1.109,39 0,00 0,00 1.914,62 8.021,05 31/12/2020
965 620100 FELIPE GOMES DE AZEVEDO ASSESSOR/OFICIAL BELO HORIZONTE - COMARCA; DIVISAO DE SERVICOS 0,00 817,05 8.170,49 2.436,20 0,00 0,00 0,00 1.550,00 12.973,74 603,32 1.394,54 0,00 151,84 2.149,70 10.824,04 31/12/2020
966 601600 FELIPE RODRIGUES DE SIQUEIRA ANALISTA DO MP BELO HORIZONTE - COMARCA; BH-02PJ FAMILIA-SECRETARIA 9.146,93 914,69 0,00 2.635,57 0,00 0,00 0,00 1.550,00 14.247,19 1.127,14 1.242,77 0,00 0,00 2.369,91 11.877,28 31/12/2020
967 628900 FELIX FERNANDO JUNIO VIEIRA ANALISTA DO MP CAETÉ - COMARCA; CAETE-PJ-02PJ 8.436,53 843,65 0,00 3.516,99 0,00 0,00 0,00 1.550,00 14.347,17 1.036,50 1.345,51 0,00 0,00 2.382,01 11.965,16 31/12/2020
968 544500 FELLIPE LEMOS MARCONDES BUENO ANALISTA DO MP SÃO SEBASTIÃO DO PARAÍSO - COMARCA; SAO SEBASTIAO DO PARAISO-PJ-04PJ 9.146,93 914,69 0,00 2.635,57 3.353,87 0,00 0,00 1.550,00 17.601,06 1.127,14 2.509,93 0,00 0,00 3.637,07 13.963,99 31/12/2020
969 688500 FELLIPE TADEU DE ANDRADE RAMOS ASSESSOR PROCURADOR JUSTICA BELO HORIZONTE - COMARCA; GABINETE DE PROCURADOR DE JUSTIÇA - SALA 907 0,00 0,00 7.187,72 1.796,93 0,00 0,00 0,00 1.550,00 10.534,65 859,14 1.213,66 0,00 0,00 2.072,80 8.461,85 31/12/2020
970 612600 FERNANDA ADRIANA DE PAULA GUIDO ANALISTA DO MP PARACATU - COMARCA; PARACATU-PJ-02PJ 8.436,53 843,65 0,00 2.331,44 0,00 0,00 0,00 2.319,39 13.931,01 1.036,50 1.397,65 0,00 0,00 2.434,15 11.496,86 31/12/2020
971 508400 FERNANDA AGANETTI MATTOS DE OLIVEIRA ANALISTA DO MP BELO HORIZONTE - COMARCA; BH-07PJ 02 TRIBUNAL DO JURI-GAB 061PJ 10.069,62 1.006,96 0,00 2.478,24 0,00 0,00 0,00 3.088,78 16.643,60 1.244,89 1.834,36 0,00 0,00 3.079,25 13.564,35 31/12/2020
972 453600 FERNANDA ALBERNAZ RABELO ANALISTA DO MP BELO HORIZONTE - COMARCA; GABINETE DE PROCURADOR DE JUSTIÇA - SALA 616 10.069,62 2.013,92 0,00 2.478,24 0,00 0,00 0,00 1.550,00 16.111,78 1.362,94 2.078,80 0,00 0,00 3.441,74 12.670,04 31/12/2020
973 255600 FERNANDA ALINA DE ALMEIDA ANDRADE OFICIAL DO MP BELO HORIZONTE - COMARCA; LABORATORIO TECNOLOGIA INTELIGENCIA 10.069,62 3.020,89 0,00 3.238,55 0,00 0,00 0,00 1.550,00 17.879,06 1.482,77 2.322,77 0,00 0,00 3.805,54 14.073,52 31/12/2020
974 443200 FERNANDA ALMEIDA LOPES ANALISTA DO MP CONTAGEM - COMARCA; CONTAGEM-PJ-23PJ 12.601,30 2.520,26 0,00 3.355,97 0,00 0,00 0,00 3.088,78 21.566,31 1.724,83 2.710,47 0,00 0,00 4.435,30 17.131,01 31/12/2020
975 281100 FERNANDA ANANIAS MEIRA ANALISTA DO MP BELO HORIZONTE - COMARCA; BH-23PJ INFRACIONAL-ASS JURIDICA 16.750,82 5.025,25 0,00 4.782,08 0,00 0,00 2.239,80 1.550,00 30.347,95 2.823,97 4.958,41 0,00 0,00 7.782,38 22.565,57 31/12/2020
976 539000 FERNANDA BARBOSA ALVES ANALISTA DO MP UBERABA - COMARCA; UBERABA-PJ-04PJ 9.146,93 914,69 0,00 2.635,57 0,00 0,00 0,00 2.319,39 15.016,58 1.127,14 1.587,62 0,00 0,00 2.714,76 12.301,82 31/12/2020
977 451200 FERNANDA BLOISE PRADO OFICIAL DO MP BELO HORIZONTE - COMARCA; DIVISAO DE MATERIAIS 8.170,49 1.634,10 0,00 2.652,11 0,00 0,00 0,00 1.550,00 14.006,70 1.097,33 1.525,14 0,00 0,00 2.622,47 11.384,23 31/12/2020
978 427900 FERNANDA BRAGA CARNEIRO BICALHO ANALISTA DO MP PEÇANHA - COMARCA; PECANHA-PJ-SECRETARIA 10.069,62 2.013,92 0,00 2.676,63 0,00 0,00 0,00 2.319,39 17.079,56 1.362,94 2.026,67 0,00 0,00 3.389,61 13.689,95 31/12/2020
979 507100 FERNANDA CABRINI VAZ MOTA ANALISTA DO MP BELO HORIZONTE - COMARCA; BH-14PJ DEFESA CONSUMIDOR-GAB 005PJ 10.069,62 1.006,96 0,00 2.478,24 0,00 0,00 0,00 3.242,66 16.797,48 1.244,89 1.834,36 0,00 0,00 3.079,25 13.718,23 31/12/2020
980 259800 FERNANDA CALZAVARA DE SOUSA COORDENADOR/OFICIAL BELO HORIZONTE - COMARCA; DIRET DE FORMACAO, APERFEIC. E POS-GRADUACAO 12.601,30 3.780,39 2.687,03 4.106,94 0,00 0,00 0,00 2.319,39 25.495,05 1.878,56 3.805,80 0,00 0,00 5.684,36 19.810,69 31/12/2020
981 494400 FERNANDA CAMPOS BARATA OFICIAL DO MP JUIZ DE FORA - COMARCA; JUIZ DE FORA-PJ-08PJ 6.123,79 612,38 0,00 2.088,52 0,00 0,00 0,00 1.550,00 10.374,69 746,19 777,89 0,00 0,00 1.524,08 8.850,61 31/12/2020
982 555600 FERNANDA CAROLINE RIBEIRO ANALISTA DO MP BELO HORIZONTE - COMARCA; DIRETORIA GESTAO CONTRATOS CONVENIOS 9.146,93 914,69 0,00 2.148,78 0,00 0,00 0,00 1.550,00 13.760,40 1.127,14 1.280,31 0,00 1.117,48 3.524,93 10.235,47 31/12/2020
983 692000 FERNANDA CESAR SILVA ASSESSOR PROCURADOR JUSTICA BELO HORIZONTE - COMARCA; GABINETE DE PROCURADOR DE JUSTIÇA - SALA 809 0,00 0,00 7.187,72 1.197,95 0,00 0,00 0,00 1.550,00 9.935,67 805,23 1.213,66 0,00 0,00 2.018,89 7.916,78 31/12/2020
984 294500 FERNANDA COSTA FLORES OFICIAL DO MP PARÁ DE MINAS - COMARCA; PARA DE MINAS-PJ-04PJ 10.069,62 3.020,89 0,00 2.770,75 4.363,50 0,00 0,00 1.550,00 21.774,76 1.482,77 3.522,73 0,00 0,00 5.005,50 16.769,26 31/12/2020
985 344500 FERNANDA CRISTINA DE SOUZA PAZ ASSESSOR BELO HORIZONTE - COMARCA; CENTRAL DE APOIO TECN-SETOR DE MEIO AMBIENTE 0,00 0,00 5.136,32 2.263,99 0,00 0,00 0,00 1.550,00 8.950,31 1.291,12 545,25 0,00 0,00 1.836,37 7.113,94 31/12/2020
986 538100 FERNANDA CRISTINA DOS SANTOS ROSA OFICIAL DO MP RIBEIRÃO DAS NEVES - COMARCA; RIBEIRAO DAS NEVES-PJ-09PJ 5.930,75 1.779,23 0,00 5.766,49 0,00 0,00 0,00 1.550,00 15.026,47 856,23 1.015,42 0,00 0,00 1.871,65 13.154,82 31/12/2020
987 337800 FERNANDA CRISTINA ROLAND CLIMACO MENDES COORDENADOR/OFICIAL BELO HORIZONTE - COMARCA; DIRETORIA DE PAGAMENTO DE PESSOAL-DPAG 0,00 4.030,55 13.435,16 3.603,71 0,00 0,00 0,00 1.550,00 22.619,42 1.639,93 3.380,18 0,00 372,89 5.393,00 17.226,42 31/12/2020
988 545400 FERNANDA CUNHA GUIMARAES ANALISTA DO MP BELO HORIZONTE - COMARCA; COORD EST DEF DIR FAM PESSOAS DEFICI IDOSOS 9.146,93 914,69 0,00 2.635,57 0,00 0,00 0,00 1.550,00 14.247,19 1.127,14 1.587,62 0,00 0,00 2.714,76 11.532,43 31/12/2020
989 429801 FERNANDA CUNHA PINHEIRO DA SILVA ANALISTA DO MP BELO HORIZONTE - COMARCA; ASSESSORIA DE COMUNICACAO INTEGRADA 10.069,62 1.006,96 0,00 4.034,33 0,00 0,00 0,00 1.550,00 16.660,91 1.244,89 1.782,22 0,00 0,00 3.027,11 13.633,80 31/12/2020
990 408000 FERNANDA DAS NEVES RAMOS ANALISTA DO MP BELO HORIZONTE - COMARCA; CENTRAL DE APOIO TECNICO-SETOR CONTABIL 13.011,52 2.602,30 0,00 3.329,25 0,00 0,00 0,00 2.319,39 21.262,46 1.784,88 2.933,60 0,00 0,00 4.718,48 16.543,98 31/12/2020
991 496000 FERNANDA DE ALMEIDA VIANA ANALISTA DO MP BELO HORIZONTE - COMARCA; PROC JUST RECURSOS ESP E EXTRAORD CRIMINAIS 10.069,62 1.006,96 0,00 2.530,37 0,00 0,00 0,00 2.319,39 15.926,34 1.244,89 1.782,22 0,00 0,00 3.027,11 12.899,23 31/12/2020
992 266700 FERNANDA DE CASTRO LUCAS COORDENADOR/OFICIAL BELO HORIZONTE - COMARCA; DIRET DE DESENV DE RECURSOS HUMANOS-DDRH 12.601,30 3.780,39 2.687,03 4.106,94 0,00 0,00 0,00 2.319,39 25.495,05 1.878,56 3.805,80 0,00 0,00 5.684,36 19.810,69 31/12/2020
993 433200 FERNANDA DE FIGUEIREDO NORTE ANALISTA DO MP BELO HORIZONTE - COMARCA; ASSESS JUR DO CONS SUPERIOR DO MINISTERIO PUB 13.011,52 2.602,30 0,00 3.433,52 0,00 0,00 0,00 2.319,39 21.366,73 1.784,88 2.829,32 0,00 0,00 4.614,20 16.752,53 31/12/2020
994 419200 FERNANDA DE MIRANDA MARTINS SIMOES ANALISTA DO MP UBERLÂNDIA - COMARCA; UBERLANDIA-PJ-17PJ 13.011,52 2.602,30 0,00 3.329,25 0,00 0,00 0,00 2.319,39 21.262,46 1.784,88 2.933,60 0,00 0,00 4.718,48 16.543,98 31/12/2020
995 441400 FERNANDA DE MORAIS PINTO ANALISTA DO MP BELO HORIZONTE - COMARCA; PROC. JUSTICA DIR. DIFUSOS E COLETIVOS-SEC 12.601,30 2.520,26 0,00 3.251,70 0,00 0,00 0,00 1.550,00 19.923,26 1.724,83 2.814,74 0,00 0,00 4.539,57 15.383,69 31/12/2020
996 432200 FERNANDA DE MOURA GUIMARAES ANALISTA DO MP BELO HORIZONTE - COMARCA; BH-26 CRIME CONT CRIAN ADOL-SECRETARIA 12.601,30 2.520,26 0,00 3.251,70 0,00 0,00 0,00 2.319,39 20.692,65 1.724,83 2.814,74 0,00 0,00 4.539,57 16.153,08 31/12/2020
997 461800 FERNANDA DE OLIVEIRA SANTOS ANALISTA DO MP JUIZ DE FORA - COMARCA; JUIZ DE FORA-PJ-21PJ 10.069,62 2.013,92 0,00 2.478,24 0,00 0,00 0,00 2.319,39 16.881,17 1.362,94 2.078,80 0,00 0,00 3.441,74 13.439,43 31/12/2020
998 432500 FERNANDA DE PAULA PINTO ANALISTA DO MP BELO HORIZONTE - COMARCA; PROC JUST RECURSOS ESP E EXTRAORD CRIMINAIS 12.601,30 2.520,26 0,00 3.251,70 0,00 0,00 0,00 1.550,00 19.923,26 1.724,83 2.814,74 0,00 0,00 4.539,57 15.383,69 31/12/2020
999 431600 FERNANDA DIAS BARBOSA PEREIRA ANALISTA DO MP OURO BRANCO - COMARCA; OURO BRANCO-PJ-UNPJ 12.601,30 2.520,26 0,00 5.466,79 0,00 0,00 0,00 2.319,39 22.907,74 1.724,83 2.710,47 0,00 0,00 4.435,30 18.472,44 31/12/2020
1000 162200 FERNANDA FERNANDES MONTEIRO ASSESSOR BELO HORIZONTE - COMARCA; BH-12PJ JUIZO CRIMINAL-SECRETARIA 0,00 2.054,53 5.136,32 2.735,53 2.396,95 0,00 0,00 1.550,00 13.873,33 1.426,18 1.821,55 0,00 0,00 3.247,73 10.625,60 31/12/2020
1001 512800 FERNANDA FERREIRA BARBOSA MOREIRA ANALISTA DO MP IPATINGA - COMARCA; IPATINGA-PJ-05PJ 10.069,62 1.006,96 0,00 2.478,24 0,00 0,00 0,00 2.319,39 15.874,21 1.244,89 1.834,36 0,00 0,00 3.079,25 12.794,96 31/12/2020
1002 329200 FERNANDA GABRIEL GUZELLA OFICIAL DO MP BELO HORIZONTE - COMARCA; DIRET DE PLANOS PROJETOS E PROGRAMAS INST 9.752,14 2.925,64 0,00 2.870,05 0,00 0,00 0,00 1.550,00 17.097,83 1.433,66 2.222,77 0,00 0,00 3.656,43 13.441,40 31/12/2020
1003 324200 FERNANDA GEORGIA NEVES ZAHAN OFICIAL DO MP IPANEMA - COMARCA; IPANEMA-PJ-SECRETARIA 8.436,53 5.905,57 0,00 2.952,55 0,00 0,00 0,00 1.550,00 18.844,65 1.631,71 2.626,00 0,00 0,00 4.257,71 14.586,94 31/12/2020
1004 548200 FERNANDA GONCALVES DE CARVALHO ZUZA OFICIAL DO MP TUPACIGUARA - COMARCA; TUPACIGUARA-PJ-UNPJ 5.930,75 593,08 0,00 2.227,21 0,00 0,00 0,00 1.550,00 10.301,04 722,19 726,09 0,00 0,00 1.448,28 8.852,76 31/12/2020
1005 355400 FERNANDA HELENA BASQUES OFICIAL DO MP SABARÁ - COMARCA; SABARA-PJ-01PJ 9.146,93 1.829,39 0,00 2.598,69 0,00 0,00 0,00 1.550,00 15.125,01 1.233,26 1.809,98 0,00 0,00 3.043,24 12.081,77 31/12/2020
1006 454800 FERNANDA IATAROLA BARBOSA DIAS ANALISTA DO MP BARBACENA - COMARCA; BARBACENA-PJ-05PJ 10.736,08 2.147,22 0,00 2.782,09 0,00 0,00 0,00 1.550,00 17.215,39 1.458,11 2.220,43 0,00 0,00 3.678,54 13.536,85 31/12/2020
1007 515500 FERNANDA LILIANE MARUGEIRO ANALISTA DO MP BELO HORIZONTE - COMARCA; BH-18PJ VIOLENCIA DOMESTICA-SECRETARIA 10.069,62 1.006,96 0,00 2.530,37 0,00 0,00 0,00 2.319,39 15.926,34 1.244,89 1.782,22 0,00 0,00 3.027,11 12.899,23 31/12/2020
1008 392900 FERNANDA MAGALHAES SILVA ANALISTA DO MP BELO HORIZONTE - COMARCA; CENTRO JORNALISMO 14.324,23 2.864,85 0,00 3.980,42 0,00 0,00 0,00 1.550,00 22.719,50 1.977,07 2.404,23 0,00 0,00 4.381,30 18.338,20 31/12/2020
1009 409200 FERNANDA MAIA SANTIAGO CARDOSO ANALISTA DO MP PIRAPORA - COMARCA; PIRAPORA-PJ-02PJ 10.069,62 2.013,92 0,00 2.624,49 0,00 0,00 0,00 2.319,39 17.027,42 1.362,94 2.078,80 0,00 0,00 3.441,74 13.585,68 31/12/2020
1010 556500 FERNANDA OTERO COSTA ANALISTA DO MP BELO HORIZONTE - COMARCA; ASSESS TECNICO-JUR JUNTO AS PROC. DE JUST 10.069,62 1.006,96 0,00 2.874,07 0,00 0,00 0,00 1.550,00 15.500,65 1.244,89 1.834,36 0,00 0,00 3.079,25 12.421,40 31/12/2020
1011 615300 FERNANDA PATRICIA RIBEIRO MOTA OFICIAL DO MP UBERABA - COMARCA; UBERABA-PJ-05PJ 4.974,42 497,44 0,00 1.731,43 0,00 0,00 0,00 1.550,00 8.753,29 603,32 469,49 0,00 0,00 1.072,81 7.680,48 31/12/2020
1012 619800 FERNANDA PINTO PEREIRA ANALISTA DO MP UBERLÂNDIA - COMARCA; UBERLANDIA-PJ-20PJ 8.436,53 843,65 0,00 2.383,57 0,00 0,00 0,00 2.319,39 13.983,14 1.036,50 1.345,51 0,00 0,00 2.382,01 11.601,13 31/12/2020
1013 412900 FERNANDA PORTELA ROSA ANALISTA DO MP BELO HORIZONTE - COMARCA; BH-08PJ JUIZADO ESPECIAL-SECRETARIA 13.011,52 2.602,30 0,00 5.576,76 0,00 0,00 0,00 2.319,39 23.509,97 1.784,88 2.933,60 0,00 0,00 4.718,48 18.791,49 31/12/2020
1014 274301 FERNANDA QUEIROZ PARREIRA ANALISTA DO MP PATOS DE MINAS - COMARCA; GAECO REGIONAL DE PATOS DE MINAS 10.069,62 1.006,96 0,00 2.478,24 0,00 0,00 0,00 1.550,00 15.104,82 1.244,89 1.834,36 0,00 0,00 3.079,25 12.025,57 31/12/2020
1015 467900 FERNANDA QUEIROZ SIMOES GANNAM ANALISTA DO MP SÃO LOURENÇO - COMARCA; SAO LOURENCO-PJ-02PJ 10.069,62 2.013,92 0,00 2.530,37 0,00 0,00 0,00 2.319,39 16.933,30 1.362,94 2.026,67 0,00 0,00 3.389,61 13.543,69 31/12/2020
1016 681000 FERNANDA ROCHA DE MATOS TEIXEIRA ASSESSOR PROMOTOR JUSTICA PIRANGA - COMARCA; PIRANGA-PJ-UNPJ 0,00 0,00 7.187,72 2.948,36 0,00 0,00 0,00 2.319,39 12.455,47 994,11 1.161,52 0,00 0,00 2.155,63 10.299,84 31/12/2020
1017 255500 FERNANDA SIMOES LOPES MENDES ANALISTA DO MP BELO HORIZONTE - COMARCA; BH-17PJ PATRIMONIO PUBLICO-SECRETARIA 18.103,37 5.431,01 0,00 4.741,55 0,00 0,00 0,00 1.550,00 29.825,93 2.763,79 4.738,28 0,00 0,00 7.502,07 22.323,86 31/12/2020
1018 481700 FERNANDA VIANA FROES DA SILVA OFICIAL DO MP GOVERNADOR VALADARES - COMARCA; GOVERNADOR VALADARES-PJ-09PJ 7.663,37 766,34 0,00 2.197,41 0,00 0,00 0,00 1.550,00 12.177,12 937,85 1.190,90 0,00 0,00 2.128,75 10.048,37 31/12/2020
1019 123900 FERNANDO ANTONIO FARIA DE ABREU DIRETOR/ANALISTA BELO HORIZONTE - COMARCA; SUPERINTENDÊNCIA DE ENGENHARIA E ARQUITETURA 26.471,31 23.824,17 4.875,89 8.848,36 0,00 4.254,77 0,00 1.550,00 69.824,50 4.254,77 8.882,75 19.709,15 0,00 32.846,67 36.977,83 31/12/2020
1020 416900 FERNANDO APARECIDO DA SILVA ANALISTA DO MP BOM DESPACHO - COMARCA; BOM DESPACHO-PJ-02PJ 12.601,30 8.820,91 0,00 4.348,61 0,00 0,00 0,00 1.550,00 27.320,82 2.499,76 4.230,04 0,00 0,00 6.729,80 20.591,02 31/12/2020
1021 380500 FERNANDO BONES COSTA OFICIAL DO MP BELO HORIZONTE - COMARCA; DIVISAO DE MATERIAIS 6.123,79 1.224,76 0,00 2.805,50 0,00 0,00 0,00 1.550,00 11.704,05 815,39 927,26 0,00 0,00 1.742,65 9.961,40 31/12/2020
1022 500100 FERNANDO CEZAR PINTO OFICIAL DO MP SANTA LUZIA - COMARCA; SANTA LUZIA-PJ-04PJ 7.663,37 766,34 0,00 2.249,55 0,00 0,00 0,00 1.550,00 12.229,26 937,85 1.138,76 0,00 0,00 2.076,61 10.152,65 31/12/2020
1023 346100 FERNANDO EUSTAQUIO CAMPOS UTSCH MOREIRA ANALISTA DO MP BELO HORIZONTE - COMARCA; DIRETORIA DE SISTEMAS DE INFORMACAO 15.272,02 3.054,40 0,00 3.860,81 0,00 0,00 0,00 1.550,00 23.737,23 2.115,82 3.484,28 0,00 0,00 5.600,10 18.137,13 31/12/2020
1024 103500 FERNANDO LUIZ DA SILVA JUNIOR OFICIAL DO MP BELO HORIZONTE - COMARCA; DIVISAO DE ATENDIMENTO E CONSULTA JURIDICA 18.820,14 9.410,07 0,00 4.969,80 9.410,07 0,00 0,00 1.550,00 44.160,08 3.350,77 8.560,26 0,00 0,00 11.911,03 32.249,05 31/12/2020
1025 287300 FERNANDO MARCIO ALVES MARTINS OFICIAL DO MP LEOPOLDINA - COMARCA; LEOPOLDINA-PJ-01PJ 8.579,10 2.573,73 0,00 2.983,51 0,00 0,00 0,00 1.550,00 15.686,34 1.253,73 1.696,48 0,00 0,00 2.950,21 12.736,13 31/12/2020
1026 262200 FERNANDO MARCIO RESENDE PEREIRA OFICIAL DO MP BELO HORIZONTE - COMARCA; DIR ESTRUTURA E PROCESSOS ORGANIZACIONAIS 10.069,62 3.020,89 0,00 3.814,72 0,00 1.482,77 0,00 1.550,00 19.938,00 1.482,77 2.730,53 0,00 0,00 4.213,30 15.724,70 31/12/2020
1027 472900 FERNANDO RODRIGUES DE FREITAS ANALISTA DO MP BELO HORIZONTE - COMARCA; BH-15PJ M AMB PAT HIST CULT-ASS TECNICA 10.069,62 2.013,92 0,00 2.478,24 0,00 0,00 0,00 1.550,00 16.111,78 1.362,94 2.078,80 0,00 0,00 3.441,74 12.670,04 31/12/2020
1028 421400 FERNANDO TEODORO MACIEL ANALISTA DO MP SANTA VITÓRIA - COMARCA; SANTA VITORIA-PJ-UNPJ 11.085,56 2.217,11 0,00 3.069,40 0,00 0,00 0,00 2.319,39 18.691,46 1.508,02 2.269,90 0,00 0,00 3.777,92 14.913,54 31/12/2020
1029 446300 FERNANDO VITOR DE OLIVEIRA ANALISTA DO MP MONTES CLAROS - COMARCA; COORD REG BACIA RIOS VERDE GRANDE E PARDO 12.601,30 2.520,26 0,00 3.251,70 0,00 0,00 0,00 1.550,00 19.923,26 1.724,83 2.814,74 0,00 0,00 4.539,57 15.383,69 31/12/2020
1030 639300 FILIPE ALMEIDA RODRIGUES ANALISTA DO MP TIMÓTEO - COMARCA; TIMOTEO-PJ-04PJ 8.170,49 817,05 0,00 2.499,28 2.995,85 0,00 0,00 1.550,00 16.032,67 1.002,55 2.150,37 0,00 0,00 3.152,92 12.879,75 31/12/2020
1031 692600 FILIPPE WAGNER MAGALHAES ALAMY REIS ASSESSOR PROCURADOR JUSTICA BELO HORIZONTE - COMARCA; GABINETE DE PROCURADOR DE JUSTIÇA - SALA 604 0,00 0,00 7.187,72 1.197,95 0,00 0,00 0,00 1.550,00 9.935,67 805,23 1.213,66 0,00 0,00 2.018,89 7.916,78 31/12/2020
1032 398400 FLAVIA ALVARES GUIMARAES COORDENADOR/OFICIAL BELO HORIZONTE - COMARCA; CGMP-DIVIS DE APOIO FISC ORIENTACAO FUNCIONAL 0,00 2.363,83 11.819,15 3.272,83 0,00 0,00 0,00 1.550,00 19.005,81 1.154,21 2.620,01 0,00 150,56 3.924,78 15.081,03 31/12/2020
1033 398200 FLAVIA ALVES DE ASSUNCAO RODRIGUES ANALISTA DO MP DIVINÓPOLIS - COMARCA; COORD REG DO MA DA BACIA DO ALTO SAO FRANC 12.601,30 2.520,26 0,00 10.626,24 0,00 0,00 0,00 2.319,39 28.067,19 1.724,83 2.762,60 0,00 0,00 4.487,43 23.579,76 31/12/2020
1034 318500 FLAVIA BEATRIZ NUNES CRUZ VIEIRA ANALISTA DO MP BARBACENA - COMARCA; BARBACENA-PJ-SECRETARIA 16.750,82 5.025,25 0,00 7.921,07 0,00 0,00 0,00 1.550,00 31.247,14 2.544,00 4.315,19 0,00 0,00 6.859,19 24.387,95 31/12/2020
1035 496500 FLAVIA CARAM BORLIDO ANALISTA DO MP BELO HORIZONTE - COMARCA; DIRETORIA GESTAO CONTRATOS CONVENIOS 12.204,02 1.220,40 0,00 5.027,33 0,00 0,00 0,00 1.550,00 20.001,75 1.522,50 2.403,67 0,00 0,00 3.926,17 16.075,58 31/12/2020
1036 534800 FLAVIA CONDE SOARES ANALISTA DO MP BELO HORIZONTE - COMARCA; BH-13PJ JUÍZO DE TÓXICOS-ASSESSORIA JURIDICA 9.146,93 914,69 0,00 2.635,57 0,00 0,00 0,00 1.550,00 14.247,19 1.127,14 1.587,62 0,00 0,00 2.714,76 11.532,43 31/12/2020
1037 219500 FLAVIA CRISTINA ANCELMO OFICIAL DO MP BELO HORIZONTE - COMARCA; CAO-DH CONT EXT ATIV POLIC E AP COMUNIT 10.069,62 3.020,89 0,00 2.770,75 0,00 0,00 527,98 7.309,82 23.699,06 1.482,77 2.322,77 0,00 0,00 3.805,54 19.893,52 31/12/2020
1038 329600 FLAVIA CRISTINA DE MATOS XAVIER ANALISTA DO MP UBERABA - COMARCA; UBERABA-PJ-15PJ 16.750,82 5.025,25 0,00 4.886,35 0,00 0,00 0,00 1.550,00 28.212,42 2.544,00 4.315,19 0,00 0,00 6.859,19 21.353,23 31/12/2020
1039 207600 FLAVIA DE ANDRADE MANCINI ANALISTA DO MP BELO HORIZONTE - COMARCA; ASSESSORIA JURIDICO-ADMINISTRATIVA 18.820,14 7.528,06 0,00 4.852,85 0,00 0,00 0,00 1.550,00 32.751,05 3.115,51 5.363,22 0,00 0,00 8.478,73 24.272,32 31/12/2020
1040 402801 FLAVIA MARIA DE RESENDE NASCIMENTO ANALISTA DO MP SÃO JOÃO DEL REI - COMARCA; SAO JOAO DEL REI-PJ-04PJ 10.069,62 1.006,96 0,00 2.478,24 0,00 0,00 0,00 2.319,39 15.874,21 1.244,89 1.834,36 0,00 0,00 3.079,25 12.794,96 31/12/2020
1041 437500 FLAVIA MARIA TORRES MARCHETTI ANALISTA DO MP BELO HORIZONTE - COMARCA; BH-18PJ VIOLENCIA DOMESTICA-SECRETARIA 11.085,56 2.217,11 0,00 3.069,40 0,00 0,00 0,00 1.550,00 17.922,07 1.508,02